GFSSGP_850_temp_000.txt.gz
Temp
20 20 21 21 17 13 15 20 20 20 20 19 19 19 17 17 17 15 15 15 16 16 16 17 17 17 17 17 17 17 16 15 15 16 16 16 15 16 16 16 16 16 16 16 16 18 16 15 16
20 21 21 21 14 14 16 19 21 21 20 20 18 18 17 15 16 16 15 15 16 16 16 17 17 18 18 18 17 16 16 16 16 16 16 16 15 15 15 15 15 15 15 15 16 16 14 16 15
20 21 21 14 12 15 18 20 21 20 20 22 19 18 18 16 16 16 16 16 16 16 16 16 17 17 17 17 17 17 16 16 16 16 15 15 15 15 15 15 15 15 15 15 15 15 14 15 16
21 21 20 15 18 20 20 18 20 22 21 20 19 16 17 17 17 17 17 17 16 16 16 16 17 17 17 17 16 16 16 16 16 16 16 15 15 14 14 15 15 15 14 13 14 15 14 14 14
21 20 14 16 18 20 19 21 20 17 18 18 19 16 16 17 18 18 17 17 16 16 16 17 16 16 16 16 15 15 15 16 15 15 15 15 15 15 14 14 14 14 14 14 14 14 13 13 13
20 19 14 15 18 20 20 22 21 19 18 19 18 17 17 17 18 17 16 16 16 17 16 16 16 16 16 16 16 16 16 16 15 15 15 15 15 14 14 14 13 13 12 13 13 14 14 14 13
18 14 15 17 17 20 22 23 20 20 20 20 20 16 17 17 18 17 16 16 17 17 16 15 15 15 15 15 15 15 15 15 15 15 15 15 15 15 15 14 14 13 13 13 13 13 14 13 12
22 15 17 16 17 20 21 22 22 22 21 21 21 16 17 18 18 17 17 17 17 16 16 16 16 16 15 16 15 14 15 14 14 14 15 15 15 15 15 14 14 14 13 12 12 12 12 12 11
21 14 15 17 19 19 20 21 22 22 22 21 20 21 21 18 17 17 17 16 16 16 16 16 16 16 16 15 15 14 14 14 14 14 14 14 14 14 14 14 14 13 13 13 12 11 11 11 11
18 13 19 19 18 19 19 21 21 21 21 19 19 20 19 19 18 18 18 17 16 16 16 16 16 16 15 15 14 13 13 14 14 14 14 14 14 14 14 14 14 13 13 13 13 12 11 11 11
20 17 19 20 21 21 20 21 22 21 19 20 19 19 19 19 18 19 19 17 17 17 17 17 17 17 16 15 14 13 13 13 13 14 13 13 14 14 14 13 13 13 13 12 11 12 12 11 10
19 20 21 21 21 21 20 21 20 21 21 21 21 20 19 18 19 19 18 18 17 17 17 17 17 16 16 15 14 13 13 13 13 13 12 13 13 13 13 14 13 13 13 13 12 11 11 11 11
20 20 21 22 21 21 21 21 20 21 22 21 21 19 19 19 19 19 18 18 17 17 17 17 17 16 16 15 14 13 13 13 13 13 13 13 13 13 13 13 13 13 12 12 12 12 11 11 11
21 21 21 21 21 21 20 19 20 22 22 21 21 20 20 19 19 19 19 18 18 18 18 17 17 16 16 15 14 13 13 12 12 12 12 12 12 12 12 12 12 12 12 12 12 11 11 11 11
21 20 18 20 21 20 21 19 18 22 21 21 21 21 20 20 19 19 19 19 18 18 18 17 16 16 16 15 14 14 13 13 13 13 12 12 12 12 11 11 11 11 11 11 11 10 10 10 10
19 18 17 18 19 21 20 17 19 21 21 21 20 20 20 20 20 19 19 19 19 18 17 17 16 16 15 15 14 13 13 12 12 12 12 12 11 11 11 10 9 9 9 9 10 9 9 9 9
14 16 17 18 20 20 19 17 19 21 20 21 20 20 20 20 20 19 19 19 18 18 17 16 16 15 15 14 13 13 12 12 11 11 11 11 11 10 10 10 9 8 8 8 8 8 8 8 8
16 16 16 18 18 16 17 16 16 20 19 20 20 19 19 19 19 19 19 19 18 17 16 16 16 15 15 14 13 13 12 12 11 10 10 11 10 9 9 9 9 8 8 8 8 7 7 7 7
18 17 16 17 18 16 16 14 15 18 17 18 18 19 18 18 18 19 19 18 17 17 16 16 15 15 14 14 14 13 13 12 11 11 10 10 9 10 9 9 8 8 7 7 7 7 7 6 6
16 17 15 15 17 16 15 15 14 16 16 18 19 19 18 17 18 17 17 17 17 17 16 16 15 14 14 14 13 13 12 12 11 11 10 10 9 9 9 9 9 8 7 7 7 7 6 6 6
16 16 16 15 14 15 16 16 16 18 17 17 18 18 19 18 18 17 17 17 16 16 16 15 14 14 14 13 13 12 12 12 12 11 11 10 10 9 9 9 9 8 7 7 7 6 6 6 6
15 17 16 15 14 14 16 14 16 16 17 17 17 18 18 17 17 17 16 16 16 15 15 15 14 14 13 13 13 12 12 12 12 12 11 10 10 10 9 8 8 7 7 7 6 6 6 5 5
15 15 15 15 13 14 14 14 15 17 17 16 15 16 17 16 16 16 16 16 15 15 14 14 14 13 13 12 12 12 12 12 11 12 11 11 10 10 9 8 8 7 7 6 6 5 5 4 4
15 15 14 13 13 11 15 14 14 15 16 14 15 17 17 16 16 16 16 15 14 14 13 13 12 12 12 12 12 12 11 11 11 11 11 11 10 9 9 8 7 7 6 6 5 4 3 4 3
13 11 9 10 9 10 14 13 14 15 15 15 15 16 16 16 16 16 15 15 14 14 14 13 12 12 12 12 11 11 11 11 11 11 10 10 9 9 7 7 6 5 4 4 3 3 3 2 2
14 13 8 11 8 9 12 14 15 16 17 17 17 17 16 15 15 15 14 13 13 13 13 12 12 12 12 11 11 11 10 10 10 10 9 9 8 6 5 4 3 3 2 2 1 0 0 -0 0
15 11 14 10 3 6 10 13 15 15 14 15 16 16 15 15 14 13 12 12 12 12 12 11 10 10 10 10 9 9 9 9 8 8 8 7 6 5 3 3 3 1 0 0 0 -1 0 -0 -0
15 15 11 7 7 9 11 12 13 15 14 14 13 14 12 13 12 12 12 11 11 11 11 11 11 9 9 8 7 7 7 7 7 7 6 5 4 3 3 1 -0 -1 -1 -2 -1 -1 -1 -1 -1
12 10 12 12 8 9 8 9 12 13 13 13 12 12 12 12 11 11 11 11 10 9 9 8 8 7 7 7 6 6 6 6 6 5 4 3 3 2 2 1 -0 -0 -0 -1 -1 -1 -1 -1 -2
14 12 11 6 10 7 6 11 14 13 14 13 12 12 11 11 11 10 10 9 9 9 8 7 7 7 6 5 5 5 5 5 4 3 3 2 1 1 0 0 -0 -1 -1 -1 -2 -2 -2 -2 -3

GFSSGP_850_temp_003.txt.gz
Temp
20 20 21 21 17 13 16 19 18 20 17 18 19 18 16 16 16 16 14 15 15 16 16 16 16 15 17 17 17 16 17 16 15 15 15 15 15 15 15 15 15 15 16 15 16 15 15 15 16
20 21 21 20 14 14 16 17 17 17 18 18 18 17 16 15 15 14 14 14 14 15 16 16 17 17 16 16 16 16 15 15 15 16 15 15 15 14 14 14 14 14 14 15 15 15 14 15 15
20 21 21 12 11 15 17 18 19 18 18 19 18 17 17 16 15 15 15 14 15 16 16 16 17 17 17 17 17 16 16 16 15 15 15 15 14 14 14 14 14 14 14 15 15 14 14 14 15
21 21 19 14 17 19 19 17 19 20 19 18 17 15 17 16 17 16 15 15 16 16 16 16 16 17 17 17 17 17 17 17 16 16 16 16 16 15 15 15 15 15 15 14 14 14 14 14 14
21 20 13 15 18 19 18 19 19 17 18 18 18 15 16 16 17 17 16 16 17 16 16 16 17 17 17 17 16 16 16 16 16 16 16 16 15 15 15 15 15 15 14 13 13 13 14 14 14
20 18 14 15 17 18 19 20 20 18 18 18 17 16 16 16 17 17 16 17 17 17 17 16 16 17 16 17 16 16 16 16 15 15 15 15 15 15 15 15 14 14 13 13 13 13 14 14 14
17 13 15 16 18 18 20 21 19 19 19 19 19 14 16 17 17 17 16 17 17 17 17 17 17 17 17 17 16 16 15 15 15 15 15 15 15 14 14 14 14 13 12 13 13 13 13 13 13
21 13 15 16 17 19 19 21 20 21 19 19 19 15 15 17 17 16 16 16 16 16 17 17 17 17 17 16 15 14 14 14 14 14 14 14 14 14 14 14 14 13 13 12 12 12 12 12 12
20 13 14 18 18 19 19 20 21 20 20 20 20 20 20 17 17 16 16 15 15 16 16 16 16 16 17 17 15 14 13 14 14 14 14 14 14 14 14 14 14 13 13 12 12 11 11 11 11
16 12 17 18 18 18 19 20 20 20 19 19 20 20 19 18 17 16 16 16 16 16 16 16 16 16 16 16 15 13 13 13 13 13 13 14 14 14 14 14 14 13 13 12 12 11 11 10 10
18 16 18 19 20 19 19 20 20 19 18 19 19 20 19 18 17 17 16 17 17 16 16 16 16 16 16 15 14 14 13 13 13 13 13 13 14 14 14 14 14 14 14 13 13 12 12 11 11
18 19 19 20 20 20 19 20 20 20 21 21 21 20 19 18 18 18 18 17 17 16 16 16 16 16 16 16 15 14 13 13 13 13 13 13 13 13 13 13 13 13 13 13 13 13 13 12 11
19 19 20 21 21 21 20 20 19 20 21 21 20 19 19 19 19 19 18 18 18 17 17 16 16 16 16 16 15 14 13 13 12 12 13 13 13 13 13 12 13 13 12 12 12 12 12 12 12
20 20 20 21 21 20 19 19 19 21 21 20 20 19 19 19 19 18 18 18 18 17 17 17 17 16 16 15 15 14 13 12 12 12 11 12 12 12 12 12 12 12 11 11 11 11 11 11 11
20 19 17 19 20 19 20 18 17 21 20 20 20 19 19 19 18 19 19 19 18 18 18 17 17 16 15 15 14 14 13 12 12 12 12 11 11 11 11 11 11 11 10 10 10 10 10 10 10
17 16 15 18 17 19 19 16 18 20 20 20 20 19 19 19 19 19 19 18 18 18 18 17 16 16 15 15 14 14 13 13 12 12 11 11 11 11 10 10 10 10 10 10 10 9 9 9 9
13 15 17 18 18 18 18 16 18 20 19 20 20 20 19 19 19 19 19 18 17 17 17 17 16 15 15 15 14 14 14 13 12 12 11 11 10 10 10 10 10 9 9 9 9 9 9 9 9
16 16 15 16 17 14 15 14 14 18 18 19 18 18 18 18 18 19 19 19 18 17 17 16 16 15 15 14 14 14 14 13 13 12 12 11 11 10 10 9 9 9 9 9 9 8 8 8 8
17 16 15 16 16 15 15 13 13 15 16 16 16 17 18 18 18 19 19 18 17 16 16 16 15 15 14 14 14 13 13 13 12 12 12 11 11 11 10 10 9 9 9 9 8 8 8 7 7
17 16 15 14 15 14 14 14 13 14 15 15 16 16 17 17 17 17 17 17 16 16 16 15 15 15 14 14 13 13 13 13 12 12 12 11 11 11 11 10 10 9 9 9 8 8 7 7 7
15 16 15 15 13 15 14 15 15 16 16 16 16 16 16 17 17 17 17 16 16 16 15 15 15 14 14 13 13 12 12 12 12 12 12 12 11 11 10 10 9 9 9 8 8 8 7 7 6
15 16 15 14 14 13 13 14 15 16 16 15 15 15 16 17 17 16 16 16 16 15 15 15 14 14 13 13 12 12 12 12 11 11 11 11 11 11 10 10 10 9 8 8 7 7 6 6 6
15 14 13 14 13 13 13 12 14 14 16 15 14 16 17 17 16 16 16 15 15 15 15 14 14 13 13 12 12 12 12 11 11 11 10 11 11 10 10 9 9 9 8 7 7 6 5 5 5
14 14 12 11 11 11 14 13 12 13 14 14 14 16 16 16 16 15 15 15 15 14 13 13 12 12 12 12 12 11 11 11 11 10 10 10 10 10 10 9 9 8 6 6 4 4 4 3 2
12 10 8 9 8 10 12 12 12 14 14 14 14 15 16 16 16 15 15 14 13 12 12 12 12 12 11 11 11 10 10 10 9 9 9 8 8 8 8 8 7 6 5 4 3 1 1 2 1
14 11 7 10 8 9 11 13 13 15 16 15 17 15 15 15 15 14 13 12 12 12 11 11 11 11 11 11 10 9 8 8 8 8 7 7 7 7 5 5 4 4 2 1 0 -0 -0 -1 -1
14 10 12 8 2 5 9 12 14 13 13 15 14 14 13 12 12 12 12 12 11 11 10 10 10 10 9 8 7 7 7 7 6 6 6 6 6 6 4 3 2 1 1 -1 -1 -0 -1 -2 -2
13 13 10 7 7 9 10 10 12 13 12 12 11 10 11 11 12 12 11 11 10 10 9 9 8 8 7 7 7 6 6 5 5 5 5 5 4 3 2 2 2 1 0 -0 -1 -0 -1 -1 -1
11 9 10 10 7 8 7 9 11 11 11 11 10 11 11 11 11 10 10 10 9 9 8 7 7 7 7 6 5 5 5 5 4 4 4 4 2 1 1 1 1 0 -1 -1 -1 -2 -2 -2 -2
12 10 9 8 8 6 4 9 12 12 11 10 10 10 10 10 10 10 10 9 9 8 7 7 7 6 6 5 4 4 4 4 3 3 3 2 1 1 -1 0 0 -1 -1 -1 -2 -2 -2 -2 -3

GFSSGP_850_temp_006.txt.gz
Temp
20 20 20 20 16 13 16 18 18 19 18 17 17 17 14 14 15 15 14 14 15 15 15 15 15 15 16 16 16 15 15 15 15 15 15 15 15 14 14 14 14 15 15 15 15 14 14 15 15
20 20 21 20 14 14 15 17 17 17 17 18 18 17 16 14 14 14 14 14 14 15 16 15 15 15 16 16 16 16 16 16 16 16 16 15 14 14 14 14 14 14 15 15 14 14 14 14 14
20 21 20 12 11 15 16 18 17 17 17 18 17 16 16 15 15 15 15 15 15 16 16 16 16 17 16 17 16 17 16 16 16 17 16 15 15 14 14 14 14 14 14 14 14 14 13 14 14
21 21 19 14 16 17 17 18 17 17 18 18 17 15 16 15 16 16 15 16 16 16 16 16 16 17 17 18 18 18 18 18 17 17 16 16 15 14 14 14 15 15 14 13 13 13 13 13 13
21 20 13 14 17 18 17 17 18 16 17 17 17 15 15 16 16 16 16 16 17 17 17 17 17 18 18 18 18 17 17 17 16 16 16 16 15 15 15 15 14 14 14 13 13 13 13 13 12
20 18 13 14 17 18 19 18 18 17 17 17 16 16 16 16 17 16 16 16 16 17 17 17 17 17 17 16 16 16 16 15 15 15 14 14 14 14 15 15 15 14 14 13 13 13 13 14 13
16 12 14 16 17 18 19 19 19 18 18 17 18 14 16 15 16 16 16 16 16 17 17 17 17 16 16 16 15 15 15 15 14 14 14 14 14 14 14 14 14 14 13 13 13 13 13 13 12
20 12 15 16 16 18 18 20 20 20 18 18 18 14 15 16 16 16 16 16 16 16 16 16 16 16 17 16 16 15 14 14 14 14 14 14 14 14 14 14 14 14 14 13 13 13 13 12 12
19 12 13 17 17 19 18 19 19 19 19 19 18 19 19 18 16 16 15 16 16 16 16 16 16 16 17 17 16 15 14 14 13 13 14 14 14 14 14 14 14 14 14 13 13 13 13 13 12
15 12 17 16 17 18 18 19 19 19 18 19 19 19 19 17 16 16 15 16 16 16 16 16 16 16 16 16 15 15 14 14 14 13 13 13 13 13 13 14 14 14 14 13 13 13 12 13 12
17 16 17 19 19 19 18 19 19 18 17 19 20 19 18 17 16 16 16 16 17 17 16 16 16 16 16 15 15 14 14 14 14 13 13 13 13 13 13 14 13 13 13 13 13 13 12 11 11
18 18 18 19 19 19 18 19 19 19 20 21 21 20 19 18 17 16 16 17 17 17 16 16 16 16 16 15 15 15 14 13 13 12 12 13 13 13 13 13 13 13 13 13 13 12 12 12 11
19 19 19 20 20 19 19 19 19 19 20 20 20 19 19 18 18 17 17 17 17 17 16 16 16 16 16 15 15 14 14 13 13 12 12 12 12 12 12 12 12 12 12 12 12 11 11 11 11
19 19 19 19 19 20 19 19 19 21 21 20 20 19 19 18 18 18 18 18 17 17 16 16 16 16 16 15 14 14 14 13 13 12 12 11 11 11 11 11 11 11 11 11 11 10 10 10 11
19 18 16 17 18 19 19 17 17 20 20 20 19 19 19 19 18 18 18 18 18 18 16 16 16 15 15 15 14 14 13 13 13 12 12 11 11 11 11 11 11 10 10 10 10 10 10 10 10
15 14 15 17 17 18 18 15 17 19 19 19 19 19 19 18 18 18 18 18 18 18 17 16 16 15 15 15 14 14 14 13 13 12 12 12 11 11 11 11 10 10 10 10 10 9 9 9 9
12 15 16 15 15 15 17 15 17 18 18 19 18 18 18 18 17 18 18 18 17 17 16 16 16 15 15 15 14 14 14 13 13 13 12 12 12 11 11 11 10 10 10 10 9 9 9 9 9
15 15 15 15 15 14 14 13 13 15 16 16 16 17 17 17 17 18 18 18 17 16 16 16 15 15 15 14 14 14 13 13 13 12 12 12 12 11 11 11 11 10 10 10 9 9 9 9 8
16 15 15 14 15 14 14 12 12 13 14 15 14 15 16 17 18 18 18 18 17 16 16 15 15 15 15 14 14 13 13 13 12 12 12 12 12 11 11 11 11 10 10 10 9 9 9 8 8
16 15 14 13 14 14 13 13 13 13 13 13 14 15 17 17 17 17 17 17 16 16 16 16 15 15 14 14 13 13 12 12 12 12 12 11 11 11 10 10 11 11 10 10 9 9 9 8 8
14 15 15 14 12 14 12 14 13 15 15 15 15 15 16 17 17 17 16 17 16 16 15 15 15 14 14 13 13 12 12 12 12 11 11 11 11 10 10 10 10 10 10 10 9 9 9 8 8
14 15 14 13 13 13 12 13 13 12 15 13 14 16 16 16 16 16 16 16 16 15 15 14 14 14 13 12 12 11 11 11 11 10 10 10 10 10 10 10 10 9 9 9 9 8 8 7 7
14 13 13 13 12 12 12 11 13 12 15 14 14 16 16 16 16 16 16 15 15 15 14 13 13 12 12 12 11 11 11 10 10 10 9 9 9 9 9 9 9 9 9 8 8 7 7 6 5
13 12 11 10 10 10 12 12 12 12 13 13 14 14 15 15 15 15 14 14 14 13 12 12 12 12 11 11 11 10 9 9 9 9 9 9 9 8 8 8 8 8 7 6 5 6 5 4 4
11 9 8 9 8 9 12 11 11 13 13 14 14 15 15 14 13 13 13 12 12 12 11 11 11 10 10 10 10 10 9 9 8 8 8 8 7 7 6 6 6 6 4 3 4 3 3 2 1
13 10 7 10 7 8 10 12 13 14 13 14 14 13 13 13 13 13 12 11 11 11 10 10 9 9 9 9 8 8 7 7 6 6 6 6 5 5 5 5 4 3 2 1 1 -0 -1 -1 -1
13 10 11 7 1 5 8 11 12 11 11 13 12 11 11 12 12 12 12 11 11 11 10 10 9 9 8 7 7 6 6 6 6 6 5 5 5 5 4 3 2 1 0 0 -0 -1 -1 -1 -1
12 11 9 6 6 8 9 9 10 10 10 8 9 10 11 11 11 11 11 10 10 9 8 8 7 7 6 6 6 6 5 4 4 4 4 4 4 3 1 1 1 1 1 1 0 -1 -1 -1 -2
10 9 9 9 7 6 6 8 10 10 10 8 9 9 10 10 10 10 10 9 9 8 8 7 7 6 6 5 5 4 3 3 4 4 3 2 1 0 0 0 -0 -1 -1 -1 -1 -2 -2 -2 -2
11 10 8 5 8 5 4 6 11 10 9 10 9 9 9 9 9 9 9 8 8 7 7 6 6 6 5 4 4 3 3 3 2 2 1 -0 -0 -0 -1 -1 -3 -2 -2 -2 -2 -2 -2 -3 -3

GFSSGP_850_temp_009.txt.gz
Temp
20 20 20 20 21 20 19 20 19 20 19 17 17 18 17 15 17 18 15 15 16 16 16 16 16 16 16 15 15 16 16 16 16 15 16 15 15 14 14 14 14 14 14 14 15 14 15 14 14
20 20 20 20 20 21 20 19 19 18 17 16 16 16 16 16 14 14 14 15 16 16 17 17 17 17 17 17 17 16 16 16 16 16 15 15 15 15 14 14 14 14 15 15 14 15 14 14 13
20 21 20 18 17 20 20 19 18 17 16 17 17 16 15 15 15 15 15 16 16 17 17 17 17 17 17 18 17 17 16 16 16 16 15 15 15 14 14 13 14 14 14 14 14 14 14 13 13
21 21 19 20 18 18 19 19 18 17 17 17 16 17 15 15 16 16 16 16 16 17 17 17 17 17 17 16 16 17 16 16 15 14 15 15 14 14 13 14 14 14 14 14 14 13 13 13 13
21 20 19 18 18 19 18 17 17 18 17 17 17 16 15 15 16 16 16 16 17 17 17 17 17 17 17 17 17 16 16 16 16 16 15 15 15 14 14 14 14 13 13 13 13 13 13 13 13
20 18 19 19 19 19 19 17 18 17 16 16 16 16 15 16 16 16 16 16 16 17 17 17 17 17 17 17 16 16 15 15 15 15 15 15 14 14 14 14 14 14 14 14 13 13 13 13 13
18 17 17 17 18 19 19 19 19 18 17 17 17 17 15 16 16 16 16 16 16 16 16 16 17 17 17 16 15 15 14 14 14 14 14 14 14 14 14 14 14 14 14 13 13 13 13 13 12
19 18 17 17 18 19 18 19 19 19 18 17 18 18 16 16 16 15 15 15 15 16 16 16 16 16 16 16 15 15 15 14 14 14 14 14 14 14 14 14 14 14 14 14 14 13 13 13 12
19 18 18 18 19 19 18 19 19 19 18 18 18 19 19 17 16 15 15 15 15 16 16 16 16 16 16 16 15 15 15 14 14 14 14 14 14 14 14 14 14 14 14 14 13 13 13 13 12
18 18 18 17 18 19 17 19 19 19 18 17 18 19 18 17 16 16 15 16 16 16 16 16 16 16 16 16 15 15 15 14 14 14 13 13 13 13 13 13 13 13 13 13 13 13 13 12 12
17 19 17 17 18 19 18 18 19 18 19 19 20 19 18 17 16 16 16 17 17 16 16 16 16 16 16 15 15 15 15 14 14 14 13 13 13 13 13 13 13 13 12 12 12 12 12 12 11
19 17 18 18 19 19 19 19 18 18 20 21 20 20 19 17 17 16 16 17 17 17 16 16 16 16 16 15 15 14 14 14 13 13 13 12 12 12 12 12 12 12 12 12 12 12 11 11 11
19 18 18 19 19 19 19 19 19 19 20 20 20 19 19 18 18 17 17 17 17 17 16 16 15 16 15 15 15 14 14 13 13 13 12 12 12 12 12 12 12 12 12 11 11 11 11 11 11
18 18 17 18 18 18 18 18 18 19 20 19 20 19 19 19 18 17 17 17 17 17 16 16 16 16 15 15 15 14 14 13 13 13 13 12 12 12 11 11 11 11 11 11 11 10 10 10 10
18 18 17 16 16 18 17 19 19 19 19 19 19 19 18 18 18 18 17 17 17 17 16 16 16 15 15 15 14 14 14 13 13 13 13 12 12 12 11 11 11 11 10 10 10 10 10 10 10
17 17 19 18 17 17 19 19 20 18 18 19 18 18 18 18 18 18 17 17 17 18 17 16 16 15 15 15 14 14 14 14 13 13 13 12 12 12 12 11 11 11 10 10 10 10 10 9 9
16 18 17 18 15 16 18 19 19 16 16 16 17 18 17 18 17 17 17 17 18 18 17 16 16 15 15 14 14 14 14 13 13 12 12 12 12 12 11 11 11 11 11 10 10 10 10 10 9
17 17 16 16 17 16 16 17 16 13 13 14 15 16 17 17 17 17 18 18 18 17 16 15 15 15 15 15 14 14 13 13 12 12 12 12 11 11 11 11 11 10 10 11 11 10 10 9 9
16 16 16 16 15 16 15 15 16 14 13 13 14 15 16 16 17 18 18 18 17 17 16 16 15 15 14 14 13 13 13 13 12 12 12 11 11 11 11 11 10 10 9 9 10 9 9 9 9
16 16 16 15 14 15 15 17 15 14 12 12 13 14 16 17 17 17 17 17 17 16 15 15 14 14 13 13 13 12 12 12 12 12 12 11 11 11 11 10 10 10 10 10 9 9 9 9 9
15 16 15 15 14 14 15 17 16 15 14 14 14 15 16 17 17 16 16 16 15 15 15 14 13 13 13 12 12 11 11 11 11 11 11 11 10 10 9 9 9 9 9 10 10 9 8 8 8
15 14 14 14 14 16 13 17 16 14 15 14 14 15 16 15 16 15 15 15 15 14 14 13 13 12 11 11 11 11 11 10 10 9 9 9 9 9 9 9 9 8 8 8 9 9 8 7 7
15 13 13 13 14 14 15 16 17 15 15 15 14 14 15 15 14 14 14 14 13 12 12 12 11 11 11 11 11 10 10 9 9 9 9 9 9 9 9 8 8 7 7 7 7 8 7 5 5
13 13 13 12 13 15 13 14 15 15 14 14 14 14 13 14 13 13 12 12 11 11 11 11 11 11 11 11 10 9 9 8 8 8 8 8 8 8 8 7 6 6 6 6 5 5 3 1 2
14 13 14 15 14 15 12 13 15 14 13 13 13 12 12 12 13 12 11 11 11 11 11 11 11 11 10 10 9 8 8 7 7 7 6 6 7 6 6 5 5 5 5 4 2 1 0 -0 -1
13 13 12 13 13 13 11 14 14 12 12 12 11 10 11 11 11 11 11 11 11 11 10 10 10 10 9 9 8 7 6 6 6 5 5 6 6 5 4 4 3 2 1 0 -0 -1 -1 -1 -1
13 12 11 9 4 10 12 13 13 13 13 11 10 10 10 10 10 10 10 10 10 10 10 9 8 8 7 7 6 6 5 4 4 4 4 5 5 3 2 1 0 0 0 -1 -1 -1 -1 -1 -2
13 12 13 11 11 11 13 12 14 12 12 10 10 9 10 10 10 10 10 10 9 8 7 7 7 6 6 5 5 4 3 3 3 4 3 3 3 1 -0 -0 -0 -1 -2 -2 -3 -4 -2 -2 -2
13 12 10 11 10 11 9 13 12 12 12 11 10 9 10 10 10 9 9 8 8 7 7 7 6 6 5 5 4 3 3 3 2 2 1 1 -0 -1 -1 -1 -2 -2 -2 -3 -3 -3 -2 -2 -2
11 11 10 11 10 9 8 10 11 11 11 10 10 9 9 9 8 8 8 7 7 7 7 6 6 5 5 4 3 3 2 1 1 0 -0 -1 -1 -2 -2 -2 -2 -2 -3 -3 -3 -3 -3 -3 -3

GFSSGP_850_temp_012.txt.gz
Temp
20 20 21 21 25 27 24 24 25 23 24 21 21 23 23 20 22 22 16 15 15 15 15 16 17 16 16 16 16 16 16 15 15 15 15 15 15 14 14 14 14 14 14 14 15 15 15 15 14
20 20 21 23 26 25 24 24 24 24 21 21 21 21 22 21 18 17 16 16 15 16 16 16 16 16 16 16 15 15 15 15 14 14 14 14 14 14 13 13 14 14 14 14 14 14 14 14 14
20 21 24 26 26 25 24 25 23 22 20 21 22 20 20 20 18 17 16 16 17 17 16 16 17 17 17 16 16 16 16 15 15 15 15 14 14 14 14 14 14 14 14 14 14 14 14 13 13
20 21 23 26 24 23 24 24 23 22 21 21 22 22 18 17 17 17 15 16 15 15 16 17 17 17 17 17 17 17 16 16 15 15 15 14 14 14 14 14 14 14 14 14 14 14 13 13 13
20 23 25 25 24 23 24 23 23 24 23 22 21 21 19 16 15 15 15 15 15 15 17 17 17 17 17 17 17 16 16 15 15 15 15 15 15 14 14 14 14 14 14 14 13 13 13 13 13
23 24 25 24 22 23 23 22 22 23 22 21 21 21 19 15 15 15 15 15 15 16 17 17 17 17 17 16 16 16 15 15 15 15 15 15 15 14 14 14 14 14 14 14 13 13 12 12 13
25 26 25 24 22 23 23 22 23 23 22 22 20 22 17 16 16 15 15 15 17 16 16 16 16 17 16 16 15 15 14 14 14 14 14 14 14 14 14 14 13 13 13 13 13 13 13 13 13
22 25 23 24 23 23 22 22 22 22 22 19 20 22 19 17 15 15 15 15 15 15 15 16 16 16 16 15 15 15 15 14 14 14 14 14 14 14 14 13 14 13 14 13 13 13 13 12 12
21 24 24 23 23 23 22 23 21 20 21 20 20 21 20 17 15 15 15 15 15 15 16 16 15 16 16 16 15 15 15 14 14 14 14 14 12 13 13 13 13 13 13 13 13 13 13 12 13
24 25 23 23 23 24 22 23 22 22 21 21 20 18 18 16 15 16 16 16 15 15 15 16 16 16 16 16 15 14 14 13 13 13 14 13 13 13 13 13 13 13 13 13 13 13 13 12 10
23 24 23 22 22 23 23 22 22 23 23 22 22 20 18 17 16 17 17 17 17 16 16 15 16 16 16 14 14 13 13 13 13 14 14 13 13 12 11 11 10 11 11 11 11 11 10 11 11
22 22 22 22 21 22 23 22 22 22 23 21 21 20 19 18 18 18 18 18 18 17 16 15 15 16 16 14 14 13 13 13 12 12 13 12 11 11 11 11 10 10 10 10 10 10 11 11 11
23 22 22 21 20 21 21 22 22 22 22 20 20 20 19 19 19 18 18 18 18 17 16 15 14 15 15 15 14 14 14 12 12 12 12 13 11 11 11 11 10 10 10 10 9 9 9 9 10
21 22 21 21 21 20 21 22 21 22 21 20 20 20 20 19 19 19 18 18 17 17 16 15 15 16 16 15 15 15 14 13 13 12 12 13 12 11 11 10 10 10 10 10 9 9 9 9 9
21 22 23 21 21 21 20 23 23 21 20 21 20 21 20 20 19 19 18 17 17 17 16 15 16 15 15 15 15 15 14 14 12 12 13 12 12 11 12 10 10 10 10 10 9 9 9 9 9
23 23 23 21 22 21 22 23 23 20 20 22 20 20 20 20 19 18 17 16 17 16 16 15 16 15 15 15 14 14 13 13 13 13 12 12 12 12 12 10 10 10 10 9 9 9 9 9 9
23 23 22 21 20 22 22 23 23 20 19 21 21 20 20 20 18 17 16 17 17 17 17 15 15 15 15 15 14 14 14 13 12 13 12 12 12 11 11 11 11 10 10 10 9 9 9 9 9
22 22 22 21 21 22 22 22 22 19 18 20 20 20 19 19 18 17 17 18 17 17 16 14 14 14 15 14 14 13 13 13 13 12 12 12 12 11 11 11 11 10 9 9 9 9 9 9 9
21 21 21 21 20 20 20 21 21 19 20 19 20 19 18 18 17 17 17 17 16 16 15 13 13 15 14 13 12 12 12 12 11 11 11 11 11 11 11 10 9 9 8 8 9 8 8 8 8
20 20 20 20 19 19 21 21 20 19 18 18 19 19 18 18 17 15 15 16 15 15 15 14 14 14 13 13 13 12 12 11 11 10 11 11 11 11 10 9 9 8 8 7 7 7 7 8 8
19 20 19 18 19 19 20 21 20 19 18 18 18 18 18 18 16 15 14 14 15 15 14 14 13 13 12 12 10 10 10 10 10 10 9 10 10 10 9 8 8 8 7 7 7 7 7 8 8
19 18 17 18 19 21 20 22 20 20 19 19 18 17 17 16 15 14 13 13 14 14 13 12 12 11 11 11 10 11 9 9 8 8 7 8 8 8 8 8 9 8 7 6 6 6 6 6 7
18 16 17 17 19 19 20 21 19 20 19 19 18 17 16 14 13 12 12 11 10 11 11 10 10 10 11 10 10 8 7 7 7 6 6 6 6 6 6 6 8 7 6 6 6 5 4 4 5
17 17 17 18 19 18 18 19 20 19 17 18 17 15 14 14 13 12 11 11 10 10 11 11 10 9 10 10 9 9 7 6 6 6 5 6 5 5 5 5 6 5 4 3 3 2 2 1 2
19 19 19 17 18 18 17 18 17 17 17 17 16 15 13 13 12 12 12 12 11 10 10 11 10 8 8 7 7 7 6 5 5 5 4 4 4 4 3 4 2 2 1 1 0 1 1 -0 -0
17 17 16 16 16 17 17 18 18 16 16 15 14 13 13 12 12 12 11 11 10 9 9 8 8 8 8 7 6 7 6 5 4 4 3 3 3 2 2 1 1 0 0 0 -0 0 -1 -1 -1
17 16 15 14 9 14 17 17 17 16 16 15 14 14 13 13 12 11 11 10 10 9 8 7 7 8 7 6 6 6 5 4 4 4 4 2 3 2 0 0 0 -0 -1 -1 -2 -2 -2 -3 -4
17 16 16 16 14 14 18 18 19 16 16 15 15 14 13 12 12 11 11 10 9 8 7 7 7 6 5 4 4 4 3 3 2 1 0 -0 -0 -0 0 -0 -1 -1 -2 -2 -2 -3 -3 -3 -3
16 16 15 16 14 14 14 17 17 16 16 15 14 13 12 12 11 10 10 9 8 7 7 6 6 5 4 3 3 2 1 1 -0 -0 -1 -1 -1 -1 -1 -1 -2 -2 -3 -2 -3 -3 -3 -3 -3
15 15 15 14 13 13 12 14 16 16 15 13 13 12 11 11 11 10 9 8 8 7 6 6 4 4 3 2 2 1 0 -0 -1 -1 -2 -2 -2 -2 -2 -2 -3 -3 -3 -3 -4 -4 -4 -4 -4

GFSSGP_850_temp_015.txt.gz
Temp
20 21 20 22 26 28 27 27 28 26 26 25 25 26 26 24 24 22 20 18 18 17 16 17 17 16 16 16 15 15 15 15 15 15 15 15 15 15 15 14 15 14 14 14 14 15 15 15 15
19 20 21 25 27 28 27 27 27 27 25 25 25 25 26 24 21 20 19 18 18 17 17 16 17 16 16 16 16 16 15 15 15 15 15 15 14 14 14 14 14 14 14 14 14 14 14 14 14
20 20 23 27 28 28 26 27 27 25 25 25 25 24 24 22 21 21 18 17 17 17 16 17 17 17 17 17 16 16 16 15 15 15 15 15 14 15 14 14 14 14 14 14 14 14 14 14 13
21 22 24 27 27 27 27 27 26 25 24 25 25 24 21 21 21 19 18 18 18 17 16 17 17 17 17 17 16 16 16 15 15 15 15 15 15 14 14 14 14 14 14 14 14 13 13 13 13
21 25 27 27 26 27 27 26 26 26 25 25 25 24 21 19 19 18 18 18 18 17 16 17 17 17 17 17 16 16 16 15 15 15 14 14 14 14 14 14 14 14 14 14 13 13 13 13 13
25 27 27 26 25 26 26 25 26 26 25 24 25 24 21 19 19 18 18 18 18 17 16 17 17 17 17 16 16 15 15 15 14 14 14 14 14 14 14 14 14 14 14 14 14 14 13 13 13
25 28 27 26 25 25 25 25 26 26 25 24 24 24 21 19 18 18 18 18 18 17 17 16 16 17 16 16 16 15 15 15 14 14 14 14 14 14 14 14 14 14 14 14 14 13 13 13 13
26 28 26 26 25 24 25 25 24 25 24 23 23 24 21 20 18 18 18 18 17 17 17 16 16 16 15 15 15 15 15 15 14 14 14 14 14 13 13 13 13 13 13 13 13 13 13 13 13
25 26 25 25 26 25 24 25 24 23 23 23 22 23 21 19 18 18 18 18 18 17 17 17 16 15 15 15 15 15 15 15 14 14 14 13 13 12 12 12 13 13 13 13 13 12 12 12 12
26 27 26 26 26 26 25 25 24 24 23 23 22 21 20 19 18 18 18 18 18 17 17 17 16 15 15 15 14 14 14 14 13 13 13 13 12 12 12 12 12 12 12 12 11 11 12 12 12
26 26 25 25 25 25 25 25 24 25 24 24 23 22 20 19 19 19 19 19 19 18 18 17 15 15 15 15 15 16 15 14 14 13 12 12 12 12 12 12 12 12 11 11 11 11 11 10 10
25 25 25 25 24 24 25 24 24 25 25 24 23 22 21 20 19 19 20 20 19 19 18 17 16 15 16 16 16 15 15 15 14 14 12 12 13 12 12 12 12 12 12 11 11 11 11 10 10
25 25 24 24 23 24 23 24 24 24 23 23 23 22 21 21 20 20 20 20 20 19 19 18 16 15 15 15 15 14 14 14 14 13 13 12 12 12 12 12 12 12 12 12 11 11 11 11 10
25 24 24 24 23 23 24 24 23 24 23 23 22 22 22 22 21 21 20 20 20 19 19 18 17 15 15 15 14 14 14 14 13 13 13 13 12 11 11 11 12 12 12 12 11 11 10 10 10
24 24 25 24 24 24 23 24 24 24 23 23 23 23 23 22 22 21 20 20 19 19 19 18 17 16 14 14 14 14 14 13 14 13 12 12 12 11 11 11 11 11 11 11 11 11 11 10 10
25 25 25 25 24 24 24 25 25 24 24 24 24 23 23 22 22 21 20 20 20 19 19 18 17 15 14 15 14 14 14 13 13 13 13 12 11 11 12 11 11 11 11 11 11 11 11 11 11
25 25 25 24 24 25 25 26 25 24 23 24 24 23 23 23 22 21 20 19 19 19 18 18 16 15 15 14 14 13 13 13 14 13 13 12 11 11 11 12 11 10 10 10 10 10 10 10 11
25 25 25 25 24 24 25 25 25 23 23 23 24 24 23 23 22 20 19 18 18 17 16 17 15 15 14 14 13 13 13 13 13 13 13 11 11 10 10 10 10 10 9 10 10 10 9 10 10
24 24 24 25 23 22 24 24 24 23 23 23 23 23 23 22 20 18 16 16 16 15 16 16 14 13 14 14 13 14 13 13 13 12 11 10 10 10 9 9 9 9 9 9 9 9 9 9 9
23 23 24 23 22 22 24 24 23 22 22 23 22 22 21 20 18 17 16 15 14 14 14 14 13 12 13 13 12 12 12 12 11 11 11 10 9 9 9 8 8 8 8 8 8 8 8 8 8
23 22 21 21 23 23 23 24 22 22 21 21 21 21 20 19 18 17 16 14 14 13 13 13 12 11 11 12 12 12 12 12 12 11 10 9 8 8 7 7 7 7 6 7 7 7 7 7 8
22 21 20 21 21 23 24 23 23 22 22 21 20 20 19 18 17 16 15 14 13 12 12 12 11 11 10 11 10 11 10 10 10 9 9 8 7 7 7 7 6 6 5 5 5 6 6 6 6
21 20 20 21 21 23 23 23 22 23 22 21 20 19 18 17 16 15 14 13 13 12 11 11 11 11 10 9 10 9 9 8 8 8 8 7 7 6 6 6 5 5 4 4 4 4 4 4 4
20 20 21 21 22 20 22 22 22 22 21 21 19 18 17 17 15 15 14 13 13 12 11 11 11 11 10 9 8 8 7 7 7 7 6 6 5 5 5 4 4 3 3 3 3 2 2 1 2
22 21 20 19 20 20 21 21 20 20 20 20 19 18 16 16 15 15 15 14 13 12 11 11 11 11 10 9 8 8 7 6 6 6 5 4 4 4 4 3 3 3 2 2 1 1 0 -0 0
20 20 18 17 18 20 21 20 21 20 18 18 17 16 16 15 14 14 14 13 12 12 11 10 10 10 10 9 8 7 6 5 5 4 3 2 2 2 2 2 2 1 1 0 -0 -0 -0 -1 -1
20 19 19 17 14 16 21 21 20 19 19 18 17 17 16 15 15 14 13 13 12 11 11 9 9 9 9 8 7 6 5 4 3 2 2 2 1 2 2 1 1 -0 -1 -0 -1 -1 -2 -2 -2
19 19 18 18 15 16 20 20 20 18 19 18 18 17 16 15 15 14 13 12 11 10 10 9 8 8 7 6 6 5 4 3 2 1 1 1 1 1 0 -0 -1 -1 -1 -1 -2 -2 -2 -2 -2
19 19 18 18 17 16 16 18 20 19 19 18 17 16 15 15 14 13 12 11 11 10 9 9 8 7 6 6 5 4 3 2 2 1 1 -0 -1 -1 -1 -1 -2 -2 -2 -2 -2 -3 -3 -3 -3
18 18 18 15 16 16 14 15 19 18 18 17 16 16 14 13 13 12 11 10 10 9 8 8 7 6 5 4 4 3 3 2 2 0 -1 -1 -2 -1 -2 -2 -2 -3 -3 -3 -3 -4 -4 -4 -4

GFSSGP_850_temp_018.txt.gz
Temp
21 21 22 22 23 25 26 28 29 27 26 26 26 26 24 23 23 20 19 18 18 18 17 17 17 17 16 16 16 16 16 15 15 15 15 15 15 14 14 14 14 14 14 14 14 14 15 15 15
21 21 21 23 23 25 27 28 27 27 26 26 26 26 24 22 21 20 19 19 18 16 16 17 17 17 16 16 16 16 15 15 15 15 15 15 15 15 14 14 14 14 14 14 14 15 15 15 14
21 20 22 24 25 25 26 27 26 26 26 26 25 24 24 23 21 20 19 18 18 17 17 17 17 17 17 17 17 16 16 15 15 15 15 15 15 14 14 14 14 14 14 14 14 14 14 14 14
21 21 22 23 25 27 27 27 26 26 26 26 25 23 22 22 20 19 19 18 18 17 18 18 18 18 17 17 16 16 16 15 15 15 15 15 14 14 14 14 14 14 14 14 14 14 14 14 13
20 22 23 25 26 27 27 27 26 26 26 26 25 22 21 20 19 19 19 18 18 18 18 18 18 17 17 17 17 16 16 15 15 15 15 14 14 14 14 14 14 14 14 14 14 14 14 14 14
21 24 23 25 25 26 26 26 27 25 26 25 25 22 21 20 19 19 19 18 17 17 18 18 17 17 17 16 16 15 15 15 15 14 14 14 14 14 14 14 14 14 14 14 14 14 14 14 14
21 22 23 26 25 25 26 26 26 26 26 25 24 23 21 20 19 19 19 18 17 17 17 17 17 16 16 16 16 15 15 15 15 14 14 14 14 13 14 14 13 13 14 14 13 13 13 14 14
23 24 24 26 25 24 25 26 26 26 24 24 24 23 21 19 19 19 18 18 18 17 17 16 16 15 15 15 15 15 15 15 15 14 14 13 13 12 12 13 13 13 13 13 13 13 13 13 13
25 25 26 26 26 25 25 25 25 24 24 24 23 23 21 19 18 18 18 18 18 18 17 17 16 16 15 15 15 15 15 14 14 13 13 13 13 13 12 12 12 12 12 12 12 12 12 12 12
26 26 26 27 26 26 25 26 24 24 24 23 22 21 20 19 19 19 19 19 18 18 17 17 16 16 16 16 15 15 15 14 14 13 13 13 13 12 12 12 12 12 12 12 11 11 11 11 11
26 25 26 25 25 26 25 25 24 25 24 23 22 21 20 19 19 19 19 19 19 18 18 17 16 15 15 16 16 16 15 15 14 13 13 13 13 13 12 12 12 12 12 12 11 11 11 11 11
26 26 26 25 25 26 25 25 25 25 25 24 23 22 20 20 20 20 20 20 19 19 18 17 16 16 16 16 15 15 15 15 14 14 13 14 13 13 13 12 12 12 12 12 12 11 11 11 11
25 25 25 24 24 25 24 25 25 25 24 24 23 22 21 20 20 20 20 21 20 19 19 18 17 16 15 16 15 15 15 14 14 13 13 14 14 14 13 12 12 12 12 12 12 11 11 11 11
25 25 25 24 24 24 24 25 24 25 24 23 23 22 22 21 21 21 21 21 20 20 19 18 17 16 16 15 15 15 14 14 14 14 13 14 13 13 13 13 13 12 12 11 12 11 11 11 11
25 25 25 25 24 24 24 24 24 24 24 24 23 23 23 22 22 21 21 21 21 20 20 19 17 16 16 15 15 14 14 14 14 14 13 13 13 13 13 13 12 12 12 12 11 11 11 11 11
25 25 24 25 25 25 24 24 26 24 24 24 24 23 23 23 22 22 21 20 20 20 19 19 18 16 16 15 15 15 14 14 14 13 13 13 12 12 12 12 12 11 11 11 11 11 11 10 10
24 24 25 24 26 26 25 24 26 25 24 24 25 24 24 23 23 22 21 20 20 20 19 19 17 16 15 15 14 14 14 14 13 14 13 13 12 11 11 11 12 11 11 11 11 10 10 10 10
23 25 25 25 25 25 25 25 26 25 24 24 24 25 24 23 23 21 20 19 19 18 18 18 16 16 15 14 14 14 14 14 13 13 13 13 12 11 10 10 10 9 9 9 9 9 9 10 9
25 25 25 25 24 23 24 25 26 24 24 24 24 24 24 20 19 18 17 17 17 16 17 16 16 14 14 14 14 14 14 13 13 13 12 11 10 10 10 9 9 9 9 8 8 8 8 8 8
24 24 24 24 24 22 24 24 24 23 23 24 23 23 21 19 17 16 15 15 15 15 15 14 14 13 13 13 12 12 12 12 12 12 11 11 10 10 9 8 7 7 7 7 7 7 7 7 7
24 23 22 22 23 24 23 23 23 23 23 23 22 21 20 19 17 16 15 14 14 13 13 13 12 12 12 13 12 12 12 12 12 11 11 10 9 8 7 7 7 6 6 6 6 6 6 6 6
22 22 21 21 22 22 24 22 22 22 22 21 21 20 19 19 18 16 15 13 13 12 12 12 12 12 11 11 11 10 10 10 9 9 9 8 8 7 7 7 6 6 5 5 5 4 4 5 4
21 21 21 21 21 22 23 22 22 22 21 21 20 19 18 17 17 16 14 13 12 12 11 11 12 12 11 10 9 9 8 8 8 7 7 7 6 6 6 5 5 4 4 3 3 3 3 3 3
21 21 22 22 21 19 22 22 20 21 21 21 20 18 18 17 16 15 14 14 13 12 11 11 11 11 11 10 10 9 8 7 7 6 6 5 5 4 4 3 3 3 2 3 3 3 2 2 1
22 21 19 17 19 18 21 21 20 21 21 21 19 18 17 16 16 16 15 14 13 12 12 11 11 10 10 10 9 8 7 6 6 5 4 4 3 2 2 2 2 2 2 2 2 2 1 1 -0
21 20 17 16 16 18 22 21 19 20 19 19 18 17 16 16 15 15 14 14 13 12 12 11 10 10 9 9 8 7 6 5 4 4 3 2 1 1 1 1 1 0 0 0 0 -0 -1 -2 -2
20 19 20 18 15 15 20 20 20 20 19 19 18 18 17 16 16 15 14 14 13 12 11 10 9 9 9 8 7 6 5 5 4 3 2 1 1 1 0 0 -0 -0 -1 -0 -1 -2 -2 -1 -2
20 20 18 17 15 16 19 20 18 18 18 18 18 18 17 16 15 15 14 13 12 11 10 10 9 8 8 7 6 5 4 4 3 2 2 1 1 0 -0 -1 -1 -1 -1 -2 -2 -3 -2 -3 -2
20 19 19 19 17 15 15 17 19 19 19 18 17 17 16 15 14 14 12 11 10 10 9 9 8 8 7 6 5 4 4 3 3 2 1 1 1 -1 -1 -1 -1 -1 -2 -2 -3 -3 -3 -3 -3
19 19 18 15 15 15 14 15 19 19 18 17 16 16 15 14 12 11 11 10 9 9 8 8 8 7 6 5 4 4 3 3 3 1 1 -0 -1 -1 -1 -2 -2 -2 -2 -3 -3 -3 -3 -3 -4

GFSSGP_850_temp_021.txt.gz
Temp
20 21 21 21 19 18 20 23 24 23 23 23 22 21 19 20 19 16 17 18 18 17 17 17 17 16 16 16 16 16 16 15 15 15 15 15 15 15 15 15 14 15 15 15 15 15 15 15 15
21 21 21 21 19 19 21 24 22 23 24 23 22 21 19 18 19 18 17 17 18 17 17 17 17 16 16 17 16 16 16 15 15 15 16 15 15 15 15 15 15 15 15 15 15 15 15 15 15
21 20 21 18 18 19 21 23 23 25 25 24 22 22 20 19 19 18 17 17 17 17 17 17 17 17 17 17 17 17 16 16 16 15 15 15 15 15 15 15 14 14 15 15 15 15 15 14 14
20 21 21 19 20 22 22 23 24 25 24 23 22 19 20 19 18 18 17 17 17 17 18 18 18 17 17 17 17 16 16 15 15 15 15 15 15 14 14 14 14 14 14 14 14 14 14 14 14
20 20 18 19 21 23 23 25 25 22 23 21 21 18 18 19 18 18 18 18 18 18 18 18 17 17 17 17 17 16 16 15 15 15 15 15 14 14 14 14 14 14 14 14 14 14 14 14 14
20 21 18 19 22 24 23 25 24 23 24 21 20 19 19 19 19 18 18 18 18 18 18 17 17 17 17 17 16 16 15 15 15 15 15 14 14 14 13 13 13 13 13 13 13 14 14 14 14
19 18 18 19 21 23 24 26 24 23 23 21 20 18 19 19 19 18 18 18 18 17 17 17 17 16 16 16 16 16 15 15 15 15 14 13 13 13 13 13 13 13 13 13 13 13 13 13 13
21 19 20 21 22 21 24 24 24 23 22 22 21 18 17 19 19 18 18 17 17 17 16 16 16 15 15 15 16 16 15 15 14 14 13 13 13 13 13 12 12 12 12 12 12 12 12 12 12
22 19 19 21 21 21 24 23 24 24 23 22 22 20 19 19 18 18 18 17 17 17 16 16 16 15 15 15 15 15 15 14 14 14 13 13 13 13 12 12 12 12 12 12 12 12 11 11 11
22 18 21 22 21 21 23 23 24 23 22 20 19 19 19 18 18 18 18 18 17 17 16 16 16 16 15 15 15 15 14 14 14 14 14 13 13 12 12 12 12 12 12 12 12 12 11 11 11
24 20 22 22 24 24 23 23 24 22 19 21 19 19 19 18 18 18 18 18 18 18 17 17 17 16 15 16 15 15 14 14 14 13 13 13 13 13 13 13 13 12 12 12 12 11 11 11 11
22 23 24 24 24 25 22 24 24 23 23 22 20 19 19 18 19 19 19 19 18 18 17 17 17 17 16 15 15 15 14 14 14 14 14 14 14 13 14 13 13 13 12 12 12 12 12 11 11
22 22 24 24 24 24 24 24 23 23 23 22 21 20 19 19 19 19 19 19 19 18 18 18 17 18 17 16 15 15 15 14 14 14 14 14 14 14 14 14 13 13 12 12 12 12 11 11 11
24 24 23 24 24 24 23 23 24 23 23 22 21 20 20 20 20 20 20 20 19 19 18 18 16 15 16 16 16 16 15 14 14 14 14 14 14 14 13 13 13 12 12 11 11 11 11 11 11
25 22 21 22 23 22 23 22 21 23 23 23 22 21 21 21 20 20 21 21 20 19 18 16 17 14 16 14 16 15 14 14 14 14 14 13 13 13 12 12 12 12 12 12 12 12 11 11 11
23 21 19 21 22 23 22 18 21 24 23 23 23 23 22 21 21 21 21 20 20 19 18 17 16 16 15 14 14 14 14 14 14 13 13 13 12 12 11 12 12 11 11 11 11 10 10 9 9
21 18 20 21 22 21 21 19 21 24 24 23 23 23 23 22 22 21 21 20 20 19 18 17 16 15 13 14 14 14 14 14 14 13 13 13 12 12 12 12 11 11 10 10 9 9 9 9 9
20 20 20 19 22 23 22 21 21 23 23 24 24 23 21 19 18 18 19 19 19 18 18 17 16 14 14 14 14 14 13 13 13 13 12 12 12 12 11 11 10 10 9 9 9 8 8 8 8
22 21 19 20 21 22 21 20 20 22 23 23 20 18 16 16 16 17 17 17 17 17 17 17 16 16 14 14 14 13 13 13 13 12 11 11 11 11 11 9 8 8 8 7 7 7 7 7 7
22 21 19 20 21 21 20 20 19 21 21 20 17 17 16 16 16 16 15 16 16 15 16 16 15 14 13 13 13 13 13 12 11 11 10 9 9 9 8 8 8 8 7 7 6 6 6 6 5
19 18 18 19 19 20 20 19 18 20 20 19 18 17 17 16 15 15 15 14 14 14 14 14 13 13 13 13 12 12 12 11 11 11 10 10 9 8 8 8 7 6 6 5 5 5 4 4 4
19 19 19 19 18 17 19 16 17 18 17 18 17 17 17 16 15 14 14 13 13 12 12 12 12 12 12 11 11 11 10 9 9 8 8 8 8 7 7 6 6 6 4 4 4 3 3 3 3
19 20 19 19 17 17 18 16 17 17 17 16 16 17 16 16 15 14 14 13 12 12 12 12 11 11 11 10 10 9 9 8 7 7 7 6 6 5 5 4 3 3 2 2 2 2 3 2 2
20 19 18 18 17 13 16 17 17 17 17 16 17 17 16 16 15 15 14 13 13 12 12 11 11 11 10 9 9 9 8 7 7 7 6 6 5 4 3 2 1 1 1 1 1 1 1 1 0
19 16 12 12 10 12 17 17 15 16 17 17 15 16 15 15 15 14 13 13 12 12 12 11 11 10 10 9 9 8 7 7 6 6 5 4 3 2 2 1 1 0 0 0 -0 -0 -0 -1 -1
18 17 10 14 11 12 17 16 15 16 17 16 16 16 16 16 15 15 14 14 13 12 12 11 11 10 9 9 8 7 7 5 5 4 4 3 2 1 1 1 -0 -1 -1 -1 -1 -2 -2 -2 -2
18 15 18 13 12 9 14 16 17 16 17 17 17 16 16 15 15 14 13 12 12 11 11 10 9 9 8 8 7 6 5 4 4 3 3 2 1 1 1 0 -1 -1 -1 -2 -2 -2 -2 -3 -3
17 18 13 10 12 14 14 15 14 16 15 16 16 16 15 14 13 12 12 11 11 10 10 9 9 8 8 7 6 5 5 4 3 3 3 2 2 1 0 -1 -1 -2 -2 -2 -2 -3 -3 -3 -3
16 16 16 15 10 10 9 12 17 15 14 14 14 15 14 12 12 11 11 10 10 10 9 9 8 8 7 6 6 6 5 4 3 3 3 2 2 1 -1 -1 -2 -2 -2 -2 -3 -3 -3 -3 -4
18 17 15 8 12 8 7 10 15 12 14 15 14 13 12 12 11 11 10 9 9 9 8 7 7 7 6 6 5 5 4 3 3 3 2 2 2 0 -1 -2 -2 -2 -2 -3 -3 -3 -3 -3 -4

GFSSGP_850_temp_024.txt.gz
Temp
20 20 20 21 19 18 18 21 23 21 19 20 20 19 17 18 18 16 16 16 17 17 16 16 17 17 17 16 16 16 16 16 16 16 16 16 15 15 15 15 15 15 15 15 15 15 15 15 15
20 20 21 20 17 18 18 22 22 21 20 19 19 19 18 16 16 15 15 16 17 17 17 17 17 17 16 17 17 17 16 16 16 16 16 15 15 15 15 15 15 15 15 15 15 15 15 15 15
20 20 20 17 16 16 18 22 22 22 21 22 20 19 19 17 16 15 17 16 17 17 16 17 17 17 17 17 17 17 16 16 16 15 15 15 15 15 15 15 15 14 15 15 15 15 15 15 15
20 20 20 18 18 19 21 21 22 21 20 20 19 18 18 17 18 17 16 17 17 17 16 17 17 17 17 17 17 16 16 15 15 15 15 15 15 15 15 14 14 14 14 14 14 14 14 14 14
21 20 17 18 19 22 22 22 23 20 19 19 20 18 18 18 17 17 17 17 17 17 17 17 17 17 17 16 16 16 15 15 15 15 14 15 15 14 14 14 14 14 14 14 14 14 14 14 14
20 20 17 18 20 22 23 23 21 19 18 18 18 18 17 17 17 17 18 18 18 18 17 17 16 16 16 17 16 16 16 15 15 15 15 15 15 14 14 14 14 13 13 13 13 13 13 13 13
18 17 18 18 19 22 22 23 20 19 19 19 19 17 17 17 17 17 18 18 17 17 17 16 16 16 16 16 16 16 15 15 15 15 15 14 14 14 14 13 13 13 13 13 12 12 12 12 12
21 17 19 19 20 20 23 22 22 21 19 19 20 17 17 18 18 18 18 17 17 17 16 16 16 16 16 16 16 16 15 15 15 14 14 14 14 13 13 13 13 12 12 12 12 12 12 12 12
21 17 16 19 21 21 22 21 22 21 19 20 20 18 18 18 18 18 17 17 16 16 16 16 16 15 15 15 15 15 14 14 14 14 14 14 14 13 13 13 13 12 12 12 12 12 12 12 11
20 16 19 20 21 20 22 23 22 21 19 18 18 18 18 18 18 17 17 16 16 16 16 16 16 15 15 15 15 14 14 14 14 14 14 14 14 13 13 13 13 13 13 12 12 12 12 12 12
19 19 21 21 22 24 22 22 23 19 17 18 17 18 18 18 18 18 17 17 17 16 17 16 16 16 16 15 15 14 14 14 14 14 14 14 14 13 13 13 13 13 12 12 12 12 12 11 11
21 21 23 22 22 23 21 23 22 22 20 21 20 19 18 18 18 18 17 17 17 17 17 16 17 17 16 15 15 14 14 14 14 14 13 14 14 13 13 13 13 12 12 12 12 12 11 11 11
20 21 23 23 23 23 22 22 22 21 21 20 19 19 18 18 18 18 18 18 17 17 16 16 17 15 16 16 15 15 14 14 14 14 14 14 14 14 13 12 12 12 12 11 11 11 11 11 11
22 22 22 23 23 23 22 21 23 20 21 19 19 19 19 19 19 19 18 18 18 17 16 17 17 17 16 15 15 15 14 14 14 14 14 13 13 13 13 12 12 12 11 11 11 11 11 11 10
22 20 20 21 22 22 23 21 19 21 20 19 19 20 20 20 20 19 19 19 18 18 17 17 17 16 16 15 15 15 14 14 14 13 13 13 13 12 13 12 12 12 12 11 11 11 11 10 10
21 18 19 20 21 22 21 18 20 21 20 19 19 19 20 20 20 20 20 19 19 19 18 17 17 16 16 15 15 14 14 14 13 13 13 13 13 13 12 11 11 11 11 11 11 10 10 9 9
17 17 18 20 20 20 20 19 19 22 21 20 20 19 18 18 18 18 19 19 18 18 17 16 16 16 16 15 14 14 14 13 13 13 12 12 11 11 11 11 11 11 10 10 9 9 9 9 9
18 18 18 18 19 20 19 19 19 21 22 21 18 18 17 17 16 17 17 17 17 17 16 16 15 15 14 13 13 13 13 13 12 12 11 11 11 10 10 9 9 9 9 8 8 8 7 7 7
20 18 17 19 21 21 18 19 19 21 19 16 14 14 14 14 14 15 15 15 15 15 14 14 12 12 12 13 13 12 12 12 12 11 10 10 10 9 9 9 8 8 7 7 7 6 6 6 6
19 18 18 19 19 20 17 18 18 16 14 14 14 14 14 14 14 14 15 15 15 13 12 12 12 13 13 13 13 13 12 11 11 10 10 10 9 9 8 8 7 7 6 6 6 6 5 5 4
17 17 18 19 19 18 16 16 15 15 15 14 14 15 15 15 14 14 14 14 13 13 13 13 12 12 12 12 11 11 11 11 11 11 10 10 9 8 7 6 5 6 5 5 4 3 3 2 2
17 18 18 18 16 16 17 14 16 14 14 14 13 14 14 15 15 15 14 14 14 14 13 14 13 12 12 11 11 11 11 10 10 9 8 7 7 6 5 5 5 4 3 2 1 1 1 1 1
18 19 19 18 16 16 16 13 15 15 14 13 13 14 14 14 15 14 14 14 13 13 13 13 13 12 12 11 10 9 9 9 8 7 7 6 6 5 5 4 2 2 1 1 0 -0 0 -0 -1
19 18 15 15 14 12 16 14 14 14 14 14 13 13 14 14 14 14 14 13 13 12 12 11 11 11 11 10 10 10 9 8 7 7 6 6 5 4 3 2 2 1 0 -1 -1 -1 -1 -1 -1
16 14 11 12 10 12 15 14 14 14 15 14 12 13 14 14 14 14 14 13 13 12 11 11 11 10 9 9 9 8 8 7 6 5 5 5 4 3 2 1 1 1 -1 -1 -2 -2 -2 -2 -2
17 14 9 14 11 11 14 14 13 14 14 15 15 15 15 15 14 14 13 12 12 11 11 10 10 10 9 9 8 8 7 7 6 5 5 4 3 2 2 1 1 0 -1 -1 -2 -2 -2 -3 -3
17 14 15 11 9 8 12 14 16 15 14 15 15 15 15 13 13 12 11 11 10 10 10 10 9 9 8 8 7 7 6 6 5 5 5 4 3 2 2 2 0 -1 -1 -2 -2 -2 -3 -3 -3
17 16 13 9 12 13 12 14 12 13 13 14 13 13 13 12 12 11 11 10 10 10 9 9 8 8 7 7 6 6 6 5 5 4 4 3 3 2 2 1 0 -2 -2 -2 -2 -3 -3 -3 -3
15 14 13 12 8 9 8 10 13 13 13 11 11 12 12 11 11 10 10 9 9 9 8 8 7 7 6 6 6 5 5 5 4 3 3 2 2 2 1 0 -1 -2 -2 -2 -3 -3 -3 -4 -4
17 16 12 8 13 6 6 9 13 11 13 14 12 12 11 11 9 9 9 9 9 8 7 7 7 6 6 6 5 5 5 4 4 3 2 2 2 1 0 -1 -1 -2 -2 -3 -3 -3 -4 -4 -4

GFSSGP_850_temp_030.txt.gz
Temp
20 20 19 20 18 17 17 18 20 19 17 17 18 17 15 14 16 16 15 15 15 15 15 15 15 16 16 16 16 16 16 16 16 16 16 16 15 15 15 15 15 15 15 15 15 15 15 14 14
20 19 20 20 17 16 17 19 20 18 17 18 18 17 16 15 15 14 15 16 15 15 15 15 15 16 16 16 16 16 16 16 16 16 16 15 15 15 15 15 15 15 15 15 14 14 14 14 14
19 19 20 14 14 17 18 19 18 18 19 19 18 18 16 15 14 14 15 15 15 15 15 15 15 16 16 17 17 16 16 16 16 16 15 15 15 15 15 15 15 14 14 14 14 14 14 14 14
19 20 19 15 17 17 19 18 19 17 20 21 21 17 17 15 15 15 15 15 15 15 14 15 15 16 17 17 16 16 16 16 15 15 15 15 15 15 14 14 14 14 14 13 13 13 13 13 13
19 19 13 16 17 18 18 20 18 18 18 18 19 15 16 16 15 16 15 15 15 14 15 15 16 16 16 16 16 16 16 15 15 15 15 15 15 14 14 14 14 13 13 13 13 12 12 12 12
19 17 13 15 17 17 18 19 18 18 18 18 17 15 14 16 16 16 15 15 14 15 15 16 16 16 16 16 16 16 16 15 15 15 15 15 14 14 14 14 14 14 13 13 13 13 12 12 12
17 13 14 14 16 18 20 20 18 18 18 18 17 13 14 15 16 16 15 15 15 16 17 16 16 16 16 16 16 16 16 15 15 14 14 14 14 14 14 14 13 13 13 13 13 12 12 12 12
19 14 16 16 16 17 20 18 18 18 18 17 18 13 14 16 16 15 14 15 16 16 16 16 16 17 16 16 15 15 15 15 14 14 14 14 14 14 14 13 13 13 12 12 12 12 12 12 12
19 16 15 16 17 18 21 20 19 18 18 18 18 17 16 16 15 15 15 16 16 16 16 16 16 16 16 16 15 15 15 15 14 14 14 14 13 13 13 13 12 12 12 12 11 11 11 11 11
17 15 18 17 19 19 20 21 20 18 17 16 16 16 16 16 15 16 16 16 16 16 16 16 15 16 15 15 15 15 15 15 14 14 14 14 13 13 13 12 12 12 12 11 11 11 11 11 11
17 17 17 20 20 20 19 18 18 17 17 17 16 16 16 16 16 16 17 17 17 16 16 16 15 15 15 15 15 15 15 14 14 14 14 14 13 13 13 12 12 12 12 12 11 11 11 11 11
19 19 19 20 20 20 18 19 18 19 20 20 19 17 16 16 16 17 17 17 17 17 16 16 15 15 15 15 15 15 15 14 14 14 13 13 13 13 13 12 12 12 11 11 11 11 11 11 10
19 20 19 20 21 20 20 20 18 19 19 19 18 17 17 17 17 17 18 18 17 17 16 16 15 15 15 14 14 14 14 14 13 13 13 13 13 12 12 12 12 11 11 11 11 10 10 10 10
20 19 19 20 20 20 19 18 20 19 18 18 18 17 17 17 17 17 17 18 17 17 16 15 15 15 14 14 14 14 13 13 13 12 12 12 12 12 11 11 11 10 10 10 10 10 9 9 9
20 19 18 19 20 19 21 20 19 18 18 18 18 17 17 16 16 17 17 18 17 17 16 15 15 14 14 14 14 13 13 13 13 12 12 12 11 11 11 10 10 10 10 10 9 9 9 9 9
18 16 17 19 20 19 19 17 18 17 18 17 16 15 16 16 16 17 17 17 17 16 16 15 14 14 14 13 12 13 13 13 13 13 12 11 11 11 11 10 10 9 9 9 9 8 8 8 8
14 16 18 20 19 19 19 19 16 16 16 15 15 16 16 16 16 16 17 17 17 16 16 14 13 12 12 12 12 12 12 12 12 12 12 11 11 11 10 10 9 9 9 8 8 8 7 7 7
17 17 16 18 18 18 18 13 11 15 15 14 15 15 15 16 16 16 17 17 17 17 15 13 12 12 11 11 11 12 12 12 12 11 11 10 10 10 10 9 9 8 8 8 7 7 7 6 6
17 17 17 16 18 15 11 10 9 11 13 12 12 13 14 15 15 16 16 16 15 13 13 12 12 10 11 10 11 12 12 11 11 10 10 10 10 9 9 8 7 7 6 6 6 6 6 5 5
16 15 17 17 15 14 12 10 10 10 10 11 11 11 12 13 13 13 13 12 12 13 12 13 12 12 11 12 12 12 12 12 11 11 10 10 9 8 8 7 6 6 6 5 5 5 4 3 3
16 16 17 17 16 14 14 12 10 11 10 10 10 11 12 12 13 13 13 14 13 13 13 13 13 13 13 12 12 12 11 11 11 10 9 9 7 6 6 6 5 5 4 4 4 3 3 2 2
17 17 17 16 15 14 14 13 12 11 10 10 10 11 12 13 13 14 14 13 14 13 13 13 12 12 12 11 11 11 10 10 10 9 8 7 6 6 5 5 5 4 4 3 3 2 1 -1 -1
17 15 16 15 13 13 14 12 11 10 10 10 10 11 12 14 14 13 13 13 13 12 12 12 12 11 11 10 10 10 9 9 8 7 6 6 5 5 4 4 3 3 3 2 2 1 0 -1 -1
16 14 12 11 11 11 14 12 11 10 10 10 10 11 12 12 12 12 12 12 13 12 12 11 11 10 10 10 9 9 8 7 6 6 5 5 5 4 4 3 3 2 2 2 1 1 -0 -2 -2
13 13 10 11 9 11 13 12 12 12 11 11 10 11 12 12 12 12 12 12 11 10 10 10 10 10 9 9 8 7 7 6 6 6 5 4 4 3 3 2 2 2 1 0 -1 -1 -1 -2 -3
14 13 10 14 10 11 12 12 12 11 13 14 13 13 12 12 11 11 11 10 10 10 10 10 9 9 9 8 7 6 6 6 5 4 4 3 3 3 2 2 2 1 0 -1 -2 -2 -2 -2 -3
15 12 12 9 8 8 10 12 12 10 10 11 13 13 13 12 12 11 11 10 10 10 9 9 9 9 8 7 6 6 5 5 4 4 3 3 2 2 2 1 1 -1 -2 -3 -3 -4 -3 -3 -3
16 13 12 8 11 13 10 11 10 11 10 10 10 11 11 11 11 10 9 10 9 9 9 9 9 7 6 6 5 5 5 4 4 3 3 2 2 1 1 0 -0 -0 -1 -2 -3 -4 -4 -3 -4
14 13 10 9 7 8 7 9 9 11 10 10 10 12 11 11 10 9 9 9 9 9 8 8 8 7 6 6 6 5 5 4 3 3 2 1 1 0 0 -0 -1 -1 -2 -3 -4 -4 -4 -4 -4
14 14 10 7 11 5 5 8 10 9 11 11 11 11 10 9 8 9 9 9 8 8 8 8 7 6 6 6 5 4 3 3 2 1 1 0 -0 -0 -1 -2 -2 -2 -3 -4 -4 -5 -5 -4 -5

GFSSGP_850_temp_033.txt.gz
Temp
19 19 19 19 21 21 20 21 21 19 18 17 17 18 17 15 17 17 14 15 16 16 15 15 15 15 16 15 15 15 15 15 16 16 16 15 15 15 15 15 15 15 15 14 14 14 14 14 14
19 19 19 19 21 20 21 21 19 18 17 16 17 16 17 16 15 14 14 15 15 15 15 15 15 16 15 15 15 15 16 16 16 15 15 15 15 15 15 15 14 14 14 14 14 14 14 13 13
19 19 19 20 19 21 21 20 18 16 17 18 17 17 17 16 15 15 14 15 15 15 15 15 15 15 15 15 16 16 16 16 15 15 15 15 15 15 15 14 14 14 14 13 13 13 13 13 13
19 19 18 20 19 19 20 20 19 17 18 18 19 17 17 16 17 16 15 14 15 15 15 15 15 15 15 16 16 16 16 16 15 15 15 15 14 14 14 14 14 13 13 13 13 13 12 12 12
18 18 19 19 19 19 19 19 19 17 14 17 17 17 14 14 15 15 14 15 15 15 15 15 15 15 16 16 16 15 15 15 15 15 14 14 14 14 14 13 13 13 13 13 12 12 12 12 12
18 16 19 19 19 19 18 18 18 18 18 18 17 16 14 14 15 16 15 15 15 15 14 15 15 15 16 15 15 15 15 15 15 14 14 14 14 14 13 13 13 13 13 13 12 12 12 12 12
18 18 18 18 18 19 19 18 17 18 18 18 17 15 13 14 15 15 15 15 15 15 15 16 16 15 15 15 15 15 15 15 14 14 14 14 14 13 13 13 13 13 13 13 13 12 12 12 12
18 18 17 19 19 18 18 18 19 19 19 17 17 16 13 14 15 15 15 14 14 15 16 16 16 15 15 15 15 15 15 14 14 14 14 14 13 13 13 13 13 13 12 12 12 12 12 12 12
18 19 18 18 19 17 18 18 19 19 18 17 17 15 16 16 15 15 14 14 15 16 16 16 15 15 15 15 15 15 14 14 14 14 14 13 13 13 13 13 13 12 12 12 12 12 11 11 11
18 19 19 19 19 21 21 20 18 18 17 16 16 16 16 15 15 15 15 16 16 16 16 15 15 15 15 15 15 14 14 14 14 14 14 13 13 13 13 12 12 12 12 11 11 11 11 11 11
17 20 18 19 20 21 21 18 18 18 18 17 16 15 16 15 15 16 16 17 17 16 15 15 15 15 15 14 14 14 14 13 13 13 13 13 13 12 12 12 12 12 12 11 11 11 11 11 11
19 19 19 19 21 19 19 18 18 19 19 19 18 17 17 16 16 17 17 17 16 16 15 15 15 14 14 14 14 13 13 13 13 12 12 12 12 12 12 12 11 12 12 11 11 11 11 10 10
19 19 18 19 21 19 19 18 19 19 19 19 17 17 17 17 17 17 17 17 16 16 15 15 14 14 14 13 13 13 13 13 12 12 12 12 12 12 12 11 11 11 11 11 11 10 10 10 10
19 19 18 18 18 19 19 18 20 18 18 18 17 17 17 17 17 16 17 17 16 16 15 15 14 14 14 13 13 13 12 13 13 13 13 12 12 11 11 11 11 11 10 10 10 10 9 9 9
19 19 19 18 19 18 20 19 19 18 18 17 16 16 16 16 16 16 17 17 16 16 15 15 14 14 13 13 12 13 13 13 13 13 13 12 11 11 11 11 10 10 9 9 9 8 8 8 8
19 18 20 19 19 18 20 19 15 15 16 15 14 15 16 16 16 16 16 16 16 15 15 14 13 13 13 12 12 12 12 12 13 12 12 11 11 10 10 10 9 9 8 8 8 8 8 8 8
17 19 19 19 18 19 20 18 14 14 15 14 14 14 15 15 15 15 16 16 15 15 15 13 12 12 12 11 11 11 11 10 11 12 11 11 10 10 10 9 8 8 8 7 7 7 7 6 6
19 19 18 19 19 17 17 15 13 13 15 13 13 14 14 15 15 15 16 16 16 15 14 13 12 12 12 11 10 10 10 11 11 11 11 10 10 9 9 8 8 7 7 7 6 6 6 5 5
18 18 18 17 17 15 13 13 12 11 12 12 12 14 14 14 15 15 16 16 15 14 12 12 12 12 11 12 11 11 11 11 11 11 10 10 9 8 7 7 7 6 6 6 5 5 5 5 5
17 17 17 16 15 16 14 13 12 11 11 11 12 12 13 14 13 13 14 14 13 13 13 12 12 12 11 11 11 11 11 11 10 10 9 8 7 7 7 7 6 5 5 4 4 4 4 3 3
16 17 17 18 16 15 15 16 13 12 10 9 10 10 12 13 13 12 11 12 13 13 13 12 12 11 11 11 11 11 11 10 10 10 9 7 7 7 6 6 5 4 4 3 3 3 2 2 2
17 16 16 16 17 18 15 19 14 12 11 10 10 10 11 12 12 12 12 12 13 13 13 12 12 12 11 11 11 10 10 10 9 8 7 7 6 6 5 4 4 4 3 3 2 2 1 1 -0
16 15 16 15 16 16 16 18 15 12 12 11 11 10 10 11 11 12 12 12 13 13 13 12 12 11 11 10 10 9 9 8 8 7 6 6 5 4 4 4 3 3 2 2 1 1 -1 -1 -2
14 15 14 14 15 16 15 16 17 14 13 12 11 10 10 11 11 12 12 13 13 12 12 11 11 11 10 10 9 8 8 7 6 6 5 5 4 4 3 3 2 2 2 1 -0 -1 -2 -2 -2
16 16 15 15 15 15 13 14 17 14 13 13 12 11 11 12 12 13 13 12 12 12 11 11 10 10 10 9 8 7 7 6 6 5 5 4 3 3 2 2 2 1 1 0 -0 -1 -2 -2 -2
15 16 15 15 14 15 13 15 16 13 13 13 12 12 12 12 12 12 12 11 11 11 10 10 10 10 9 8 7 6 6 6 5 4 4 3 3 2 2 2 1 1 1 0 -1 -2 -2 -3 -3
15 15 13 11 8 12 14 14 14 12 12 12 12 11 11 12 11 11 11 11 10 10 10 9 9 8 7 7 6 6 5 5 4 4 3 3 3 2 2 1 1 1 -0 -0 -1 -2 -3 -3 -4
16 13 14 13 13 14 14 13 16 13 12 12 12 12 11 11 11 10 10 10 10 9 9 9 8 7 7 7 6 5 5 4 4 3 3 3 2 1 1 0 -0 -1 -1 -1 -2 -2 -3 -5 -4
15 14 11 12 11 13 13 15 13 14 13 13 13 12 11 11 11 10 9 9 9 8 8 8 7 7 6 5 5 5 4 3 3 3 2 1 0 0 -0 -0 -1 -2 -2 -2 -3 -3 -4 -4 -5
14 14 13 13 12 9 10 14 12 12 12 12 12 10 11 11 10 9 8 8 8 8 7 7 6 6 5 5 5 4 3 3 3 2 1 -0 -1 -1 -1 -1 -2 -3 -3 -3 -4 -4 -5 -5 -5

GFSSGP_850_temp_036.txt.gz
Temp
19 19 19 19 24 25 26 25 25 23 21 20 20 21 21 20 21 20 15 14 14 14 14 15 15 15 15 15 15 15 15 15 15 15 15 15 15 15 15 15 15 15 15 14 14 14 14 14 14
19 19 19 22 24 25 26 26 24 22 20 19 18 19 20 19 16 14 14 14 14 14 14 15 15 15 15 15 15 15 15 15 15 15 15 15 15 15 15 15 14 14 14 14 14 14 14 14 14
19 19 22 25 25 25 25 24 23 20 19 19 17 17 16 16 15 15 15 15 14 14 14 15 15 15 15 15 15 15 15 15 15 15 15 14 14 14 14 14 14 14 13 13 13 13 13 13 13
18 20 21 24 24 24 24 23 21 21 19 19 16 15 16 17 16 17 17 15 14 14 14 15 15 15 15 15 15 15 15 15 14 14 14 14 14 14 14 13 13 13 13 13 13 13 13 13 13
19 21 24 24 24 24 24 22 21 22 17 19 19 19 17 14 15 14 14 15 14 14 14 15 14 14 14 15 14 15 15 14 14 14 14 14 14 14 13 13 13 13 13 13 13 13 13 13 13
22 22 24 24 23 23 24 22 22 21 20 20 19 19 16 14 14 15 14 14 14 15 14 14 14 14 14 15 15 15 14 14 14 14 14 14 14 13 13 13 13 13 13 13 12 13 13 13 13
23 24 24 23 23 22 22 21 22 22 21 19 18 21 14 14 14 14 14 14 15 15 14 13 14 14 14 15 15 14 14 14 14 14 14 14 13 13 13 13 13 13 12 13 12 12 12 12 12
22 24 23 23 22 21 21 20 20 20 21 18 18 19 14 14 14 14 14 14 15 15 13 13 12 12 14 14 14 14 14 13 14 13 13 13 13 13 13 13 12 12 12 12 12 12 12 12 12
20 23 23 23 22 21 21 22 20 19 18 18 17 18 16 14 14 15 14 15 15 13 13 13 12 12 12 12 14 14 13 13 13 13 13 13 11 12 12 12 13 12 12 12 12 12 12 12 11
22 23 24 24 24 23 22 22 20 20 20 19 17 15 14 14 15 15 14 15 15 13 13 14 14 14 14 12 13 13 13 12 12 12 13 11 12 11 11 12 12 12 12 12 12 12 12 11 10
22 23 24 23 23 23 23 22 21 21 22 21 19 15 14 14 14 14 14 14 14 13 13 13 15 14 14 13 12 12 12 13 13 13 12 12 12 12 11 12 12 12 12 11 11 11 11 11 11
22 23 23 22 22 23 23 22 21 22 22 20 20 16 14 14 14 15 16 16 15 14 13 14 15 14 14 12 12 13 12 12 11 12 12 12 11 12 12 12 12 12 11 11 11 10 11 10 10
22 23 21 21 21 22 22 22 22 22 20 19 17 16 15 16 16 17 16 16 15 14 14 14 14 14 14 13 13 13 12 12 12 12 12 12 12 12 12 12 11 11 10 10 10 9 9 9 8
22 21 20 20 22 21 22 21 21 19 19 17 16 17 17 17 17 17 16 16 15 14 13 14 14 14 13 13 13 13 13 12 12 13 13 12 11 11 11 11 10 10 10 9 9 9 9 8 7
21 22 21 21 21 21 22 21 21 19 19 18 18 18 18 18 17 17 16 15 15 14 12 13 13 13 13 13 13 13 13 12 12 12 12 12 11 10 10 10 9 9 9 8 8 8 7 7 7
22 23 22 22 22 20 22 22 20 18 20 20 19 18 17 17 17 16 16 15 15 14 13 13 13 13 12 11 11 11 12 11 11 11 11 11 10 10 10 9 9 8 8 8 7 6 6 6 6
22 22 22 21 22 22 23 22 19 18 19 19 19 18 17 17 16 15 14 15 15 14 11 13 12 12 11 11 11 11 12 10 10 10 11 10 9 9 9 8 8 8 7 6 6 5 5 5 5
22 22 23 23 22 23 23 21 20 18 19 19 19 18 18 17 16 13 13 14 14 13 11 12 12 11 10 11 10 10 10 10 10 10 10 10 9 9 8 8 7 7 5 5 5 5 4 4 3
23 23 23 23 21 23 22 22 20 19 19 19 18 18 17 16 13 13 15 15 13 12 12 13 13 12 11 12 9 11 10 10 10 10 10 9 8 8 8 7 6 5 4 5 4 4 4 3 3
22 22 22 20 20 22 21 21 19 18 19 19 19 18 17 15 14 13 13 14 12 11 11 12 11 11 11 12 11 9 11 11 10 10 9 8 8 7 7 6 4 4 4 3 3 2 3 3 3
21 22 21 22 20 21 21 21 19 17 16 15 15 17 16 16 15 13 12 12 11 11 12 12 12 12 12 11 11 11 10 10 10 9 8 8 7 6 5 5 5 4 3 3 3 2 2 2 2
21 20 21 21 22 22 21 22 21 19 18 16 15 15 15 15 13 13 12 11 11 12 12 11 11 11 11 11 9 9 10 9 8 7 6 6 6 6 6 5 4 3 3 2 2 2 1 1 1
20 20 21 21 22 21 21 21 23 18 19 18 16 15 15 14 13 13 13 13 12 11 11 11 10 10 10 10 9 9 9 8 7 6 6 5 5 5 4 3 3 3 2 2 1 0 0 0 -0
19 20 20 21 21 20 22 21 23 23 21 18 16 15 14 13 13 13 13 12 11 10 9 9 9 9 10 10 9 9 8 7 7 6 6 6 5 4 4 3 2 2 1 1 1 0 -0 -1 -1
20 21 20 19 19 19 18 19 22 20 19 19 16 15 14 13 13 13 12 12 11 10 10 9 9 9 9 9 8 7 7 6 6 6 5 4 4 4 3 2 2 1 1 1 0 -0 -1 -1 -2
20 21 19 17 18 19 18 19 21 18 17 17 16 15 14 14 13 13 12 12 11 10 10 10 10 8 8 8 7 6 7 6 5 5 4 4 3 3 2 1 1 1 0 0 -0 -1 -1 -1 -2
19 19 19 17 13 16 20 20 20 17 17 17 17 16 15 14 14 13 12 11 11 10 9 9 9 8 8 8 8 7 6 6 5 4 4 2 2 1 1 1 0 0 -0 -0 -1 -1 -1 -1 -2
19 19 18 18 16 17 20 19 21 18 18 17 17 16 15 15 14 13 12 10 10 9 9 9 8 8 7 7 6 6 5 5 4 4 2 1 1 1 0 -0 -1 -1 -1 -1 -1 -2 -2 -2 -3
18 18 17 18 17 17 18 21 20 19 19 18 17 16 16 15 14 12 11 10 9 8 8 9 8 7 7 6 5 5 5 4 3 2 1 1 0 -0 -1 -1 -2 -2 -2 -2 -3 -3 -3 -3 -4
19 19 19 18 17 15 16 19 18 18 18 17 17 17 16 14 13 11 10 9 8 8 7 8 7 6 6 5 5 4 4 3 2 1 0 -0 -1 -1 -2 -2 -2 -2 -3 -3 -4 -4 -4 -4 -4

GFSSGP_850_temp_039.txt.gz
Temp
19 19 20 22 25 26 27 29 29 26 25 23 24 24 24 21 21 21 17 17 16 15 15 15 15 16 16 16 15 15 15 15 15 15 15 15 15 15 15 15 15 15 15 15 14 14 14 14 14
19 20 21 24 25 26 28 29 27 21 20 21 21 23 22 21 18 16 16 16 16 15 14 15 15 15 15 15 15 15 15 15 15 15 15 15 15 15 15 15 15 15 14 14 14 14 14 14 14
19 20 23 26 26 26 27 27 24 22 22 22 21 21 19 18 16 15 15 15 15 15 14 14 15 15 15 15 15 15 15 15 15 15 15 15 14 14 14 14 14 14 14 14 14 14 14 14 14
20 22 23 25 26 28 27 21 21 24 22 21 20 21 18 17 16 16 15 15 15 15 15 15 14 15 15 15 14 15 15 15 15 15 14 14 14 14 14 14 14 14 14 14 14 14 14 13 13
20 23 25 26 26 27 27 25 24 23 23 22 22 20 18 17 16 16 15 15 14 14 15 15 14 14 14 15 14 15 14 14 14 14 14 14 14 13 14 14 13 13 13 13 13 13 13 13 13
23 24 25 26 27 26 26 24 25 22 23 22 22 21 18 16 16 15 14 14 14 14 14 14 14 14 14 14 14 14 14 14 14 14 13 14 13 13 13 13 13 13 13 13 13 13 13 13 13
24 26 25 27 26 25 24 24 22 23 23 22 21 20 18 16 15 14 14 14 14 14 14 14 14 14 14 14 14 14 14 14 14 13 13 13 13 13 13 13 13 12 12 12 13 13 13 13 13
24 26 26 26 23 24 24 24 23 23 23 22 21 21 19 16 14 15 14 13 14 14 14 13 13 14 14 14 14 14 14 13 13 13 13 13 13 13 12 12 13 12 12 12 12 12 12 12 12
23 25 25 23 23 22 22 23 22 22 22 20 20 20 18 15 14 14 14 14 14 15 15 15 14 14 13 12 14 14 13 13 13 13 13 12 12 11 12 13 12 12 12 12 12 12 12 12 12
24 25 26 25 20 14 21 22 23 22 22 21 19 19 16 15 14 14 14 14 14 15 14 14 13 13 13 13 14 13 13 12 12 12 12 12 12 12 12 12 12 12 12 12 11 11 11 11 11
24 24 26 26 24 17 24 23 23 23 23 22 21 19 14 14 15 15 16 15 16 15 14 13 12 12 12 12 12 13 12 12 12 11 12 12 12 11 12 12 11 11 11 11 11 11 11 10 10
24 25 25 25 25 23 23 24 24 22 17 23 22 18 14 15 16 17 17 17 17 15 14 13 12 12 13 13 13 13 13 13 13 12 11 11 12 11 11 12 11 11 11 10 10 10 9 9 9
24 25 24 23 24 23 23 24 24 23 22 22 21 17 16 17 17 18 18 18 17 16 15 14 12 12 12 12 12 13 13 12 12 12 12 12 11 11 11 11 11 10 10 10 9 9 9 9 9
24 24 24 23 23 23 24 24 24 22 22 21 19 18 18 18 19 19 18 18 16 16 14 13 13 12 12 12 12 12 12 12 11 12 12 12 12 11 10 10 10 9 9 9 9 8 8 8 9
23 23 24 23 24 24 23 23 21 22 22 20 19 19 19 19 19 19 18 17 17 16 14 13 12 12 11 11 11 12 12 12 11 12 12 11 11 11 9 9 10 9 9 9 8 7 8 8 8
23 23 22 24 24 24 24 23 23 22 22 21 21 20 20 20 20 19 18 17 17 16 14 13 11 12 13 13 12 12 12 12 11 11 11 11 10 10 9 9 9 9 8 7 7 7 7 7 7
23 23 23 23 25 25 24 23 23 22 22 22 22 21 21 20 20 19 18 18 17 16 13 11 14 13 12 12 12 11 10 11 10 10 11 11 10 9 9 8 8 8 7 6 6 6 6 6 6
22 23 24 24 24 24 24 24 24 23 23 22 22 21 20 20 19 18 17 17 17 16 13 11 11 13 13 12 12 13 11 9 9 10 10 10 9 9 7 7 7 7 6 6 5 4 5 5 5
24 24 24 25 25 24 24 24 23 23 23 23 22 21 21 20 19 17 16 16 17 15 12 11 11 13 12 11 12 11 9 9 10 10 10 9 7 7 8 7 6 6 6 5 4 4 4 4 5
24 24 23 24 24 24 24 24 24 24 23 23 22 22 21 20 18 16 15 15 15 14 11 11 11 11 11 12 11 10 9 10 9 8 8 7 7 6 6 6 6 5 5 5 5 4 4 4 4
24 23 22 23 23 24 24 24 23 23 23 23 22 22 21 20 18 16 15 14 13 12 11 12 10 11 10 10 10 10 10 9 9 8 7 7 6 6 6 5 5 5 4 5 4 4 3 3 3
22 24 24 23 23 22 25 23 24 23 22 21 20 21 21 20 19 17 16 14 13 12 12 12 12 12 11 11 11 10 11 11 11 10 9 7 6 6 6 5 5 4 4 4 4 4 3 2 3
21 23 24 24 24 23 24 23 22 24 23 22 21 20 19 19 18 17 16 14 13 13 13 13 13 12 11 11 11 10 11 10 9 9 8 7 7 6 5 5 4 4 3 3 3 3 2 2 2
23 23 23 23 23 21 23 23 24 24 24 24 21 19 19 18 17 16 15 15 14 13 13 13 13 12 11 10 10 10 10 9 9 8 8 8 7 6 6 5 4 3 3 3 3 2 2 1 0
23 23 21 20 21 20 22 22 24 24 23 23 21 19 18 17 17 16 15 15 14 13 12 11 12 11 10 10 9 9 8 8 8 7 7 6 6 6 5 4 3 2 2 2 1 1 1 0 -0
22 23 21 19 20 21 22 21 23 23 21 21 20 19 17 16 16 16 15 15 13 12 11 11 11 11 10 9 9 8 7 7 7 7 6 5 5 4 3 2 2 2 1 1 1 1 1 1 -1
22 21 22 20 17 18 21 24 23 22 21 21 20 19 17 17 16 16 15 14 13 12 12 11 11 11 9 8 7 7 7 6 6 5 4 4 3 3 3 2 1 1 0 0 0 1 1 -0 -1
21 22 20 20 17 18 22 23 23 21 21 21 20 19 18 17 17 16 15 14 13 12 11 11 11 10 8 7 7 6 6 5 5 4 4 3 2 2 1 1 0 -0 -0 -0 -0 -0 -1 -2 -2
21 20 21 21 20 18 19 22 23 22 22 21 21 19 18 18 17 16 15 14 13 12 10 10 9 8 7 6 6 6 5 5 4 4 3 2 1 1 1 0 -0 -0 -0 -1 -2 -2 -2 -2 -3
22 22 22 19 19 19 18 20 22 22 22 21 20 20 19 18 18 16 15 14 12 11 10 9 8 7 6 6 6 4 5 4 4 3 2 2 1 0 -0 -1 -1 -1 -2 -3 -3 -3 -3 -4 -4

GFSSGP_850_temp_042.txt.gz
Temp
20 20 21 21 23 24 24 27 28 24 23 24 24 22 21 20 20 18 16 17 17 17 17 16 16 15 15 15 16 15 15 15 15 15 15 15 15 15 15 15 15 15 15 15 15 14 14 14 14
20 20 21 23 23 23 26 24 22 22 22 22 23 23 21 18 18 16 16 16 15 16 16 16 15 15 15 15 15 15 15 15 15 15 15 15 15 15 15 15 15 15 14 14 14 14 14 14 14
20 20 22 24 24 24 25 21 21 24 23 23 22 21 20 17 16 16 16 15 16 15 14 15 15 15 15 15 14 15 15 15 15 15 15 15 15 15 15 15 15 14 14 14 14 14 14 14 14
20 21 22 23 24 26 26 23 24 24 23 23 22 20 18 17 16 16 15 15 15 15 15 15 14 14 14 14 14 15 15 15 15 15 15 15 15 14 14 14 14 14 14 14 14 14 14 14 14
21 22 23 24 25 27 28 25 24 24 23 23 22 20 17 16 17 15 15 15 15 14 14 15 14 14 14 15 14 15 15 15 15 15 15 14 14 14 14 14 14 14 14 14 13 13 13 13 14
22 23 23 24 26 28 28 26 24 22 17 16 23 21 19 16 16 16 15 15 14 13 13 14 14 14 14 15 14 14 14 14 14 14 14 14 14 14 14 13 13 14 14 13 13 13 13 13 13
22 24 24 25 26 26 26 21 19 17 19 18 22 20 18 16 15 16 15 15 14 13 13 14 14 14 14 14 14 14 14 14 14 14 14 14 13 13 13 13 13 13 13 13 13 13 13 13 12
23 25 24 25 26 22 15 16 18 16 18 22 22 21 19 16 15 16 15 13 13 13 13 13 14 14 14 14 14 14 14 14 14 13 13 13 13 13 13 13 13 13 13 12 12 12 12 12 12
24 23 23 25 24 17 16 14 17 22 22 22 21 19 18 16 16 15 15 13 12 12 13 14 14 14 14 14 13 14 14 14 13 13 12 12 12 12 12 13 13 12 12 12 12 12 11 11 11
24 23 24 25 19 16 15 14 16 23 23 22 20 18 15 14 14 14 13 13 12 13 13 14 14 13 13 14 13 13 13 13 13 13 12 12 12 12 12 12 13 12 12 11 11 11 11 11 11
24 23 26 25 22 18 15 15 19 23 20 19 19 17 15 14 14 14 14 14 13 14 14 14 14 13 13 13 13 13 13 12 12 12 12 12 12 12 12 12 12 11 11 11 10 11 10 10 9
24 25 25 25 22 21 22 22 20 20 18 17 18 16 15 15 16 15 16 16 15 14 14 14 14 13 13 13 13 13 13 13 12 12 12 12 12 12 12 12 11 11 11 10 10 10 10 10 9
24 25 25 24 24 24 23 21 21 20 21 17 15 15 16 18 18 17 16 17 16 15 14 13 13 13 13 13 13 13 13 13 12 12 13 12 12 12 12 12 11 11 10 10 10 10 10 10 9
25 25 25 24 24 24 23 20 21 22 22 20 18 17 18 18 19 19 19 18 17 15 14 13 13 13 13 13 13 13 13 12 12 12 12 12 12 12 10 10 10 10 10 10 9 9 9 8 8
24 24 24 24 24 22 22 21 22 22 22 21 20 19 19 20 20 19 19 17 17 15 14 13 12 12 13 12 13 13 13 13 13 13 13 12 12 11 11 11 10 10 10 9 9 9 8 7 7
23 24 22 23 24 24 22 19 22 22 22 21 20 19 20 20 19 19 18 17 16 15 13 13 12 12 12 12 12 13 13 14 13 13 13 12 11 10 11 11 10 9 8 8 8 7 7 7 6
23 21 21 22 25 24 22 20 23 23 23 22 21 21 20 20 20 19 18 17 17 15 14 13 12 12 13 12 12 13 13 13 14 14 11 11 10 10 10 10 9 8 7 6 7 7 7 6 5
19 21 22 23 24 25 23 23 24 23 23 22 22 21 21 20 20 19 18 18 17 15 14 13 11 12 13 13 13 12 12 12 12 12 11 10 9 10 9 8 8 7 7 7 6 5 4 4 4
23 23 23 25 25 24 24 24 24 24 24 23 22 22 21 21 20 19 18 18 17 15 15 13 11 10 12 13 12 12 12 12 11 11 10 9 9 9 8 7 7 6 6 6 5 5 4 4 4
24 22 23 25 25 24 24 24 24 24 24 23 22 21 21 20 20 18 17 17 17 15 13 12 12 11 11 11 11 12 11 11 11 10 9 7 8 7 7 7 6 6 6 6 5 5 4 4 3
23 20 21 21 24 24 24 23 23 24 24 24 23 22 22 21 19 17 17 16 17 15 13 13 11 11 11 10 10 11 10 10 9 8 8 7 8 7 6 6 6 5 5 4 4 4 4 3 3
21 21 22 22 22 21 21 20 23 23 23 24 24 23 22 22 19 18 17 16 15 14 13 12 11 11 11 11 11 10 10 10 9 9 9 8 8 7 6 6 6 5 4 4 4 3 3 3 3
20 21 21 24 23 20 19 18 19 23 22 24 23 23 23 22 20 19 17 16 14 13 12 12 12 12 12 12 11 11 11 11 10 10 9 8 7 7 6 6 5 5 4 3 3 3 2 2 2
21 21 23 23 22 18 18 18 20 20 20 19 22 22 21 21 20 19 17 15 14 13 13 13 13 12 12 11 11 11 11 10 10 9 8 8 8 7 6 6 5 5 4 3 2 2 2 1 1
23 22 19 13 13 19 24 22 23 19 22 23 22 21 20 20 19 18 17 15 14 13 13 13 13 13 11 11 10 10 10 9 9 8 8 7 7 6 6 5 5 4 2 2 2 1 1 1 1
20 22 16 16 13 20 22 22 23 23 23 23 22 21 20 19 18 17 16 15 14 14 13 13 13 12 11 10 10 10 9 8 8 7 7 6 6 5 4 4 3 2 2 1 1 0 0 1 1
20 21 22 20 18 17 21 23 23 23 22 22 21 20 19 18 17 17 16 15 14 13 12 12 12 12 11 10 9 9 8 8 7 7 6 5 4 4 3 3 2 1 1 0 -0 -0 -0 -0 -1
22 23 20 21 18 17 21 22 20 21 21 22 21 20 19 18 17 17 16 15 14 13 12 12 12 11 10 10 9 8 7 6 6 6 4 4 3 2 2 1 1 0 -0 -0 -0 -1 -1 -1 -2
21 20 21 22 21 18 17 20 23 22 22 21 21 20 19 18 17 17 16 15 14 13 13 12 12 11 9 8 7 7 6 6 5 4 4 3 2 2 1 1 0 -0 -1 -1 -1 -2 -2 -2 -3
22 22 22 18 18 19 17 18 23 22 23 22 21 21 20 19 18 17 16 15 14 14 12 11 11 10 9 7 6 6 6 5 4 4 3 3 2 1 1 0 -0 -1 -1 -2 -2 -3 -3 -3 -3

GFSSGP_850_temp_045.txt.gz
Temp
19 20 19 19 16 15 17 19 20 19 20 21 21 18 17 17 17 16 15 16 16 17 17 17 16 15 15 15 15 15 15 15 16 16 16 16 16 16 15 15 15 15 15 15 15 15 15 15 15
20 20 18 20 15 15 16 21 18 20 21 22 21 19 18 16 16 15 15 15 15 17 16 16 16 15 15 15 14 15 15 15 15 16 16 16 16 15 15 15 15 15 15 14 14 14 14 15 14
20 19 19 15 15 16 17 20 19 21 22 22 20 19 17 15 16 15 15 15 16 17 16 15 15 15 14 14 14 15 15 15 15 15 15 16 15 15 15 15 15 15 14 14 14 14 14 14 14
19 20 20 17 16 19 20 19 20 20 22 22 19 17 17 16 16 16 15 14 15 16 15 15 15 14 14 14 14 15 15 15 15 15 15 15 15 15 15 15 15 14 14 14 14 14 14 14 14
18 19 17 17 18 21 21 23 21 17 19 19 20 16 15 15 16 16 15 14 14 14 14 14 14 14 14 14 15 15 15 15 15 15 15 15 15 15 14 14 14 14 14 14 14 14 13 13 13
18 20 16 17 20 22 18 17 17 16 17 19 19 17 16 15 16 15 16 14 14 13 13 13 13 14 14 14 15 15 15 15 15 15 15 14 14 14 14 14 14 14 14 13 13 13 13 13 13
18 16 16 17 20 20 17 17 14 15 16 19 20 16 15 15 15 15 16 14 13 12 12 12 13 13 13 14 14 14 14 15 14 14 14 14 14 14 14 14 13 13 13 13 13 12 12 12 11
20 16 17 18 20 15 15 14 15 15 16 21 20 16 15 14 15 14 14 14 12 12 12 13 12 13 13 14 14 15 14 14 14 14 14 14 14 14 13 13 13 13 13 12 12 12 11 11 11
21 16 18 18 18 17 15 15 15 17 15 19 20 19 17 15 15 14 13 12 12 12 13 12 12 14 14 14 14 14 14 14 14 13 13 13 13 13 13 13 13 13 12 12 11 11 11 11 11
19 15 18 21 17 16 15 17 15 16 16 17 17 17 17 14 14 13 12 12 12 12 12 12 13 14 14 14 14 14 13 13 13 12 12 13 12 12 12 12 12 12 11 11 11 10 10 10 10
20 18 20 22 20 19 16 16 19 18 18 16 18 17 17 14 13 13 13 13 13 13 12 13 13 13 14 14 13 13 13 13 12 12 12 12 12 12 12 12 12 11 11 10 10 10 10 10 10
19 21 22 22 21 18 16 18 19 20 19 17 16 15 15 14 14 13 13 13 12 12 13 13 13 13 13 14 13 13 13 13 12 13 12 12 12 12 11 11 10 11 11 11 11 10 10 10 10
20 21 23 23 21 20 18 17 18 19 18 18 18 17 15 16 15 14 13 13 13 12 13 13 13 13 13 13 13 12 12 13 13 12 12 12 13 12 11 12 11 11 11 11 10 10 10 10 9
23 23 23 23 22 22 18 16 20 20 18 18 18 17 16 16 15 14 14 14 14 14 14 13 13 13 12 13 13 13 12 13 13 13 13 12 12 12 12 11 11 11 10 10 10 10 10 9 8
23 21 22 22 22 19 19 15 16 20 18 16 16 17 17 17 16 16 15 15 14 14 14 13 13 13 12 13 13 13 13 13 14 13 13 12 12 12 12 11 10 10 10 10 10 9 8 8 7
19 21 19 22 21 19 20 17 17 18 17 17 17 18 18 17 17 16 16 16 15 14 14 13 12 13 12 13 13 13 13 14 13 13 13 13 12 12 11 10 10 10 10 10 9 8 7 7 7
18 18 20 20 22 18 18 18 19 20 19 19 19 19 19 19 18 18 17 17 16 16 15 13 13 13 13 13 13 13 13 13 13 13 13 12 12 12 11 10 10 9 9 8 7 7 8 6 5
18 19 19 19 20 20 18 18 18 21 20 19 19 19 19 19 19 18 18 17 16 15 15 14 13 12 12 13 13 13 13 13 12 12 12 12 11 11 11 10 9 8 8 7 7 6 5 5 4
20 19 19 20 21 19 19 18 18 21 20 19 19 20 20 19 19 18 18 17 15 14 15 14 14 13 13 13 13 13 12 12 12 12 11 11 11 10 9 8 8 7 7 7 6 5 5 5 4
20 20 20 20 21 21 20 19 19 20 20 20 20 20 20 20 19 18 18 17 16 15 15 14 13 13 13 13 12 11 12 11 11 10 11 11 11 9 8 7 7 7 7 7 6 5 5 4 4
19 18 19 18 19 20 21 19 20 20 22 21 21 21 21 20 19 18 18 17 16 15 14 16 14 13 12 11 11 11 11 10 10 10 11 11 9 8 8 7 7 7 6 6 5 5 4 3 3
18 21 20 19 18 16 19 16 20 19 21 20 20 21 21 20 19 18 18 17 16 14 14 14 13 12 12 11 10 11 11 12 12 11 10 9 8 8 7 7 7 6 5 5 4 4 3 3 2
19 19 20 19 19 18 18 15 17 19 19 20 20 20 20 20 19 18 17 17 16 15 13 12 12 11 11 10 10 11 11 11 10 10 9 8 8 7 7 6 6 5 5 5 4 4 4 3 2
20 20 19 15 16 15 18 17 15 18 19 20 22 22 20 19 18 18 17 16 16 15 14 13 12 12 11 11 11 11 11 10 10 9 9 8 7 7 6 6 5 5 5 4 4 4 3 2 1
19 18 14 13 11 13 18 17 16 19 20 18 19 21 19 20 19 18 17 16 15 15 14 13 12 12 11 11 11 11 10 10 9 9 8 8 7 7 6 6 6 6 5 4 3 2 1 1 0
17 18 13 14 12 12 19 18 18 19 20 21 21 20 20 20 19 18 17 16 15 15 13 13 12 12 12 11 11 11 10 10 9 9 8 8 7 7 6 6 6 5 4 3 2 1 0 -0 -0
17 15 18 14 13 10 15 19 19 19 20 19 19 19 19 19 18 17 16 16 15 14 14 13 13 13 12 11 11 10 10 9 9 8 8 7 6 5 5 5 4 3 2 1 0 -0 -0 -1 -1
18 19 16 14 15 16 16 18 16 17 19 18 17 18 18 18 18 17 16 15 14 14 13 13 13 12 12 11 10 10 9 9 8 7 7 6 5 4 4 3 3 2 0 0 -0 -1 -1 -1 -2
18 18 19 17 14 13 11 14 20 18 18 17 17 19 18 18 17 17 16 15 14 14 13 13 12 12 12 11 10 9 9 8 7 7 6 3 3 4 3 2 2 1 -0 -0 -1 -1 -2 -3 -3
20 19 16 10 16 13 9 13 20 18 17 19 19 19 19 18 17 17 16 15 15 14 13 13 12 12 11 10 9 8 7 7 6 5 3 2 3 3 2 2 1 -0 -1 -1 -1 -2 -2 -3 -4

GFSSGP_850_temp_048.txt.gz
Temp
19 18 18 18 15 12 14 16 19 20 20 19 19 18 16 16 17 16 15 16 17 16 16 16 16 16 15 15 15 15 15 16 16 16 16 16 16 15 15 15 15 15 15 15 15 14 14 14 13
19 18 18 18 13 14 14 18 19 19 20 19 18 17 16 16 16 15 15 15 17 16 15 15 15 15 15 15 15 14 15 15 16 16 16 16 15 15 15 15 15 15 15 14 14 14 14 14 13
18 18 18 13 11 14 15 19 18 20 21 21 19 17 16 15 15 15 16 16 16 14 14 14 15 15 15 14 14 14 15 15 16 16 16 15 15 15 15 15 15 14 14 14 14 14 14 14 14
18 18 18 15 15 17 19 18 19 19 20 20 18 15 16 15 16 16 15 15 16 14 14 14 15 15 14 14 14 14 15 15 16 16 15 15 15 15 15 15 14 14 14 14 14 14 14 14 14
18 18 15 15 17 19 15 15 18 15 18 18 19 15 14 14 15 15 14 13 14 14 14 14 14 14 14 14 14 14 15 15 15 15 15 15 15 15 15 15 14 14 14 14 14 14 13 13 13
18 17 14 16 18 19 15 15 15 14 15 18 17 15 13 14 14 14 14 13 13 13 12 13 13 13 14 14 14 15 15 15 15 15 15 15 15 15 15 15 14 14 14 14 14 13 13 13 13
16 14 15 17 18 19 16 15 14 14 13 16 17 14 12 14 14 14 13 13 14 12 12 12 11 12 13 14 14 14 15 14 15 15 15 15 15 15 15 14 14 14 14 13 13 13 13 12 12
19 14 16 16 17 17 15 15 16 18 16 18 17 13 12 12 13 13 12 13 12 11 12 12 12 12 13 14 14 14 14 14 14 14 14 14 15 15 14 14 14 13 13 12 12 12 12 11 11
19 15 14 17 18 18 15 14 14 16 19 17 18 16 13 12 13 13 12 12 12 11 11 12 11 11 12 14 14 14 14 14 14 14 14 14 15 14 14 13 13 12 12 12 12 11 11 11 11
17 14 17 18 18 16 15 15 15 16 16 16 12 13 12 12 13 12 12 11 11 11 13 12 11 12 13 14 14 14 14 14 14 14 15 14 13 13 12 12 11 11 11 11 11 11 11 11 10
19 17 18 19 20 18 16 17 18 16 15 16 12 12 12 12 12 13 13 14 13 13 12 12 12 12 13 14 14 13 13 13 13 13 13 13 12 12 11 11 12 11 11 11 11 11 10 10 10
19 20 20 21 19 16 15 18 18 18 18 16 15 14 13 12 12 14 14 14 13 12 12 12 12 13 13 13 14 14 13 13 13 13 12 12 12 11 11 11 11 11 11 11 10 10 10 10 10
18 19 21 21 18 18 19 18 18 16 16 16 16 14 13 12 12 13 14 15 13 13 12 12 13 13 13 14 13 13 12 13 13 12 12 12 12 12 11 11 11 11 10 10 10 10 10 10 10
20 20 21 18 18 19 18 18 18 16 16 15 16 15 15 12 12 12 13 14 13 12 12 12 13 13 13 13 13 13 13 13 13 13 12 11 12 12 11 11 11 11 10 10 10 10 9 9 9
20 21 20 18 18 17 19 17 17 17 16 15 15 16 15 13 13 13 14 14 13 13 13 13 13 13 13 12 12 12 13 12 12 12 12 12 12 11 11 11 11 10 10 10 10 9 9 9 8
18 18 18 19 18 18 18 17 17 18 17 18 17 16 15 14 15 14 14 13 13 13 12 12 13 13 13 13 13 12 12 12 12 12 12 12 12 12 11 10 10 10 10 10 9 8 8 7 6
16 17 19 20 20 19 19 18 18 20 18 16 16 16 16 15 14 14 13 14 14 14 13 13 13 13 12 12 12 12 12 12 12 12 12 12 12 12 11 10 10 11 10 9 8 8 7 6 6
16 19 19 19 20 18 18 17 16 17 16 16 17 17 16 16 15 15 14 14 14 14 15 14 13 13 12 12 12 12 12 13 13 12 12 11 11 11 10 10 10 10 9 8 7 7 6 6 5
18 19 19 18 19 18 18 17 17 16 17 16 17 17 15 16 16 15 15 15 14 14 14 15 14 13 13 12 13 13 13 13 13 12 11 11 11 11 11 10 10 8 7 7 7 6 5 6 5
19 19 17 18 19 18 16 17 17 17 17 17 18 17 17 15 15 15 15 15 15 15 15 15 15 14 14 13 14 13 13 12 11 11 10 10 10 10 11 10 8 8 7 7 6 6 6 5 5
18 18 18 18 18 18 17 18 18 18 18 17 18 19 18 18 16 15 15 16 15 15 15 15 15 14 13 13 12 12 11 11 10 10 9 9 10 10 9 9 8 7 7 6 6 6 5 4 4
17 18 18 19 16 16 17 15 17 17 18 17 18 18 18 18 17 17 16 16 16 16 15 15 14 14 13 12 12 12 12 12 11 11 10 10 10 9 8 8 7 7 7 7 6 6 5 4 3
16 17 18 19 17 16 17 15 15 17 17 17 18 18 19 19 18 17 17 17 16 16 15 14 13 12 12 11 11 11 11 11 11 11 10 10 9 8 7 7 6 6 6 6 5 5 4 4 3
18 18 15 14 14 14 16 15 15 16 18 19 18 18 18 18 18 17 17 16 15 15 15 15 13 12 12 10 11 11 11 11 11 10 9 8 7 7 7 6 6 6 6 5 5 4 4 4 3
18 15 13 12 11 13 16 15 15 17 18 18 18 19 20 19 18 16 17 16 16 15 15 14 14 13 12 11 11 11 11 11 10 10 9 8 7 7 6 6 6 5 5 4 4 4 3 2 1
17 16 12 15 11 13 15 16 17 17 19 20 21 20 19 20 18 18 17 16 17 16 15 14 13 12 12 11 11 11 10 10 10 10 9 8 7 6 5 5 4 5 4 4 4 3 2 1 -0
18 16 16 12 12 9 14 17 17 17 19 18 18 18 18 19 19 17 17 17 16 15 15 14 13 12 12 11 11 11 10 10 9 9 8 7 6 5 4 4 4 3 4 4 3 2 1 -0 -1
17 17 15 13 14 14 15 16 15 17 19 17 16 17 17 18 18 17 17 16 16 16 15 13 13 13 13 11 11 11 10 9 9 8 7 6 6 5 4 3 2 2 3 3 2 1 -1 -1 -1
16 16 17 14 12 13 11 14 15 16 16 15 15 18 18 17 17 17 17 16 16 15 14 13 13 13 12 11 10 10 10 9 8 7 6 5 4 4 4 2 2 2 2 1 1 -0 -1 -2 -2
15 14 15 10 15 11 8 12 16 15 15 17 18 18 19 19 18 18 18 16 15 15 14 13 13 12 12 11 11 10 9 8 7 6 5 4 4 3 2 2 2 2 1 0 -0 -1 -2 -2 -3

GFSSGP_850_temp_051.txt.gz
Temp
17 17 17 18 14 11 14 15 18 19 19 18 18 18 17 15 17 17 15 15 16 15 15 15 16 17 16 16 17 16 15 16 16 16 16 16 16 15 15 15 15 14 14 13 13 13 13 14 14
18 17 17 17 12 13 14 15 18 18 18 18 18 17 16 16 15 14 14 15 15 15 14 14 15 16 16 16 16 15 15 16 16 16 16 16 16 15 15 15 15 14 14 13 13 13 13 13 13
17 17 18 12 10 13 15 17 16 18 18 18 17 16 15 14 15 14 14 15 14 14 14 14 15 15 15 16 15 15 15 16 15 16 16 15 15 15 15 15 14 14 14 14 13 13 13 13 13
17 17 17 15 14 16 17 14 15 17 18 17 16 14 14 13 15 14 15 15 14 14 14 14 14 15 15 14 14 15 15 15 15 15 15 15 15 15 15 14 14 14 14 14 14 13 13 13 13
18 17 14 14 17 17 15 14 16 14 14 15 15 14 13 14 15 15 14 14 14 14 14 13 14 14 14 14 15 15 15 15 15 15 15 15 15 14 14 14 14 14 14 14 14 14 13 13 12
17 16 13 15 17 18 15 15 15 14 15 16 16 14 12 13 14 14 14 13 13 13 14 13 13 13 13 14 15 15 16 15 15 15 15 15 15 14 14 14 14 14 14 14 14 14 13 13 12
15 13 14 16 17 18 16 15 15 15 16 18 18 12 12 13 13 13 13 13 12 12 12 11 12 11 13 14 14 15 15 15 14 15 15 15 14 14 14 14 14 13 14 13 13 14 13 13 12
18 13 16 16 17 17 15 15 14 15 15 17 15 12 12 12 13 13 13 13 12 12 12 11 11 12 13 14 15 15 14 14 14 14 14 14 14 14 14 13 13 13 13 13 13 13 13 12 12
18 13 14 16 16 18 15 15 16 16 15 16 14 14 13 12 12 12 12 11 11 11 12 10 11 12 11 13 14 14 14 13 14 14 14 14 13 13 13 13 13 13 13 13 12 12 12 11 11
15 13 16 16 18 17 14 15 16 15 13 11 12 12 12 12 12 12 12 12 12 11 11 11 12 12 12 13 14 14 13 13 14 14 13 13 13 12 13 13 13 13 13 12 12 12 11 11 11
17 16 17 18 19 17 15 14 16 15 15 12 12 12 11 12 12 13 12 11 12 12 12 11 12 12 13 13 12 13 13 13 13 12 12 12 12 12 12 12 12 12 12 12 11 11 10 10 10
17 18 19 20 18 16 14 17 16 16 16 16 12 12 12 12 14 14 12 11 11 12 12 12 13 13 12 12 13 12 13 12 12 12 12 12 12 12 11 11 12 12 11 11 11 10 10 10 9
17 18 19 19 18 18 17 17 17 13 13 14 12 11 12 13 14 15 14 12 12 13 12 12 12 12 12 13 12 12 12 12 12 12 12 12 12 12 12 12 11 11 11 10 10 10 10 9 9
19 18 16 17 17 18 17 16 17 12 13 13 14 12 13 13 15 13 13 13 13 13 13 13 12 13 13 13 12 12 12 12 12 12 12 12 12 12 12 11 11 11 10 10 10 10 10 9 9
19 18 16 16 17 18 19 18 16 13 13 13 11 11 12 13 14 14 13 14 14 14 14 13 13 13 13 12 12 12 13 13 12 12 12 12 12 12 11 11 10 10 9 9 10 9 9 8 8
17 17 16 17 17 18 18 17 15 14 14 12 12 11 11 13 14 14 14 15 13 13 13 13 13 13 13 12 12 12 12 12 12 12 12 12 11 11 11 10 10 10 9 9 9 9 9 8 7
14 16 17 18 17 16 16 17 16 14 14 13 14 13 12 14 13 14 14 15 14 14 13 12 13 13 13 12 12 12 12 12 12 12 11 11 11 11 10 10 9 9 9 9 9 8 8 7 6
15 16 18 18 19 17 16 17 14 15 15 14 15 14 13 14 14 14 14 14 14 13 13 13 13 13 12 12 12 12 12 12 11 11 11 11 11 11 10 9 9 9 9 9 8 8 7 6 6
15 16 18 19 18 18 16 16 16 15 16 15 15 15 15 14 15 14 14 13 13 13 13 13 13 13 13 12 12 12 12 11 11 11 12 11 11 10 10 9 10 9 9 8 8 7 6 6 5
18 17 17 17 18 17 15 16 16 14 15 16 16 15 15 15 14 14 14 13 13 13 13 12 12 13 13 13 12 12 12 12 11 11 11 10 10 10 10 10 10 9 9 8 7 6 6 6 5
17 17 16 17 17 17 15 15 16 15 16 16 16 17 16 16 15 14 14 14 14 14 14 14 14 14 13 13 12 12 11 11 11 11 11 10 10 10 10 9 8 8 7 7 6 6 6 5 5
16 17 17 17 16 15 16 15 16 15 15 15 16 15 16 15 16 16 15 15 15 15 15 15 14 14 13 13 12 12 12 12 12 12 11 10 10 9 9 8 7 7 7 6 6 5 5 4 4
16 17 16 17 16 16 16 14 14 15 15 16 16 16 16 17 17 16 16 17 16 15 14 14 13 13 13 12 12 12 11 12 12 12 11 10 9 8 7 7 7 7 7 6 6 5 4 4 3
18 17 15 13 14 13 16 14 14 15 16 17 17 17 16 16 16 16 17 15 15 15 15 14 14 13 12 12 12 12 11 12 11 11 10 9 8 8 7 7 6 5 5 6 5 4 4 4 3
16 14 12 12 11 13 15 14 14 17 16 16 16 17 17 17 16 15 15 15 15 15 15 14 14 14 14 12 11 11 11 11 11 10 10 9 8 7 7 6 5 4 4 4 3 3 3 3 2
16 14 11 15 11 12 14 14 16 17 16 18 18 18 18 17 17 17 16 16 16 16 15 15 14 14 14 13 11 10 11 11 10 10 10 9 9 8 7 5 5 3 3 2 2 3 2 1 1
17 15 15 11 10 9 12 14 16 16 18 16 17 18 18 18 17 17 17 17 17 16 16 16 15 15 13 12 11 11 11 10 10 10 9 9 8 6 5 4 3 3 2 2 2 2 1 0 -0
17 16 14 12 14 14 13 14 14 16 17 17 12 15 18 19 18 17 17 17 17 16 16 16 15 15 13 12 11 11 10 10 10 10 9 8 6 6 4 4 3 1 1 1 2 1 -0 -0 -0
15 15 15 13 10 12 11 13 13 15 16 16 16 17 17 17 17 17 18 17 17 16 16 16 15 14 13 12 11 11 10 10 10 9 8 7 5 4 5 4 1 1 2 2 1 1 0 -0 -1
16 15 14 10 14 10 8 12 15 14 14 15 18 19 19 19 19 19 18 17 16 16 16 15 14 14 13 13 12 12 10 10 9 8 7 6 5 4 2 1 1 1 1 2 1 0 -0 -1 -2

GFSSGP_850_temp_054.txt.gz
Temp
18 18 18 18 14 11 13 14 15 17 17 17 18 17 16 15 16 16 14 14 16 15 15 15 15 15 16 17 17 16 17 17 17 16 16 16 15 15 15 14 14 13 13 13 14 14 14 13 13
17 18 18 17 12 13 13 14 16 16 17 17 17 16 15 15 15 14 13 14 15 15 14 14 15 15 16 16 16 16 16 17 16 16 15 15 15 15 15 14 14 13 13 13 13 14 14 13 13
17 18 18 11 10 12 14 16 14 16 16 16 16 15 14 14 14 14 14 15 15 14 14 14 14 15 15 15 15 16 16 16 16 16 15 15 15 15 14 14 13 13 13 13 13 13 13 12 12
17 17 16 12 14 15 15 15 14 15 16 16 15 13 14 14 14 14 14 15 15 14 14 14 14 14 15 15 15 16 16 15 15 15 15 15 14 14 14 14 13 13 13 13 13 13 13 12 12
17 16 11 13 15 16 15 14 14 14 15 15 15 13 13 14 14 14 14 14 14 14 13 13 14 14 14 15 15 16 16 16 15 15 14 14 14 14 14 14 13 13 13 13 13 13 12 12 12
16 15 11 13 15 17 15 15 15 14 14 14 15 13 13 13 14 14 14 14 13 14 13 13 12 12 13 14 15 15 15 15 14 15 14 14 14 14 14 14 14 14 13 13 13 12 12 12 12
14 11 13 15 16 17 16 15 15 14 14 15 16 12 12 13 13 14 14 13 13 13 13 13 12 11 11 14 14 15 15 14 15 14 14 14 14 13 14 14 14 14 14 13 12 12 12 12 11
17 11 15 15 16 17 15 15 15 15 15 15 14 12 12 12 13 13 13 13 13 13 13 11 10 9 11 13 14 13 13 14 14 14 14 13 13 13 13 13 13 13 13 13 13 12 12 11 11
16 11 12 15 18 17 14 15 15 15 14 13 13 13 13 12 13 12 12 13 13 13 12 12 12 10 9 11 13 13 14 14 14 13 13 13 13 12 13 13 13 13 13 13 13 12 11 11 11
14 11 14 16 17 17 15 15 16 15 12 12 12 12 13 12 12 12 11 11 11 12 11 11 10 11 12 12 13 13 14 13 13 13 12 12 12 12 13 13 13 13 13 12 12 11 11 11 11
14 14 15 17 19 18 14 14 15 14 13 12 12 12 12 12 12 11 11 11 11 11 11 11 11 12 12 12 13 14 13 13 12 12 12 12 12 12 12 13 13 12 12 11 11 11 11 10 10
16 16 18 18 18 15 13 16 15 15 16 16 12 12 12 12 11 11 11 11 11 11 10 11 12 13 13 13 13 13 13 13 12 12 12 12 12 12 12 12 12 12 11 11 11 10 10 10 10
15 17 18 18 17 17 16 16 15 11 13 13 12 11 13 12 12 11 10 11 11 11 12 12 13 13 13 13 13 13 13 12 11 11 11 11 12 12 12 12 11 11 11 10 10 10 10 10 10
18 17 15 15 16 16 16 15 16 11 11 12 12 14 14 14 13 11 11 11 11 11 12 13 13 13 13 12 12 12 12 12 12 11 11 12 12 12 11 11 11 11 10 10 10 9 9 10 9
18 18 16 16 16 16 17 14 14 12 11 11 14 13 13 13 13 13 13 13 13 12 12 13 13 12 12 12 12 12 12 12 12 12 11 11 12 11 11 11 11 10 10 9 9 9 9 9 9
16 16 16 16 16 15 17 16 12 11 11 11 12 12 13 14 14 13 13 13 12 12 13 12 13 12 12 12 12 12 12 12 12 11 11 11 12 12 11 11 10 10 9 9 9 9 9 8 8
13 15 17 17 16 16 16 17 12 11 11 11 11 12 14 13 14 14 14 14 13 13 13 13 13 13 12 12 12 12 12 12 11 11 12 12 11 11 11 10 10 9 9 9 9 9 8 8 7
15 16 15 17 16 17 15 15 12 12 12 11 11 12 14 14 15 14 14 13 14 13 13 13 13 13 13 12 12 11 11 11 11 11 11 11 11 11 11 10 9 9 9 9 8 8 7 6 6
15 15 15 16 18 18 15 15 12 12 13 13 12 12 13 14 16 15 14 14 13 13 13 13 13 13 12 12 12 11 11 11 11 12 10 11 11 11 10 9 9 9 9 8 8 7 6 6 5
16 17 16 16 16 16 15 15 14 13 13 14 13 12 13 14 14 15 15 14 14 14 14 13 13 12 13 13 12 12 12 12 12 11 11 11 11 10 10 9 9 9 8 7 7 6 6 5 5
17 17 16 16 16 16 15 15 15 14 14 14 14 15 14 15 16 15 15 16 15 15 15 14 14 13 13 13 13 12 11 11 12 11 11 11 10 10 9 9 8 8 7 7 6 6 6 5 5
17 17 16 16 16 14 15 14 15 14 13 14 15 15 15 16 16 16 15 15 16 16 15 14 13 13 13 13 13 12 12 13 12 12 11 11 10 9 8 8 7 7 7 6 5 5 4 4 4
16 16 16 16 15 15 15 13 14 14 14 13 14 15 16 17 17 16 16 17 16 15 15 14 14 13 13 12 12 12 12 12 11 10 11 10 9 8 7 7 7 6 6 5 4 4 4 4 4
16 15 13 12 12 13 15 13 13 14 14 15 15 15 16 17 17 16 16 16 16 15 15 14 14 14 13 13 13 12 12 11 10 10 10 10 9 8 7 7 6 6 5 5 4 5 3 3 3
15 13 12 12 11 13 14 14 13 15 16 15 14 16 17 17 17 17 16 16 15 16 15 15 14 14 14 12 12 12 12 10 9 10 10 10 9 8 8 7 7 6 5 5 4 3 3 2 3
16 14 11 15 11 13 13 14 16 16 16 17 17 17 17 17 17 17 17 17 16 16 16 16 15 15 14 13 12 11 12 10 9 10 10 10 10 9 8 6 5 4 4 3 3 2 2 2 2
15 14 14 11 9 9 12 13 15 15 17 16 16 15 17 17 17 17 18 17 17 17 17 17 16 15 15 14 12 11 11 9 10 10 10 10 9 8 7 6 5 3 4 3 2 2 2 2 1
16 14 14 11 14 13 12 13 13 15 15 15 14 16 15 15 16 17 17 17 17 17 17 16 16 16 15 14 12 12 11 10 10 10 10 10 9 8 7 5 4 5 3 1 -1 1 2 1 -0
14 14 12 12 10 12 10 12 12 15 15 16 15 17 18 17 17 17 18 17 17 16 16 16 15 15 15 14 12 12 12 11 10 10 9 8 8 7 5 4 5 3 1 1 0 1 1 -0 -1
14 13 12 10 13 9 7 10 14 13 13 15 17 18 18 18 19 19 18 18 17 17 17 16 16 15 15 14 13 13 11 11 11 10 9 8 7 6 5 5 3 2 0 -1 -0 0 0 -1 -2

GFSSGP_850_temp_057.txt.gz
Temp
18 18 18 17 19 17 18 19 17 20 20 16 16 18 19 15 17 18 14 14 14 15 14 15 15 16 16 16 16 16 16 17 17 17 17 16 15 15 15 15 15 14 14 14 14 13 13 13 13
18 17 17 17 18 18 20 17 19 19 17 17 16 16 17 17 14 14 14 14 14 14 14 14 15 15 15 16 16 16 17 17 17 16 16 15 15 15 14 14 14 14 14 14 14 14 13 13 13
17 17 17 17 15 19 19 18 18 16 15 16 15 14 14 14 14 14 15 14 15 14 14 14 14 14 15 15 16 16 17 17 16 16 15 15 14 14 14 14 14 14 14 14 14 14 13 13 12
17 17 15 17 17 18 18 18 15 16 16 16 14 15 13 13 14 15 15 14 14 14 14 14 13 14 15 15 16 16 17 16 16 15 15 14 14 14 13 13 14 14 14 14 14 13 13 12 12
17 16 17 16 17 18 17 16 15 16 16 16 15 14 15 14 14 15 14 14 14 14 13 13 14 14 14 15 16 17 16 16 15 14 15 14 14 14 13 13 13 13 13 13 13 13 12 12 12
16 15 17 17 17 18 18 15 15 15 15 14 15 14 13 13 14 14 14 14 14 13 13 13 13 11 11 12 14 16 16 16 14 15 14 14 13 13 13 13 13 13 13 13 12 12 12 11 11
16 16 17 16 18 18 18 14 16 16 15 16 14 15 12 13 14 13 13 13 13 13 13 12 10 10 10 9 12 15 15 14 14 14 14 13 13 13 13 13 13 13 13 12 12 12 11 11 11
16 17 16 17 18 19 17 15 15 15 16 14 14 15 13 12 13 13 13 14 13 12 13 12 12 12 11 8 11 14 14 14 14 14 13 13 13 13 12 13 13 12 12 12 12 11 11 11 11
16 17 17 17 18 19 15 16 14 14 14 13 13 13 13 12 13 13 12 12 13 12 12 12 11 11 12 10 10 12 12 13 13 13 13 13 13 13 13 13 12 12 12 12 11 11 12 11 11
17 17 18 18 19 19 15 16 16 15 13 12 12 12 12 12 12 12 12 11 12 11 11 12 12 12 10 10 10 10 11 13 14 13 13 13 13 13 13 13 12 12 12 11 11 11 11 10 10
14 18 17 18 18 17 17 15 16 16 16 14 12 11 12 12 12 11 12 10 11 11 11 11 10 10 10 11 10 11 13 13 13 13 12 12 13 12 12 12 12 12 11 12 11 11 10 10 11
17 17 17 18 18 16 16 15 15 15 15 15 14 12 12 12 11 11 11 11 10 10 10 10 10 12 12 12 13 13 13 13 13 13 13 12 12 12 12 12 11 12 12 11 10 10 10 10 10
16 18 17 17 16 15 15 15 15 13 14 14 12 11 12 11 11 11 11 11 10 9 10 10 11 11 11 12 13 13 13 13 13 13 12 12 12 12 12 12 11 11 11 10 10 10 10 10 10
17 17 16 15 14 15 16 15 14 12 11 11 12 11 11 11 11 11 11 11 11 10 10 11 11 11 12 13 13 13 13 13 12 12 12 11 11 11 11 11 11 11 10 10 10 10 10 10 10
17 17 17 16 16 16 16 17 16 12 11 11 11 11 12 11 11 11 12 11 12 12 11 12 12 13 13 13 13 12 12 12 12 12 11 11 11 11 11 11 11 11 10 10 9 9 9 9 9
17 17 18 17 17 15 16 18 14 11 12 12 11 11 11 12 12 11 11 12 11 12 12 12 12 13 12 13 13 12 12 12 11 11 11 12 12 11 12 11 10 10 10 10 9 9 9 8 8
16 18 17 18 17 17 17 18 14 11 11 12 11 12 11 10 11 12 13 13 13 12 13 12 12 12 12 12 12 12 12 11 11 11 12 12 12 12 11 11 10 10 9 9 9 9 9 8 8
17 17 17 18 18 17 17 18 14 11 11 13 13 12 12 11 12 13 13 13 13 13 12 12 12 12 12 12 12 12 11 11 11 11 11 11 11 12 11 10 10 9 9 9 9 9 8 8 7
16 16 17 17 18 18 18 18 16 12 12 13 13 12 13 15 13 14 14 13 13 13 13 12 13 13 12 12 12 11 11 12 11 11 12 12 11 11 11 10 10 9 9 8 8 8 7 7 6
17 17 17 17 17 17 16 18 16 13 13 13 14 13 14 14 15 14 14 14 13 14 14 13 13 13 13 13 13 12 12 12 11 11 11 12 10 10 10 10 9 9 8 8 7 7 6 5 5
17 17 17 17 17 16 17 18 16 14 14 13 13 14 14 15 15 14 14 15 14 14 14 14 14 13 12 12 13 13 12 11 11 11 11 11 10 10 10 9 9 8 8 7 7 6 6 5 5
17 17 17 17 17 18 17 18 16 16 15 15 15 14 14 13 16 16 15 15 15 15 15 15 14 13 13 12 12 12 12 12 12 12 12 11 10 10 10 9 8 8 7 7 7 6 5 5 4
17 16 17 16 16 16 15 17 19 15 17 16 16 15 15 15 16 17 17 16 16 15 15 15 14 14 13 13 12 12 12 12 12 12 11 9 9 10 9 8 7 7 7 7 6 5 5 4 5
16 16 15 14 15 16 16 17 19 18 18 17 17 16 15 17 17 17 17 16 17 16 16 16 15 15 14 13 13 12 12 12 12 11 10 9 9 9 8 8 7 7 7 6 5 5 4 3 3
16 16 16 15 15 16 15 15 18 18 17 18 18 17 16 16 17 18 18 17 17 17 16 16 16 15 14 14 13 12 12 11 11 10 10 9 9 8 8 8 7 7 6 5 4 3 2 2 2
16 16 16 15 15 16 14 16 20 17 17 16 16 16 16 16 17 18 19 19 18 18 17 17 17 16 15 14 13 13 12 12 11 10 10 9 9 9 8 8 7 6 6 5 4 4 2 1 1
16 16 15 13 10 13 15 16 18 17 17 16 16 17 17 16 15 17 17 18 18 18 18 18 17 16 15 15 14 14 13 12 11 10 9 9 9 9 8 8 7 6 5 5 4 4 1 1 1
16 15 15 14 14 14 15 15 18 18 18 17 17 16 18 17 17 16 16 16 17 17 17 16 16 15 15 14 14 14 12 11 10 9 9 9 8 8 8 7 7 5 4 3 3 1 1 0 1
15 15 13 14 14 15 14 16 16 17 17 17 16 16 17 19 18 18 17 16 16 16 16 16 15 15 14 14 14 13 12 11 10 10 9 8 8 8 7 6 4 2 3 2 1 0 1 1 0
15 16 15 15 14 11 12 15 16 15 15 14 15 17 18 19 19 19 18 17 17 17 17 16 15 15 14 14 13 13 11 11 11 11 11 9 8 8 6 5 3 3 3 2 1 1 0 -0 -0

GFSSGP_850_temp_063.txt.gz
Temp
18 19 19 21 23 24 24 26 28 27 27 25 24 24 26 26 23 17 13 18 17 16 15 17 15 15 15 15 16 16 16 16 16 16 16 16 16 16 16 15 14 14 14 14 14 14 14 13 13
18 19 20 22 23 23 25 27 26 26 25 24 23 23 24 25 21 17 16 17 16 15 14 14 15 14 15 15 15 16 16 16 16 16 16 16 16 15 15 15 14 13 14 14 14 14 13 13 13
18 19 21 24 24 24 25 24 26 26 24 23 24 22 22 23 20 19 17 16 16 15 14 14 15 14 15 15 15 15 15 16 16 16 16 16 15 15 15 14 14 13 14 14 13 13 13 13 13
19 21 22 23 23 25 25 26 26 25 24 23 24 23 21 17 16 14 15 16 16 15 14 14 14 14 14 14 14 15 15 16 15 15 15 15 15 15 15 14 13 13 14 13 13 13 13 13 13
20 22 23 24 24 26 26 25 24 24 25 24 23 23 22 16 15 15 15 15 15 14 14 13 13 14 13 13 14 14 15 15 15 14 14 14 14 14 14 14 14 14 13 13 13 13 12 12 12
22 23 23 24 24 25 25 24 22 23 23 22 22 22 20 14 14 14 14 14 15 15 14 13 12 12 12 12 12 12 13 13 13 14 14 14 14 14 14 14 14 13 13 13 12 12 12 12 12
22 24 24 24 24 24 25 23 23 23 22 23 22 23 17 14 13 13 15 14 13 13 14 13 12 11 10 9 10 11 11 12 12 13 14 14 14 14 14 13 13 13 13 12 12 12 12 12 12
22 24 23 24 24 24 23 23 21 22 22 20 21 22 21 13 13 13 13 13 13 14 13 13 13 13 12 12 10 10 11 12 13 13 14 14 14 13 13 13 13 13 12 12 12 12 11 12 12
22 23 23 24 24 24 22 23 20 20 20 20 20 19 14 14 13 12 12 12 13 11 11 11 11 11 11 11 11 10 10 11 12 13 14 14 13 13 12 13 12 12 12 12 12 11 12 12 11
23 24 24 25 25 24 25 24 23 21 22 21 18 14 13 12 12 12 12 12 11 11 11 11 11 10 12 10 9 10 9 11 12 12 12 13 12 12 12 12 12 11 11 11 11 11 11 10 10
24 23 25 24 24 24 25 24 23 21 21 18 20 13 11 11 12 11 10 11 11 11 10 10 10 10 10 10 10 9 9 11 12 11 13 13 11 11 12 12 11 11 11 11 11 10 10 11 10
23 24 24 24 24 23 24 24 23 23 21 19 17 13 12 11 11 11 10 10 10 10 9 9 10 10 9 9 9 9 11 11 12 13 13 11 10 11 12 10 10 11 10 10 9 10 11 11 11
23 24 24 24 24 23 23 23 24 23 20 17 13 12 12 12 11 11 10 10 10 9 9 9 9 9 8 8 9 10 11 11 11 12 12 11 10 10 10 10 10 10 10 9 9 10 11 11 11
24 23 24 24 23 23 23 24 22 22 19 15 13 12 11 11 12 11 10 10 9 9 8 8 8 8 9 10 10 11 11 11 12 12 11 10 10 10 10 10 10 10 9 9 9 9 10 9 8
22 23 24 24 24 24 23 23 14 20 18 16 15 14 13 12 12 11 10 10 10 9 8 8 8 9 10 10 10 11 11 11 10 10 10 10 10 10 10 10 10 9 10 9 9 10 9 9 9
23 23 23 23 25 24 23 15 14 21 19 17 17 16 15 15 16 12 10 10 9 9 9 9 10 10 10 11 11 11 11 11 11 11 10 11 11 12 11 10 10 10 10 10 9 9 9 9 9
23 22 21 21 25 24 24 19 17 22 21 20 19 18 16 15 17 15 12 13 11 11 11 11 11 11 11 11 11 11 11 11 11 11 11 10 12 10 11 10 10 11 10 9 9 9 9 9 9
23 23 23 24 22 24 23 24 21 22 22 22 20 19 18 17 17 15 14 14 13 13 12 12 11 11 11 11 11 11 11 11 12 11 12 11 11 11 11 11 11 11 9 10 9 9 9 9 9
23 23 23 24 24 23 23 23 24 23 22 22 21 20 18 18 17 16 15 14 14 13 12 12 12 11 12 12 12 12 12 12 12 12 12 11 11 11 11 10 10 11 9 9 8 8 8 8 8
22 23 23 24 24 23 23 23 23 25 23 23 22 21 20 19 18 16 15 14 14 13 13 13 13 12 12 12 13 13 13 13 12 12 12 10 10 11 12 10 9 11 9 8 8 8 8 8 7
22 22 21 22 22 24 23 23 24 24 23 22 22 21 20 20 19 17 16 15 14 14 14 14 14 13 13 13 13 13 13 13 12 12 12 11 10 11 11 10 9 10 10 9 9 7 8 8 7
21 23 23 22 22 21 22 20 21 24 23 23 22 21 20 20 19 18 17 15 15 15 14 14 14 14 14 13 14 13 13 13 13 12 12 11 10 11 11 10 9 9 9 9 8 7 7 7 8
22 22 22 22 22 22 23 22 20 24 24 24 23 21 21 21 20 20 18 17 16 15 15 14 14 14 14 13 13 13 13 13 13 12 12 11 10 10 10 9 9 9 8 8 8 7 6 7 7
23 22 22 22 22 20 21 22 21 23 24 25 25 23 22 22 21 21 20 19 17 16 15 15 14 14 14 14 13 13 13 12 13 13 12 10 10 10 11 10 10 9 9 8 7 6 6 6 7
22 21 20 19 17 19 21 22 22 22 25 25 25 25 23 22 21 21 21 20 18 17 16 15 14 15 14 14 13 12 12 12 13 13 10 10 10 10 10 10 10 10 8 7 5 5 5 6 5
21 22 20 17 18 16 22 21 23 25 25 24 24 23 23 23 22 21 21 20 19 18 17 16 15 15 14 13 13 13 12 12 12 12 13 11 12 10 9 8 9 8 6 5 5 5 6 6 4
22 21 22 20 20 19 22 23 25 25 24 24 24 23 23 23 22 22 22 20 20 19 18 16 16 15 15 14 13 13 12 12 12 11 12 12 11 11 10 9 9 8 7 4 5 5 5 4 4
21 23 20 21 18 18 21 22 22 23 23 24 24 24 23 22 22 22 21 21 20 20 19 17 16 15 15 15 13 12 12 11 11 11 11 11 12 10 10 9 8 8 6 4 5 5 4 2 3
21 20 21 20 19 19 19 22 24 24 24 23 24 23 23 22 21 20 20 21 21 20 19 17 16 15 15 15 14 12 11 12 11 10 10 9 10 10 9 8 8 6 5 5 4 3 2 2 2
23 21 22 19 20 20 20 21 24 24 24 24 23 23 22 22 21 20 19 19 19 19 19 17 16 15 15 15 14 13 11 11 10 10 9 9 9 9 8 8 7 6 6 5 5 1 1 1 1

GFSSGP_850_temp_066.txt.gz
Temp
19 19 20 20 21 22 22 24 26 27 27 20 22 20 18 25 25 22 19 20 19 14 14 16 16 15 15 16 16 16 16 16 16 16 17 17 16 15 14 14 14 14 14 14 14 14 14 14 14
19 19 20 21 21 21 23 26 26 27 26 23 23 22 23 25 21 20 20 19 16 16 15 16 16 15 15 16 16 16 16 16 16 16 17 16 16 15 13 14 14 14 14 14 14 13 13 13 13
19 20 21 22 22 22 24 25 26 27 26 25 25 23 24 22 19 17 16 17 16 15 15 16 16 15 15 15 15 15 15 15 16 16 16 16 15 14 13 14 14 14 14 14 13 13 13 13 13
19 21 22 22 23 25 25 26 27 26 24 18 18 21 21 14 16 16 16 16 16 15 15 16 15 15 15 15 15 15 15 15 16 16 15 15 15 14 13 14 14 14 14 13 13 13 13 13 13
20 22 23 23 24 26 26 26 25 19 17 15 15 18 12 11 14 15 16 16 15 14 15 14 14 14 14 14 14 14 14 15 15 15 14 14 14 13 13 13 14 14 13 13 13 13 13 13 13
22 23 22 23 25 25 26 26 25 18 19 16 13 14 13 13 13 14 15 14 16 16 14 15 14 13 14 13 13 12 14 14 14 14 13 13 14 13 13 14 14 13 13 13 13 13 13 13 13
22 23 23 24 24 25 24 24 24 24 23 18 18 15 13 12 13 14 13 13 13 13 15 15 16 14 11 10 10 10 13 14 14 14 13 14 14 14 14 14 14 13 13 13 13 13 13 13 13
23 23 23 24 24 23 22 23 23 23 23 22 20 19 13 14 13 13 13 13 13 12 13 14 16 14 12 11 10 10 12 14 14 13 13 13 14 14 13 13 13 13 13 12 12 12 12 12 12
23 22 22 24 24 22 21 22 23 22 22 18 13 14 12 13 12 12 13 12 13 12 12 13 12 14 13 12 11 11 11 12 12 12 13 13 13 13 13 13 13 12 12 12 12 12 12 12 12
23 22 23 25 25 25 25 24 25 22 16 14 18 13 12 12 12 12 12 11 11 11 11 12 13 12 11 10 11 11 9 10 11 12 12 13 13 13 12 12 12 12 12 12 11 11 11 11 11
24 23 25 25 25 25 25 25 24 24 15 15 14 14 11 12 11 11 11 11 11 11 11 11 11 11 10 11 10 10 10 10 11 12 12 13 13 13 12 12 12 12 11 11 11 11 11 10 11
23 24 24 25 25 24 25 24 24 22 18 19 16 12 12 12 11 11 11 11 11 10 10 10 10 10 9 10 9 10 10 10 11 11 13 13 14 12 12 12 11 11 11 11 11 11 10 10 11
24 24 24 24 24 24 24 24 24 17 17 16 14 12 12 12 11 11 11 10 10 10 10 10 9 9 10 10 8 9 9 10 11 12 12 14 13 12 12 11 11 11 11 11 9 10 10 11 11
24 24 24 24 24 24 24 23 19 15 12 15 14 13 12 12 11 10 10 10 10 9 9 9 9 9 9 8 8 9 9 11 11 12 11 13 12 12 11 10 11 10 10 10 10 10 10 10 11
23 23 24 24 24 24 24 23 17 16 14 15 14 13 13 12 12 11 11 10 10 9 9 8 8 8 8 8 9 10 10 11 11 10 11 11 11 11 10 10 10 10 10 10 9 9 9 10 9
23 23 22 24 25 24 24 21 17 18 16 17 17 15 14 14 13 11 10 10 9 9 9 9 9 9 9 9 10 10 11 11 10 11 11 12 11 11 10 10 10 10 10 10 9 10 10 9 9
22 21 23 24 24 24 23 19 15 17 16 15 19 18 17 16 13 12 10 10 9 9 9 9 9 9 10 10 10 10 11 11 11 11 12 12 11 11 11 10 10 10 10 10 10 10 9 9 9
22 22 23 23 23 24 24 16 14 17 17 16 20 18 17 16 14 14 11 10 10 10 10 10 10 10 10 11 11 11 11 12 12 12 11 11 12 11 11 10 10 11 10 10 10 9 9 9 9
24 23 23 23 24 24 23 23 19 17 20 21 21 19 18 18 16 14 13 13 12 11 11 11 11 11 11 11 11 11 11 11 11 12 11 11 11 12 11 12 11 11 10 9 10 9 9 9 9
22 22 23 24 24 23 23 23 21 21 23 23 22 21 20 19 17 15 15 14 13 12 12 12 12 12 11 11 11 12 11 12 12 12 12 12 11 12 11 11 10 10 10 9 9 9 9 9 8
22 22 22 21 23 24 23 23 23 24 24 24 23 22 20 20 18 16 15 14 14 13 12 12 12 12 12 12 12 12 12 12 12 12 12 12 12 12 10 11 10 10 11 10 9 9 10 9 8
21 24 23 23 22 21 22 19 21 23 24 23 23 23 21 20 19 17 16 14 14 14 13 13 13 12 12 13 13 13 13 13 13 12 12 12 12 11 10 10 10 9 10 10 9 9 9 8 8
22 23 22 23 22 22 22 19 22 23 23 23 23 22 21 20 20 18 17 16 15 14 14 13 14 14 13 13 14 14 14 13 13 13 13 12 11 11 10 9 9 9 9 9 9 7 8 8 8
24 23 22 22 21 19 22 20 20 22 22 25 24 22 22 21 20 20 18 17 16 15 15 14 14 14 14 14 14 14 13 13 13 13 13 12 12 12 11 10 10 12 11 9 9 7 6 7 7
22 21 19 18 18 19 22 22 22 21 23 24 25 23 22 22 22 21 20 18 17 16 15 15 14 14 15 15 14 14 14 13 13 13 13 12 12 13 14 12 11 10 10 9 8 6 7 5 5
21 21 19 16 13 16 18 21 23 24 25 25 24 24 24 23 22 22 21 19 18 17 16 15 15 14 15 15 14 14 14 13 13 13 13 13 13 13 13 11 10 9 10 9 7 6 5 5 5
22 20 22 16 16 15 16 22 24 25 25 25 24 24 24 24 23 22 22 21 20 18 17 16 15 15 15 15 15 14 15 13 14 12 12 13 13 12 11 10 9 9 9 8 7 6 5 5 5
22 23 20 20 14 18 21 22 22 23 24 24 24 24 23 23 23 23 22 21 21 20 18 17 16 16 15 15 15 14 14 13 13 12 12 13 13 10 9 9 9 9 8 7 6 5 5 5 4
21 20 21 22 21 18 18 19 19 22 24 24 24 23 23 23 22 21 22 22 21 20 19 18 17 16 16 15 15 14 13 13 14 14 14 12 10 10 9 9 9 8 8 7 6 5 5 5 3
23 21 21 19 19 19 17 19 20 21 24 24 24 23 23 22 22 21 20 21 21 21 20 19 17 17 16 16 15 15 14 14 14 12 11 10 10 9 9 9 8 8 7 6 5 5 4 3 2

GFSSGP_850_temp_069.txt.gz
Temp
19 19 19 19 15 14 15 17 20 21 22 22 21 22 21 21 21 17 16 17 17 19 19 16 14 16 16 17 17 17 17 16 16 17 17 17 17 15 15 15 14 14 15 15 14 14 14 13 12
19 19 18 19 14 13 16 19 21 21 21 21 22 22 22 17 17 17 14 16 18 18 19 20 15 12 16 16 16 16 16 16 16 17 16 16 15 15 14 14 14 14 15 14 14 14 14 13 12
19 19 18 15 14 15 17 20 22 19 18 17 17 19 15 11 15 15 16 16 16 17 16 16 17 15 15 16 17 16 16 16 16 16 16 14 14 14 14 14 14 15 14 14 14 14 13 13 12
19 19 19 16 15 17 19 20 19 20 20 18 18 15 14 13 15 13 15 15 16 16 15 16 14 14 15 15 15 15 15 15 16 16 15 14 14 14 14 14 15 14 14 14 14 14 13 13 12
18 19 14 15 17 19 21 23 22 18 18 15 19 14 14 15 15 16 16 16 16 17 16 16 14 14 14 14 15 15 15 15 16 15 14 13 13 14 14 14 14 14 14 14 14 14 13 13 13
18 20 15 16 18 21 22 24 22 20 19 16 17 15 13 14 17 17 16 16 17 16 17 17 16 13 13 10 14 14 15 16 16 15 14 13 14 14 14 14 14 14 14 14 14 13 13 13 13
17 14 14 16 19 21 22 23 21 21 19 17 16 14 14 15 16 16 16 14 16 16 16 15 15 17 15 10 12 10 11 13 14 14 13 13 13 14 14 14 14 13 13 13 13 13 13 13 12
20 16 16 18 19 19 21 23 23 22 15 15 15 14 13 13 14 17 13 12 13 13 13 13 13 13 12 12 11 9 9 12 13 13 13 13 13 13 14 14 13 13 13 13 13 13 13 13 12
20 16 16 18 20 22 22 21 22 22 19 16 15 14 14 13 12 12 12 12 12 12 11 12 13 13 13 12 11 10 8 12 12 12 13 13 13 13 13 13 13 13 12 13 12 12 12 12 12
18 14 17 20 21 22 22 22 22 20 16 14 11 11 12 11 11 11 11 11 11 11 12 11 12 13 12 10 10 10 9 10 12 12 13 12 13 13 13 13 12 12 12 12 12 12 12 11 12
20 18 20 21 24 23 22 23 19 17 13 9 14 11 12 12 11 11 11 11 11 11 10 11 11 10 12 11 11 10 9 10 10 11 12 13 13 13 13 13 12 12 12 12 12 12 12 12 11
19 21 22 23 24 23 22 22 11 11 10 14 13 13 12 12 12 11 11 10 10 11 10 10 10 10 11 10 11 10 9 11 11 12 13 13 13 13 13 13 12 12 11 11 11 11 11 11 11
20 20 23 24 24 23 24 16 15 12 18 18 14 12 12 13 12 11 10 10 10 10 10 10 10 10 10 10 9 10 10 10 11 12 12 13 13 13 14 12 12 12 11 11 11 11 11 11 11
22 21 22 23 23 23 22 17 19 13 17 17 14 12 12 12 11 10 10 10 10 10 10 10 10 10 10 10 9 10 11 10 11 12 12 12 13 14 13 12 12 11 11 10 11 10 11 11 11
21 19 19 21 22 21 23 18 14 15 15 15 14 13 12 12 12 11 10 10 9 9 9 9 10 10 11 10 10 10 10 10 11 11 11 12 12 14 13 12 12 12 11 10 10 10 10 10 10
18 18 17 20 21 22 22 17 15 16 15 14 15 13 13 12 12 10 10 10 9 9 9 9 9 9 9 9 10 10 10 10 11 12 11 13 13 13 12 12 11 11 10 10 10 10 10 10 10
17 16 17 19 22 22 20 14 15 15 15 15 15 14 14 13 11 10 10 10 9 9 9 9 9 9 8 9 10 10 10 11 10 11 12 12 12 12 11 11 11 10 10 10 10 10 10 10 9
16 18 19 18 21 22 18 16 15 16 16 16 14 15 15 13 13 12 11 10 10 9 9 10 10 9 9 10 10 10 10 11 11 12 12 12 12 12 12 11 11 11 11 10 10 10 10 10 9
19 19 19 20 22 21 20 16 15 16 16 14 15 14 14 15 14 12 13 10 9 9 9 11 10 10 10 10 10 11 11 11 12 11 12 12 12 13 12 11 11 10 11 10 10 10 9 9 9
20 19 18 21 22 22 20 19 16 15 15 15 14 14 14 13 13 11 12 11 10 11 10 11 11 10 11 11 11 10 11 11 11 11 11 12 13 12 12 12 11 11 11 10 10 10 9 9 9
20 19 18 19 21 20 20 18 16 18 18 17 16 16 17 14 12 12 13 12 12 12 12 11 11 10 10 11 10 11 11 11 12 12 12 12 12 11 11 11 11 11 11 11 10 10 9 9 9
19 20 21 20 19 17 19 16 19 20 19 19 19 17 17 14 14 13 13 13 12 12 12 12 11 11 11 11 11 12 11 12 12 12 12 12 12 12 11 12 12 12 11 11 10 9 9 8 8
20 22 21 20 18 18 18 15 17 18 19 19 18 18 18 16 15 14 14 14 14 12 12 12 11 11 11 11 12 12 12 12 12 12 12 12 12 12 12 11 11 11 10 9 10 10 9 8 7
22 21 20 20 17 15 18 16 15 17 19 20 19 19 19 17 16 16 15 15 14 14 13 13 12 12 12 13 12 12 13 13 12 12 12 12 12 12 12 12 12 12 11 11 10 9 8 8 7
20 19 14 13 12 13 18 17 17 19 20 20 20 19 20 20 17 16 15 15 14 14 14 14 13 12 13 13 13 13 13 13 13 13 13 13 12 12 12 12 12 11 11 9 9 8 9 9 7
18 17 13 15 12 14 16 17 18 20 21 23 22 21 21 20 20 18 17 16 16 15 14 14 14 13 13 13 13 14 14 14 13 13 13 13 13 13 13 12 11 10 9 9 9 8 8 7 6
19 17 18 13 14 12 14 17 21 20 21 21 23 21 21 20 20 19 18 18 16 16 15 15 14 14 14 14 14 14 14 14 14 13 13 13 13 13 12 12 11 10 9 9 9 8 8 7 6
19 20 17 15 11 12 16 17 18 17 19 20 21 22 22 21 21 21 19 18 18 18 17 16 16 15 15 14 14 14 14 14 14 14 14 13 13 12 11 10 10 10 9 8 8 8 7 6 5
18 18 18 17 14 13 13 15 17 17 20 20 18 22 22 22 22 21 21 20 20 19 18 18 17 16 16 15 15 14 14 14 14 13 12 12 12 11 12 10 9 9 8 9 8 8 7 5 5
20 18 17 13 16 15 11 14 19 17 20 19 21 22 22 22 22 22 21 20 19 19 19 18 18 17 17 16 15 15 14 14 13 12 11 11 9 10 9 9 9 9 8 8 8 7 5 5 4

GFSSGP_850_temp_072.txt.gz
Temp
18 18 18 18 14 11 13 16 18 18 19 20 20 20 15 15 16 15 15 16 16 15 15 16 17 18 17 15 16 17 17 17 17 17 17 17 16 16 16 15 15 15 15 15 14 13 13 12 11
18 18 18 18 12 12 13 15 18 17 19 20 20 19 16 14 14 14 14 16 15 16 15 16 17 17 19 16 14 17 17 17 17 17 17 17 16 16 15 15 15 15 15 15 14 13 12 12 12
18 18 18 13 10 11 13 17 18 17 19 19 18 17 16 16 15 16 16 17 17 17 16 15 15 16 18 16 13 15 16 16 16 16 16 16 15 15 15 15 15 15 15 14 13 13 12 12 12
18 18 17 14 14 15 17 19 20 16 16 18 17 14 15 15 14 14 13 16 16 18 17 15 14 15 15 14 13 12 16 16 16 14 14 15 15 15 15 15 15 14 14 14 13 12 12 12 12
18 17 13 13 14 15 18 20 21 18 17 17 17 14 15 15 16 14 14 16 15 16 17 14 12 12 11 11 12 12 13 15 15 16 15 14 14 14 15 15 15 14 14 14 13 12 12 12 12
18 16 13 13 15 17 18 21 20 19 17 17 16 14 14 16 15 15 14 15 15 14 15 15 12 13 14 11 12 12 12 16 13 15 14 14 14 14 14 14 14 14 14 14 13 12 12 12 12
15 12 13 14 16 17 20 22 21 19 18 15 17 14 17 16 15 13 13 14 14 13 13 14 13 14 13 13 12 12 10 12 13 13 13 13 14 14 14 14 14 14 14 14 13 12 12 11 12
18 13 15 14 16 16 20 22 22 19 13 15 15 14 15 16 16 13 12 12 12 12 13 12 14 15 14 14 12 10 9 11 12 13 12 13 13 14 14 14 14 14 14 13 13 13 12 12 11
18 14 13 15 17 18 21 20 18 16 15 14 14 14 15 15 14 14 12 12 11 11 11 11 12 13 13 14 12 11 10 10 12 12 12 13 13 13 13 13 13 13 13 13 13 13 12 12 12
16 12 15 17 18 19 20 20 18 14 11 11 12 13 14 13 13 12 11 11 11 11 11 11 12 13 12 11 10 10 10 10 12 12 12 12 13 13 13 13 13 12 12 13 13 12 12 12 11
17 15 18 19 20 20 21 16 17 13 11 12 13 13 12 11 12 11 11 11 10 10 10 11 11 12 11 10 10 10 10 9 10 12 12 13 13 13 13 13 13 12 12 12 13 12 12 12 12
18 19 19 20 21 21 20 17 15 14 16 17 17 14 12 12 11 11 10 10 10 10 10 10 10 11 11 10 11 11 10 9 10 10 11 13 13 13 13 13 12 12 12 12 12 12 12 12 11
17 18 20 21 21 22 20 16 14 14 15 13 13 13 12 11 11 11 11 10 10 10 10 10 10 11 11 10 10 10 10 10 10 11 12 13 13 13 13 13 12 12 12 11 12 12 11 11 11
19 19 19 20 20 21 19 14 16 16 14 12 13 13 12 12 12 11 10 10 10 10 10 10 10 11 11 12 11 10 10 11 12 12 12 12 13 13 12 12 12 12 12 12 12 11 11 11 11
19 17 17 18 20 20 19 16 14 16 14 13 14 13 13 12 12 12 11 10 10 10 10 9 10 10 11 10 10 10 10 11 11 12 12 12 12 13 13 13 13 12 12 12 11 11 11 11 11
17 16 16 18 19 21 19 17 15 15 14 14 13 13 14 13 12 12 11 10 10 10 9 9 9 10 9 9 10 10 10 11 11 12 12 11 12 12 13 13 13 12 12 12 11 11 11 11 11
15 14 16 17 20 19 18 16 14 14 14 14 14 14 15 13 13 12 10 10 10 9 9 9 9 9 9 9 10 10 10 11 12 12 12 11 11 12 13 13 13 12 12 11 11 11 11 10 10
13 15 16 16 18 18 18 16 13 14 14 14 14 13 13 13 14 12 10 10 9 9 9 9 9 9 9 9 9 10 10 11 11 11 10 11 11 12 13 13 13 12 11 11 11 11 11 10 10
16 16 15 17 19 20 18 15 14 13 14 13 14 14 14 14 13 13 11 10 10 9 9 9 9 9 8 9 10 10 11 11 10 10 11 12 12 13 13 13 12 11 11 11 11 11 10 10 10
16 15 16 18 20 20 19 18 14 13 14 14 15 15 15 13 12 12 11 11 10 9 9 9 9 9 9 10 11 10 11 10 11 11 12 12 13 13 12 12 12 12 12 11 11 10 10 10 9
16 16 16 17 19 18 19 17 15 16 15 14 15 17 16 14 13 12 11 11 11 10 9 10 9 9 9 10 10 10 10 11 11 12 12 12 12 12 12 12 12 13 12 11 10 10 10 10 9
16 18 18 18 18 16 18 14 15 16 16 15 15 15 16 13 14 13 12 12 12 12 11 10 10 10 10 11 11 11 11 11 11 12 12 12 12 12 12 12 12 12 11 11 11 10 10 9 9
17 18 19 19 18 17 16 14 15 16 16 16 15 15 15 15 14 14 13 14 14 12 11 11 11 11 11 11 11 11 11 11 12 12 12 12 12 12 12 12 12 11 11 11 11 11 10 9 9
19 19 18 16 15 14 16 15 14 15 17 17 17 16 15 14 14 15 15 14 14 13 12 11 11 11 11 11 11 11 11 11 11 12 12 12 12 12 12 11 11 11 11 11 11 11 10 9 9
18 16 14 14 12 12 17 15 15 18 17 18 17 17 16 14 13 14 14 13 13 13 12 12 12 11 12 11 11 11 11 12 12 13 13 13 13 12 12 12 12 11 11 11 10 9 9 9 8
17 16 13 14 12 13 14 15 16 18 19 21 19 17 16 14 14 15 15 15 15 14 13 13 12 12 13 13 12 12 12 12 12 13 13 13 13 13 12 12 12 12 11 11 10 9 9 9 8
17 15 16 13 13 11 13 15 17 18 19 19 19 18 16 15 15 16 16 16 16 15 15 15 15 14 14 13 13 13 12 12 13 12 12 13 13 13 12 12 12 12 11 10 9 9 9 9 8
18 17 15 14 13 12 14 14 15 19 20 19 17 16 17 16 16 16 16 17 17 17 17 16 15 15 16 15 14 13 13 13 13 13 13 13 13 13 13 12 11 11 11 10 9 9 9 8 7
17 17 16 15 13 12 12 13 14 16 18 18 17 19 19 18 17 16 16 17 18 17 16 16 16 16 15 15 14 13 14 13 14 13 13 12 12 11 11 10 10 10 10 9 9 9 8 7 7
16 18 16 12 13 13 11 13 17 16 19 17 18 20 21 22 21 20 19 18 17 16 16 15 16 16 13 12 12 12 12 12 13 13 11 11 11 11 10 10 9 10 9 9 8 8 8 7 6

GFSSGP_850_temp_075.txt.gz
Temp
18 18 18 17 13 10 12 14 16 17 17 19 19 18 16 14 16 16 16 15 15 15 15 15 16 17 17 17 17 16 17 17 17 17 17 16 16 16 16 15 15 15 15 14 14 12 12 13 12
18 18 17 17 11 11 12 14 18 17 18 19 18 16 16 14 15 17 16 16 16 16 15 15 14 14 16 17 17 17 16 16 17 17 17 16 16 15 15 15 15 15 15 14 14 14 13 13 13
18 17 18 10 8 12 13 15 17 18 20 17 17 16 16 15 15 15 15 16 17 17 16 16 17 12 13 13 13 14 16 14 16 16 16 15 15 14 14 15 15 15 14 13 13 13 13 12 12
18 18 16 12 13 13 15 16 18 17 18 19 16 15 16 16 15 14 15 16 16 16 15 15 15 14 14 13 13 16 16 14 13 16 16 15 15 14 14 15 15 14 13 13 13 12 12 12 12
18 17 11 13 13 14 15 18 19 17 17 17 16 15 14 15 14 14 15 15 15 16 15 14 13 14 14 14 13 13 13 14 11 15 15 14 14 14 14 14 14 14 13 12 12 12 12 12 12
17 15 11 12 13 15 16 20 19 18 18 16 15 14 14 13 14 13 13 13 13 14 15 14 12 12 13 14 14 13 12 11 12 14 14 14 14 14 14 14 14 14 12 12 12 12 12 12 12
13 11 12 13 14 15 17 20 19 18 16 15 16 15 14 13 13 12 14 12 13 13 15 14 12 13 15 13 14 14 12 11 11 13 13 13 14 14 14 14 14 13 12 12 12 12 12 12 12
18 12 14 13 14 15 18 20 19 17 16 15 15 15 14 12 11 12 11 12 11 12 13 12 13 13 12 12 12 12 12 11 12 12 13 14 14 14 13 13 13 13 12 12 12 12 12 12 12
18 12 11 14 15 16 19 19 17 16 15 15 16 15 14 12 11 11 11 11 11 11 11 12 12 12 11 11 11 12 10 11 11 12 13 14 13 13 13 13 13 13 12 12 12 12 12 12 12
15 11 13 14 15 17 18 18 17 15 13 14 14 15 12 11 11 10 10 11 11 11 11 11 11 11 11 11 11 12 11 10 10 11 13 13 13 12 13 13 13 13 13 12 12 13 12 12 12
15 14 15 18 19 18 17 16 17 13 12 16 16 16 12 11 11 11 10 10 10 11 11 11 11 11 11 11 11 10 10 10 10 12 13 13 13 12 12 13 13 13 14 13 12 12 12 12 12
16 17 17 19 20 18 16 18 14 14 17 18 17 16 13 11 10 10 10 10 10 10 10 11 11 12 10 10 11 10 10 9 10 12 13 13 12 13 13 13 13 13 13 13 13 12 11 12 11
16 17 19 20 20 19 18 16 16 15 17 16 14 14 12 11 11 11 10 11 10 10 10 10 11 11 10 10 10 9 9 9 10 11 13 12 12 12 13 12 12 13 13 13 12 12 12 12 12
18 18 17 18 19 19 16 14 14 17 17 15 13 12 12 11 11 10 11 12 11 10 10 10 10 10 10 10 11 9 9 10 10 10 11 12 13 13 12 12 12 12 12 12 12 12 12 12 11
18 16 15 16 18 18 18 15 13 18 16 14 12 11 11 11 11 12 12 11 11 10 10 10 9 10 10 11 10 9 9 9 9 10 11 12 13 12 12 12 12 12 11 12 12 12 11 11 11
16 16 15 17 18 18 19 15 16 17 14 13 12 11 11 12 12 11 11 11 11 10 10 9 9 10 9 9 9 8 9 10 11 12 12 12 12 12 12 12 11 12 12 12 12 12 11 11 11
13 13 14 15 17 18 18 16 15 16 14 13 12 12 11 12 11 11 11 11 11 10 9 9 10 9 9 8 8 9 9 10 11 11 12 12 12 12 12 12 12 12 12 12 12 12 11 11 11
12 13 14 14 16 16 16 15 15 14 13 13 13 13 12 12 13 12 11 10 11 9 9 9 9 9 8 8 8 9 9 10 11 11 12 12 11 11 11 12 12 12 12 12 12 11 11 11 10
15 15 14 14 16 17 16 15 14 12 12 12 13 13 13 12 12 11 10 10 10 9 9 9 9 9 9 8 8 9 9 10 11 11 11 11 11 11 12 11 11 12 12 12 12 11 10 10 10
14 14 14 15 16 17 15 16 14 11 12 13 13 13 14 12 12 12 11 10 10 10 9 9 9 10 9 8 9 9 9 10 11 11 11 11 12 11 11 11 12 12 13 12 11 11 10 10 9
14 13 14 15 16 16 17 16 15 14 13 15 14 14 14 13 14 13 13 11 10 10 9 9 9 10 9 8 9 9 9 10 10 10 11 11 11 11 11 11 12 12 12 12 12 11 11 10 10
13 15 16 15 15 14 16 13 15 14 13 13 14 14 14 14 14 14 14 14 13 12 10 9 9 9 9 9 9 10 10 10 11 11 11 11 11 11 11 12 12 12 12 11 11 11 10 10 9
15 16 15 15 14 15 16 13 14 15 15 14 15 15 16 15 15 15 15 16 14 12 12 11 9 9 9 9 10 10 10 11 11 11 11 12 12 12 12 12 12 12 11 11 11 11 10 10 9
17 16 16 15 14 13 15 14 13 14 16 16 16 16 16 16 15 15 15 15 14 13 12 11 11 10 10 9 10 10 10 11 11 12 12 12 12 12 12 12 12 12 11 11 11 11 11 10 10
16 15 12 13 12 12 15 14 14 16 15 17 16 16 18 17 15 15 14 14 14 13 13 12 12 11 10 10 10 11 11 11 12 12 12 12 12 12 13 12 12 12 11 11 12 11 10 10 9
14 14 11 14 12 13 14 13 15 16 17 18 19 20 20 17 17 16 16 15 14 14 13 12 12 11 11 11 11 11 11 12 12 12 12 12 12 13 13 12 12 12 12 11 11 11 10 10 9
15 13 16 12 11 11 12 14 16 17 16 15 16 17 17 16 17 17 17 17 15 14 14 13 12 12 12 12 12 12 11 11 12 12 12 13 13 12 12 12 12 12 12 11 11 10 10 10 9
16 16 15 12 12 12 13 13 14 16 17 17 15 15 17 17 16 17 17 17 16 15 15 13 13 13 13 12 12 11 11 11 11 11 12 12 12 12 11 11 11 11 11 11 10 10 10 9 9
15 15 15 14 12 12 12 12 13 15 16 17 15 17 18 17 17 18 18 17 17 16 15 15 13 13 13 12 11 10 10 11 11 12 12 12 12 11 10 10 10 10 10 10 10 10 9 9 9
16 16 15 12 13 11 10 12 15 15 15 16 17 17 18 20 20 19 18 18 16 16 15 16 16 14 13 10 11 12 13 14 13 13 13 13 13 10 11 10 10 10 9 9 9 9 9 9 8

GFSSGP_850_temp_078.txt.gz
Temp
18 18 17 17 13 10 12 14 14 16 18 18 17 17 17 16 17 16 15 15 14 14 15 15 15 16 16 15 15 16 17 17 17 16 16 16 16 16 14 14 13 14 14 14 14 14 14 14 13
18 18 17 16 11 11 13 13 15 15 19 18 17 16 16 16 15 15 15 15 14 15 15 15 15 14 14 14 14 14 16 17 16 16 16 16 16 15 14 13 13 14 14 13 11 13 13 12 12
18 17 17 9 8 12 13 14 15 17 19 18 17 16 16 15 15 15 16 15 15 14 14 14 14 15 15 15 15 12 14 15 15 15 15 15 16 15 13 14 13 14 14 11 11 12 12 12 12
18 17 15 12 13 13 14 15 16 16 18 16 16 16 16 16 16 16 16 16 16 15 14 13 13 15 16 15 15 13 12 13 14 14 15 15 15 14 14 14 13 14 14 14 13 13 12 12 12
17 17 11 12 13 13 13 16 16 16 17 16 17 16 15 16 16 16 16 16 16 15 15 14 12 13 13 14 14 13 13 12 13 13 16 15 14 14 13 13 12 12 13 13 13 12 12 12 12
16 15 11 12 13 14 15 18 18 17 17 16 16 14 15 16 15 15 16 16 15 16 15 13 13 13 14 12 12 12 11 12 13 14 15 14 14 13 13 14 11 14 13 13 12 12 12 11 12
13 10 12 13 13 14 16 19 18 18 16 16 16 14 14 14 13 14 15 14 13 15 15 14 12 12 12 13 13 14 12 12 13 14 14 13 14 13 13 13 13 13 12 12 12 12 12 12 12
17 10 12 12 13 14 17 19 18 17 17 16 16 13 14 15 13 13 12 12 12 12 13 14 12 12 11 11 12 12 12 12 12 12 13 13 13 13 13 13 12 12 12 12 12 12 12 12 12
17 11 10 14 13 15 17 17 17 17 16 16 14 14 14 14 12 10 11 11 11 11 12 12 11 11 11 12 13 14 12 12 11 10 11 12 13 12 13 12 12 12 12 12 12 12 12 11 11
13 10 12 13 14 16 17 17 18 15 14 15 14 14 12 11 11 11 11 11 11 12 11 11 11 11 11 12 13 13 11 11 10 10 11 12 13 13 13 12 12 12 12 12 12 12 12 12 12
13 13 14 16 17 17 16 16 17 13 14 16 16 13 11 11 10 10 10 11 11 11 12 11 11 11 11 11 11 11 11 11 9 10 12 13 12 12 13 12 11 12 13 12 12 12 12 12 12
15 15 16 18 19 17 15 18 14 14 18 18 15 15 11 11 11 10 10 10 11 10 11 11 11 11 11 11 10 11 9 9 10 10 11 12 13 13 13 12 12 13 12 12 12 12 12 12 12
14 15 18 18 18 18 17 15 15 14 19 17 15 13 11 11 11 10 10 10 10 10 10 10 10 10 10 10 10 10 10 9 10 10 11 12 13 12 12 12 12 12 12 13 12 12 12 12 11
17 16 16 17 18 17 16 15 14 19 19 15 13 12 10 11 10 10 10 10 10 10 10 10 10 9 9 9 9 9 10 11 10 11 11 12 12 12 12 12 12 12 12 12 12 12 12 12 12
17 15 14 14 17 16 16 15 12 19 16 14 12 11 10 10 11 11 11 10 10 10 11 10 10 9 9 10 10 10 10 10 10 10 12 12 12 12 12 12 12 12 11 11 12 11 12 12 12
15 15 14 15 16 17 17 14 15 18 15 12 12 11 11 11 10 11 11 10 10 10 10 10 9 9 8 9 9 9 9 9 10 10 11 12 13 13 13 13 12 11 11 11 11 11 12 11 11
12 12 13 14 16 17 15 14 15 15 13 12 12 12 11 11 10 11 11 11 10 10 10 10 9 9 8 8 8 8 8 9 9 10 11 12 12 12 13 12 12 11 11 11 11 11 12 11 11
12 12 12 13 16 15 14 13 14 15 13 12 12 12 12 12 11 11 10 10 9 9 9 9 9 9 8 8 8 8 9 9 9 10 10 11 11 12 12 12 11 11 11 10 11 11 12 11 10
13 13 13 13 14 16 14 13 14 14 12 11 12 12 12 12 13 10 10 9 9 9 9 9 9 9 8 8 8 8 8 9 9 9 10 11 11 12 11 11 11 11 11 11 11 11 10 11 10
13 13 13 13 15 14 14 14 14 12 12 12 12 12 12 12 12 11 10 10 9 9 8 9 9 9 9 8 8 9 9 9 9 10 10 10 11 11 11 11 11 11 11 11 11 11 11 11 10
13 13 13 13 13 14 15 13 15 15 12 13 14 14 13 13 12 12 11 10 9 9 9 9 9 9 9 8 9 8 9 9 9 9 10 10 11 11 11 11 11 11 11 11 11 11 11 11 10
12 13 14 13 13 12 15 12 14 15 14 13 13 14 14 13 13 14 14 13 12 11 10 9 9 9 9 8 9 9 9 9 10 10 11 12 11 11 11 11 11 10 10 11 11 11 11 11 10
14 14 13 13 12 13 14 12 13 14 15 15 14 15 15 15 14 14 15 15 14 12 11 10 10 9 9 9 9 9 9 10 11 11 11 11 11 11 11 11 11 11 11 11 11 11 11 11 10
15 14 14 14 12 11 13 12 12 14 15 16 16 18 17 16 15 14 15 15 14 13 11 11 10 9 9 9 9 9 9 10 11 11 11 11 11 11 11 11 11 11 11 11 11 11 10 10 10
14 13 11 11 10 11 13 12 15 15 15 15 15 18 19 17 16 15 15 14 14 15 14 12 11 10 9 9 9 9 10 10 10 11 11 11 11 11 11 11 11 12 12 11 11 11 10 10 10
13 12 10 13 11 13 13 13 14 15 15 17 18 20 19 16 16 17 16 15 15 15 15 15 14 12 11 10 10 10 10 10 10 10 11 11 12 12 12 12 12 12 12 12 12 11 11 11 10
13 13 14 11 10 11 12 13 15 16 15 15 15 16 17 18 17 17 17 16 16 15 15 15 15 14 14 13 11 11 10 10 10 10 11 11 11 11 11 11 12 12 11 11 11 11 11 11 10
14 14 12 11 11 12 12 13 14 16 17 15 15 14 17 17 17 17 17 17 17 16 15 15 14 14 14 13 13 11 10 10 10 11 11 11 11 12 12 12 12 12 11 11 10 10 10 10 10
13 14 14 13 11 13 12 12 12 15 14 14 14 17 18 19 18 17 18 18 17 16 15 15 15 14 14 13 12 12 11 11 12 12 12 13 12 12 12 12 12 11 11 11 11 9 10 9 9
14 14 14 12 12 10 10 14 15 14 13 14 14 19 19 21 20 19 18 17 16 16 16 15 14 14 13 12 12 13 13 13 13 13 13 12 12 13 13 11 11 11 11 11 10 9 10 10 9

GFSSGP_850_temp_081.txt.gz
Temp
18 17 17 17 19 17 18 19 16 18 19 18 17 17 18 17 19 20 16 15 14 16 16 17 16 16 16 16 17 17 16 17 17 17 17 17 17 16 16 15 14 13 13 13 13 11 11 11 12
17 17 17 16 18 19 19 17 18 20 20 18 16 16 17 19 16 16 15 15 15 15 15 15 16 16 16 16 16 17 16 16 16 17 16 16 16 16 15 15 14 14 12 12 12 11 13 13 13
17 17 17 16 15 20 20 18 20 18 18 18 17 17 16 17 17 16 16 15 14 14 15 15 15 16 16 17 17 17 16 14 14 16 16 16 15 15 14 15 13 13 12 12 11 13 13 13 13
17 17 15 18 18 17 18 20 18 18 17 16 16 18 17 18 17 16 16 16 15 14 14 14 14 15 15 16 17 16 16 13 13 15 15 15 15 14 13 14 13 13 12 11 12 13 13 13 13
17 16 17 16 17 17 16 17 17 18 18 17 16 19 16 18 17 16 16 16 15 15 13 13 13 15 15 15 15 15 16 14 13 14 14 15 14 14 13 13 13 13 13 12 12 13 13 13 13
17 15 17 18 16 17 17 17 17 18 17 16 16 16 17 18 17 16 16 15 15 14 13 13 13 14 15 15 15 14 14 14 15 13 13 13 13 13 13 12 13 13 13 12 12 12 12 13 13
17 17 17 16 17 17 18 18 19 19 18 18 17 18 18 17 17 16 15 14 14 13 12 12 12 13 15 14 14 14 14 13 12 12 12 12 12 12 13 14 13 14 13 12 12 12 12 12 12
17 17 15 15 17 18 18 18 18 17 19 17 16 19 17 17 17 15 14 14 13 12 12 12 12 14 14 14 14 14 13 13 12 11 11 12 12 12 13 15 13 13 13 12 12 11 12 12 12
16 17 17 16 16 19 17 18 18 18 16 15 16 16 17 15 15 14 12 11 11 11 12 11 12 12 12 12 13 12 12 13 12 12 11 11 11 12 13 14 13 13 13 12 11 11 11 12 11
17 16 17 16 17 18 17 17 18 17 15 15 15 16 16 15 13 11 10 11 11 11 11 12 12 11 11 11 11 12 12 11 11 12 10 11 12 13 13 12 12 12 12 12 11 11 12 12 12
14 17 16 17 16 17 17 16 16 16 18 18 17 18 16 14 12 10 11 11 11 12 11 11 11 11 11 11 11 12 12 11 11 10 9 11 11 12 12 12 13 12 12 11 11 11 11 12 12
15 15 16 18 18 17 17 17 17 14 19 19 18 17 16 13 10 11 11 10 11 11 11 11 11 11 11 10 11 11 12 11 11 9 9 10 12 12 12 12 13 12 12 12 12 12 11 11 12
15 16 17 16 16 16 16 17 17 15 20 18 17 16 15 13 12 11 10 10 10 10 11 11 11 11 11 11 10 10 10 10 9 9 9 12 12 12 12 13 12 12 12 12 12 12 11 11 12
16 16 17 16 16 16 17 17 14 19 19 16 15 15 13 12 12 11 10 10 9 10 10 11 11 11 10 11 10 10 9 10 9 9 11 12 12 12 13 12 13 11 11 12 12 12 12 12 12
16 16 17 17 18 18 16 16 16 19 16 14 12 13 11 11 11 10 9 10 9 10 10 10 10 10 10 9 9 9 9 9 9 10 11 11 12 12 13 13 12 12 11 12 11 12 11 11 11
16 15 16 17 16 17 17 19 19 17 14 13 11 11 11 11 10 10 11 10 10 10 10 10 10 10 9 9 9 9 9 9 9 11 11 12 12 13 13 12 12 11 11 12 12 12 12 11 11
14 16 15 17 17 17 17 19 18 16 14 13 10 11 11 10 10 10 10 10 10 9 9 9 9 10 9 9 9 9 9 9 10 10 10 11 12 13 13 12 12 11 12 12 11 11 11 11 11
15 15 14 16 17 16 17 17 18 15 13 14 12 11 10 10 10 10 10 11 9 9 9 9 9 9 9 9 9 9 8 9 10 10 10 11 12 12 12 11 11 11 11 11 11 11 10 10 11
15 15 16 16 16 16 17 17 18 18 13 13 12 12 11 12 11 10 10 10 9 8 9 9 9 9 9 8 8 9 8 9 10 10 10 10 11 11 11 12 11 10 10 11 11 10 10 10 10
15 15 16 16 16 16 17 17 19 18 17 15 14 13 12 12 12 11 10 10 9 9 8 9 9 9 9 8 8 8 9 9 9 9 9 10 11 11 11 12 11 11 11 10 10 10 10 10 10
14 15 15 15 15 16 16 17 18 18 15 13 13 14 13 13 13 12 10 10 9 9 8 9 9 9 9 9 9 8 8 9 8 9 9 11 11 11 12 11 11 11 11 11 10 10 10 10 10
14 15 15 15 14 15 16 16 17 19 18 16 15 13 13 13 13 13 11 10 10 9 9 9 9 9 9 8 8 9 9 8 9 9 10 10 11 11 11 11 11 11 11 11 10 10 10 10 10
15 15 15 15 15 14 16 15 16 16 18 20 20 14 14 15 15 14 13 11 10 10 9 9 9 9 9 9 8 8 8 8 9 9 9 10 10 10 11 11 11 11 11 11 10 10 10 10 10
15 15 14 14 14 13 15 16 17 19 19 20 19 18 15 14 15 15 14 13 11 11 10 9 9 9 9 9 9 9 9 9 9 10 10 9 9 10 11 11 11 11 11 11 11 10 10 10 10
15 14 14 13 13 14 16 15 18 18 18 19 20 20 17 16 16 15 15 14 14 13 13 11 10 10 10 10 9 9 9 9 10 10 10 10 10 10 11 11 11 11 11 11 10 10 11 10 10
14 14 14 14 14 16 14 15 18 18 18 17 17 17 17 16 16 16 17 16 16 15 14 12 12 10 10 10 9 9 9 9 9 10 10 11 11 11 11 11 11 11 11 11 11 10 10 10 10
13 13 15 13 11 13 15 16 18 19 18 18 18 17 16 16 17 16 17 17 16 16 15 15 13 12 11 10 10 9 9 9 10 10 10 10 11 11 11 11 11 11 11 11 10 11 11 10 10
16 15 13 14 13 14 15 15 18 18 19 18 17 17 17 15 15 16 17 18 17 16 16 16 15 14 13 12 11 11 10 10 10 10 10 11 11 11 11 11 11 11 11 11 11 11 11 11 10
14 14 14 15 14 15 15 16 16 19 19 17 16 16 16 16 17 14 16 17 17 16 16 16 16 15 15 14 13 12 11 11 10 10 11 11 11 11 11 12 12 12 12 11 11 11 10 10 9
15 15 15 14 13 13 15 17 17 17 17 15 17 17 18 18 18 16 16 16 17 17 16 16 16 16 15 15 15 14 14 13 13 13 13 12 12 12 12 12 12 12 11 11 10 10 10 10 9

GFSSGP_850_temp_084.txt.gz
Temp
18 18 17 18 23 24 25 24 24 24 24 22 21 22 23 23 24 23 18 19 17 16 15 16 16 16 17 17 17 17 17 16 16 16 16 16 16 15 15 15 14 14 14 12 12 12 11 12 12
17 17 17 21 23 25 25 24 23 24 23 21 20 20 21 24 20 18 17 18 17 16 15 16 16 16 17 16 16 16 16 16 16 16 16 16 16 14 15 14 14 14 12 12 12 11 11 13 12
17 17 21 23 24 25 25 24 24 23 22 21 22 20 21 22 19 17 17 17 16 16 16 15 17 17 17 16 16 15 15 15 15 15 15 16 15 15 15 15 13 13 12 12 11 12 12 13 13
17 18 20 23 24 24 24 24 23 23 21 21 22 23 19 17 17 15 18 17 16 16 17 15 16 16 16 15 15 14 13 14 13 14 13 15 15 15 14 15 13 14 13 12 12 13 13 13 13
18 20 23 23 24 24 23 23 22 23 22 21 21 24 21 17 18 18 17 17 16 16 16 16 15 14 14 14 14 14 14 13 14 13 13 13 14 15 14 14 13 13 13 14 14 13 13 13 13
20 21 23 24 24 23 23 22 22 23 22 21 20 22 22 18 18 17 17 17 16 16 16 15 15 14 14 13 13 13 14 13 14 15 12 13 14 14 13 12 12 12 12 13 13 13 13 13 13
21 23 23 23 23 23 23 22 22 22 22 23 20 23 21 15 16 17 17 16 16 15 15 13 13 14 14 14 13 13 14 14 14 14 11 12 13 13 13 12 13 13 12 13 13 13 13 13 12
20 23 23 23 23 23 23 22 21 22 23 19 19 23 23 16 17 16 16 16 15 14 12 12 13 13 14 13 14 12 12 13 13 12 12 12 12 13 12 12 12 13 12 13 13 13 13 13 12
19 22 23 23 22 23 22 22 21 19 20 20 20 20 18 17 16 16 16 15 14 12 12 12 12 12 13 12 13 12 13 12 12 11 12 11 11 12 12 11 13 13 12 13 13 12 12 12 12
20 22 23 24 23 22 22 22 22 22 23 22 20 18 15 16 13 13 13 13 11 11 11 11 12 12 12 12 12 12 12 12 12 11 11 10 10 12 11 12 13 13 12 12 12 12 12 11 10
20 21 24 22 21 22 22 22 22 22 23 23 22 22 16 15 14 13 13 13 12 12 11 11 12 11 12 12 12 12 12 12 11 11 11 10 10 11 11 11 12 12 12 11 11 11 10 9 9
20 20 21 22 21 21 22 22 22 22 22 22 20 19 17 15 14 13 13 12 12 12 12 11 11 11 11 11 11 11 12 12 11 11 11 10 11 11 10 10 11 12 11 11 11 10 9 9 9
19 21 21 21 20 20 20 21 21 22 21 21 18 16 16 15 15 13 13 12 11 11 12 11 11 11 11 11 11 11 11 11 11 10 10 10 10 11 12 11 11 11 10 10 9 9 9 11 8
21 20 21 21 21 20 20 21 21 21 22 20 17 18 17 15 15 14 12 12 11 10 11 11 11 11 10 11 11 11 10 10 10 10 9 9 8 10 12 12 12 12 12 9 9 10 10 9 9
19 19 21 21 21 21 21 21 22 21 20 19 18 17 16 15 15 14 13 11 10 11 10 10 10 11 10 10 10 10 10 10 10 9 8 8 9 12 12 12 12 12 12 12 11 11 10 9 9
19 20 20 23 22 21 20 21 24 22 20 21 20 18 16 15 15 14 13 11 10 10 10 9 10 10 9 9 10 9 9 9 8 8 9 9 11 12 12 11 12 12 12 12 12 11 9 9 10
20 19 21 21 22 22 21 22 24 20 20 20 20 18 17 16 15 14 11 11 10 10 10 10 9 9 9 9 9 9 9 9 8 8 8 10 12 12 12 11 11 11 11 11 11 10 10 10 9
19 20 20 21 22 21 21 22 23 23 21 21 20 18 18 17 15 14 10 10 10 10 10 9 10 9 9 9 9 9 8 8 8 9 10 12 11 11 11 11 12 12 13 11 11 11 11 10 10
20 20 20 22 21 19 21 21 23 24 22 21 20 19 18 17 15 14 10 9 10 9 9 10 9 9 9 9 9 9 8 8 8 9 10 10 10 11 12 12 12 13 12 10 11 11 11 11 10
18 18 19 21 21 19 21 22 23 23 24 23 22 20 19 17 15 14 10 9 10 9 9 9 9 9 9 9 9 9 8 8 9 9 9 9 10 11 12 12 12 11 11 11 11 11 11 10 10
17 18 19 19 20 20 20 20 22 24 23 22 20 21 20 19 17 14 11 10 10 9 9 9 9 9 9 8 9 9 8 8 8 8 8 9 9 10 11 11 11 11 11 12 11 11 11 9 9
17 19 18 18 18 19 20 20 23 23 23 23 22 20 20 19 18 15 12 11 10 9 9 9 9 9 9 8 8 9 9 8 8 8 9 8 9 10 10 11 11 12 12 11 11 11 10 10 9
17 19 19 18 18 19 19 19 22 23 22 23 24 22 21 19 18 16 14 12 11 9 9 9 9 9 9 9 9 9 8 9 8 8 9 9 9 10 10 10 10 11 11 11 11 11 11 10 9
18 17 17 17 18 17 18 19 21 23 23 23 24 23 22 20 18 17 15 12 11 9 9 9 9 9 9 9 9 8 9 9 8 9 10 10 10 10 10 10 11 11 11 11 11 11 10 10 9
17 17 17 16 16 17 20 19 21 23 23 23 24 23 22 20 18 17 15 13 12 10 10 9 9 9 9 9 9 8 9 9 9 10 10 10 10 10 9 11 11 11 11 11 11 11 11 10 10
16 17 18 17 18 19 19 18 21 23 24 23 23 22 21 20 18 17 16 14 12 10 11 10 9 10 9 9 9 9 8 9 9 9 9 9 9 9 9 10 10 11 11 11 11 10 10 10 10
17 16 19 17 17 16 19 21 21 22 22 23 23 23 22 21 19 18 17 15 12 11 12 14 12 9 9 9 9 9 8 9 9 9 9 9 9 9 9 10 11 11 11 11 11 11 11 10 10
18 19 16 17 15 16 19 19 20 21 22 23 23 23 22 21 19 18 17 15 13 11 12 15 13 10 10 9 9 9 9 9 9 9 9 9 9 9 9 9 10 10 11 11 11 11 11 9 10
16 16 17 18 17 17 18 20 22 22 23 23 22 22 21 20 19 18 17 16 14 12 11 15 13 10 10 10 9 9 9 9 9 9 9 9 9 9 9 10 10 11 11 11 10 10 11 10 10
17 17 17 16 17 17 17 19 21 21 22 21 22 21 20 19 18 17 17 16 15 14 12 13 13 11 11 10 10 9 9 9 9 10 10 10 10 10 11 11 11 10 10 10 9 9 9 11 11

GFSSGP_850_temp_087.txt.gz
Temp
19 19 19 21 24 26 27 28 28 27 27 26 25 25 26 26 26 24 18 17 21 20 16 16 17 17 17 17 16 17 16 16 16 16 16 16 16 16 15 14 14 14 14 14 14 14 12 12 12
18 19 20 23 25 27 29 29 26 27 27 25 24 24 25 25 25 22 20 18 18 20 18 16 16 17 16 16 16 16 16 16 16 16 16 16 16 16 15 14 14 13 14 14 14 14 12 12 12
18 19 22 26 26 27 28 28 27 27 25 25 25 24 25 25 23 21 18 20 18 19 18 16 16 17 16 16 15 15 15 15 15 16 15 15 15 15 14 14 14 13 14 14 14 14 13 12 12
19 21 22 24 26 28 27 28 27 26 25 24 25 26 24 21 22 19 19 19 19 16 17 17 17 16 16 16 15 15 14 14 13 15 15 15 14 14 14 14 13 13 13 14 15 14 13 12 12
20 23 25 26 27 28 27 27 25 26 26 25 24 25 25 20 19 18 17 19 19 18 18 17 17 16 16 15 14 15 16 13 14 12 12 14 13 13 13 13 13 13 12 13 14 14 13 13 12
22 24 25 26 28 28 27 26 25 25 25 25 23 24 24 20 18 17 19 19 19 19 18 17 17 16 15 14 14 14 14 13 14 12 12 13 13 12 12 14 14 13 12 14 14 14 13 12 12
22 25 25 26 27 27 27 26 25 25 25 25 24 25 24 20 18 17 18 18 18 18 18 18 16 14 14 13 13 13 14 14 13 12 12 12 12 12 12 13 14 13 13 14 14 14 14 13 13
22 25 24 26 26 26 28 26 25 24 25 24 23 24 25 21 18 16 15 14 16 18 18 17 15 13 13 13 12 13 13 12 12 12 12 13 12 12 12 13 14 12 13 14 14 13 13 13 13
22 23 24 26 27 27 27 25 24 23 23 24 24 23 22 18 16 16 14 13 13 16 16 16 15 13 13 13 12 12 12 12 12 12 11 12 12 12 12 12 13 12 13 13 13 13 13 13 12
23 23 24 27 27 26 26 25 25 25 25 25 24 23 21 18 17 17 16 16 14 12 13 15 14 13 13 12 12 12 12 12 12 12 11 12 12 12 12 12 13 12 12 13 13 13 13 12 12
23 23 25 26 25 25 25 26 25 25 25 25 25 24 23 20 18 18 18 17 16 13 12 13 13 13 12 12 12 12 12 12 12 11 11 11 11 11 12 11 11 12 12 12 12 12 11 9 9
23 23 24 24 25 24 25 24 25 25 25 24 24 23 22 22 20 19 18 17 17 13 13 13 12 12 12 12 12 11 12 12 12 12 11 10 11 11 11 12 11 11 12 12 12 11 10 10 10
23 24 23 24 24 23 23 24 24 24 24 24 23 23 22 21 20 19 18 17 16 13 12 12 12 11 11 11 11 11 12 12 11 12 11 11 10 10 11 11 10 10 10 12 11 11 10 10 10
23 23 23 23 24 24 24 24 23 24 24 23 23 23 22 21 20 19 17 17 15 14 11 11 12 11 11 11 11 11 11 11 11 11 11 11 11 10 10 11 10 10 10 10 10 10 10 10 10
21 22 23 23 23 24 23 23 24 24 24 24 23 23 22 21 20 19 18 16 15 14 11 12 11 11 10 10 10 11 11 11 11 11 11 10 11 10 10 11 10 10 10 10 10 10 10 10 10
20 21 20 23 25 25 24 22 25 25 25 24 23 24 22 21 19 19 18 16 14 13 11 10 11 10 10 10 10 10 11 10 11 11 10 10 9 10 10 10 10 10 10 9 10 10 10 10 11
20 19 21 23 26 24 24 23 26 25 24 24 24 24 22 21 19 19 17 15 14 13 11 10 10 10 10 9 10 10 10 9 10 10 10 9 9 9 8 9 10 9 11 11 10 10 10 10 11
19 20 21 22 25 26 24 24 25 25 24 24 24 24 23 21 20 19 17 15 14 13 11 10 10 10 9 9 9 9 9 8 8 8 8 8 7 8 7 9 11 11 12 10 11 11 10 10 11
21 21 23 24 26 23 23 23 25 26 26 26 24 24 23 22 21 19 16 14 13 12 11 10 9 9 9 9 9 8 8 8 8 9 9 7 8 8 9 11 10 10 9 10 11 10 10 10 10
19 20 21 22 24 23 22 23 24 25 26 25 25 25 24 23 21 18 16 13 12 11 10 10 10 9 9 9 8 9 9 8 8 8 7 7 8 8 10 9 10 10 9 10 10 11 10 10 10
18 19 20 21 23 24 22 22 23 25 25 25 25 25 25 23 21 19 16 13 11 11 10 9 9 9 9 9 9 8 7 7 7 7 8 7 8 9 10 9 9 10 12 11 11 10 10 10 10
17 20 20 20 21 20 23 21 23 26 26 26 25 24 24 24 22 19 17 14 12 11 10 9 9 9 9 9 9 8 8 8 8 7 8 9 9 10 10 10 11 11 11 11 11 10 10 10 10
18 20 19 20 21 20 21 21 23 25 25 25 26 25 24 24 22 20 17 15 14 13 10 9 10 9 9 9 9 9 8 9 9 8 9 9 10 10 10 10 9 11 11 11 10 10 11 10 11
18 19 19 20 20 18 20 21 23 24 25 25 26 26 25 24 23 21 19 16 15 13 11 9 10 9 9 9 9 9 9 8 8 8 8 9 10 9 9 10 10 10 10 10 10 11 10 10 10
17 17 17 17 18 18 22 22 23 25 26 26 26 25 25 24 23 21 19 17 15 13 11 9 9 9 9 9 9 9 9 8 8 8 8 10 9 9 9 9 9 9 10 9 10 11 9 11 10
17 17 16 17 19 20 23 21 23 25 26 25 25 25 24 23 23 22 20 17 16 14 11 10 9 9 9 9 9 9 9 8 8 8 8 9 9 9 9 10 10 9 9 9 10 10 10 10 10
18 17 18 18 19 18 20 22 24 25 25 25 25 24 24 24 23 22 21 18 16 14 12 10 10 9 9 9 9 9 9 9 8 9 9 9 10 9 9 10 10 10 9 10 10 10 10 10 10
17 20 17 18 16 16 20 21 22 23 24 25 25 25 24 24 23 22 21 19 17 15 13 11 10 9 9 9 9 9 9 9 9 9 10 9 9 9 10 10 10 10 10 10 10 10 10 10 10
17 17 18 18 18 17 18 22 24 24 24 24 24 24 23 23 24 22 21 20 17 15 14 12 11 11 10 9 9 9 9 10 9 9 10 9 10 10 10 10 10 10 10 10 10 10 10 10 10
19 18 18 17 17 19 19 20 24 24 24 24 24 23 22 22 23 22 21 20 18 16 15 13 12 12 12 11 9 9 10 9 10 10 10 10 10 10 9 10 10 10 10 10 10 10 10 10 10

GFSSGP_850_temp_090.txt.gz
Temp
19 19 20 21 22 24 25 28 31 28 28 27 26 26 26 26 26 22 19 20 21 19 20 20 18 18 18 17 17 17 16 16 17 17 16 16 16 16 16 16 15 14 14 13 14 14 14 14 14
19 19 21 22 23 24 27 30 28 28 27 26 25 25 25 25 25 21 20 19 21 21 20 19 18 17 17 17 17 17 17 16 16 17 16 16 16 16 16 15 14 14 13 13 14 14 13 14 14
19 20 22 23 24 24 27 29 28 28 27 26 26 26 25 25 23 21 21 22 21 21 20 19 18 17 17 16 17 16 16 16 15 16 16 15 15 15 15 15 14 14 13 14 14 15 14 14 13
19 21 22 23 24 27 28 29 28 27 27 26 26 26 25 24 23 21 21 21 20 18 18 19 19 18 16 16 16 16 16 15 14 11 10 14 15 15 14 15 14 13 13 12 13 15 14 14 13
19 22 23 24 25 27 29 29 27 26 27 26 25 26 25 22 22 22 22 21 19 18 19 19 19 18 17 16 16 16 15 15 17 16 13 11 12 14 14 14 14 13 13 12 14 14 14 13 12
21 23 23 24 26 29 29 28 27 26 26 26 25 25 25 22 21 22 22 21 20 19 19 19 19 19 17 16 15 15 14 14 14 14 13 11 12 13 12 13 13 13 13 12 13 13 14 14 12
22 23 23 25 26 27 29 28 27 26 26 26 26 25 24 21 20 22 22 21 20 19 18 18 17 18 17 16 15 13 14 14 14 14 13 13 12 12 13 12 13 14 14 14 14 13 13 13 12
22 23 23 24 25 26 29 28 27 26 25 25 25 25 24 21 20 20 20 20 19 19 17 16 16 14 13 15 13 13 13 14 14 13 13 13 12 11 12 12 12 13 13 14 14 13 13 13 12
22 22 22 24 25 27 28 27 26 25 25 25 25 25 23 20 20 18 17 16 16 17 16 15 14 13 13 13 13 13 13 13 13 12 12 12 11 11 11 12 12 11 14 14 14 13 13 13 12
23 22 23 25 27 27 27 27 26 26 25 25 25 25 24 21 19 18 17 17 17 16 14 12 13 13 13 13 12 12 13 13 13 13 12 12 11 11 11 12 11 13 14 13 13 13 12 12 12
23 22 24 25 26 26 26 26 26 26 25 26 25 25 25 22 20 19 19 19 19 17 14 13 15 14 13 12 12 12 12 12 12 12 12 11 12 11 10 11 11 13 13 13 13 12 12 12 11
23 24 24 25 25 25 25 25 25 26 26 25 25 25 24 24 22 21 20 19 19 17 15 12 14 13 13 12 12 12 12 12 12 11 12 11 12 11 11 12 12 12 12 12 12 11 11 11 11
23 24 24 24 24 25 25 25 25 25 25 25 24 24 24 24 23 22 21 20 19 17 15 15 13 13 13 12 12 11 12 12 11 11 11 11 11 11 11 11 11 12 12 12 11 10 10 11 11
23 24 24 24 24 24 24 25 25 24 24 24 24 24 24 24 23 22 20 19 18 17 15 14 12 13 13 12 12 12 11 12 12 11 11 11 11 11 10 11 11 12 12 11 11 10 10 10 10
22 22 23 24 24 24 24 23 24 24 24 24 24 24 24 24 23 22 20 18 17 16 15 13 11 11 11 12 12 12 11 11 11 11 11 11 11 11 10 11 11 11 11 11 10 10 10 10 10
21 21 20 23 23 24 24 22 25 25 25 26 25 25 24 24 23 22 20 18 17 15 14 13 11 11 11 10 10 11 11 11 11 11 10 11 11 10 10 10 11 11 11 10 10 10 10 10 10
19 19 20 22 24 24 25 24 25 26 26 26 25 25 24 24 22 21 20 18 17 15 14 12 10 10 10 10 10 10 11 10 10 11 10 11 11 10 9 10 11 10 10 10 10 10 10 10 10
18 19 21 21 23 24 24 24 25 25 25 25 25 25 24 24 22 21 20 18 16 15 13 11 10 10 10 10 10 10 10 10 10 10 11 10 10 9 9 9 10 9 10 10 10 10 10 10 10
19 20 20 21 23 24 24 24 25 26 26 26 25 25 25 24 23 21 19 17 16 14 12 10 10 10 10 9 9 9 9 9 9 9 9 9 9 8 9 9 9 10 10 11 10 10 10 11 11
20 19 19 20 22 23 23 23 24 25 25 26 26 26 25 25 23 21 19 16 15 13 12 10 9 10 9 9 9 9 9 8 8 8 7 8 8 8 8 8 8 9 9 9 10 11 11 10 11
19 18 19 18 20 22 22 22 23 24 25 25 25 26 26 25 24 21 18 15 14 13 12 10 9 9 9 9 8 8 8 8 9 9 10 9 9 9 8 8 8 8 9 9 10 10 10 10 11
18 20 18 17 16 16 21 20 23 24 25 26 26 25 25 25 24 21 19 15 13 13 11 10 9 9 9 9 9 9 10 9 9 8 8 7 7 7 8 7 8 9 10 10 9 10 10 10 11
18 19 17 15 15 17 19 20 21 23 24 25 26 26 25 25 24 21 19 16 14 12 11 10 10 9 9 9 9 9 9 8 8 7 7 7 7 7 7 8 9 9 10 9 9 10 10 10 10
19 18 17 17 16 14 18 20 21 22 24 26 27 26 25 25 24 22 20 17 15 13 11 10 9 9 9 9 9 9 9 9 7 8 7 7 8 8 9 9 9 9 10 9 10 10 11 10 10
18 17 15 13 13 14 19 20 21 23 25 26 27 26 26 25 24 23 19 17 16 14 12 10 9 9 9 9 9 9 9 9 8 8 8 8 8 9 9 10 9 9 9 10 10 11 10 10 11
17 16 15 13 14 14 17 19 22 25 25 26 26 26 25 25 24 23 20 18 16 14 12 10 10 10 9 9 9 8 9 9 9 8 8 8 9 10 10 10 10 10 9 10 10 10 10 10 12
17 15 18 16 16 15 16 18 22 25 25 25 26 26 25 25 24 23 21 19 17 15 13 11 9 9 9 9 9 9 9 8 8 8 8 8 9 9 9 10 9 9 10 10 11 11 11 11 12
17 18 15 16 14 14 17 19 20 22 24 25 25 25 25 25 24 23 22 19 17 15 13 12 9 9 9 9 9 9 9 9 9 8 9 9 9 10 10 10 10 11 10 10 10 10 11 11 11
16 16 16 17 17 16 16 18 20 19 21 24 24 24 23 23 24 23 22 19 18 16 14 12 11 9 10 9 9 9 9 9 9 8 9 9 10 10 10 10 10 10 10 10 10 10 11 11 11
18 16 16 14 16 18 17 17 22 22 23 24 24 23 22 22 23 24 22 19 18 16 15 13 12 10 10 10 9 9 9 9 9 9 9 9 10 10 10 10 10 9 10 10 10 10 10 10 11

GFSSGP_850_temp_093.txt.gz
Temp
20 20 20 19 15 15 16 19 23 25 23 25 25 24 23 24 23 19 20 20 21 21 20 20 19 19 19 19 18 18 18 17 17 18 18 18 17 17 17 17 17 16 16 15 14 14 14 14 14
20 19 18 20 15 15 17 21 22 22 25 25 25 25 24 24 21 20 20 20 19 20 21 20 19 19 18 18 18 18 17 17 17 16 16 16 17 17 16 16 16 15 14 14 14 14 14 14 14
19 18 19 15 15 16 17 24 23 24 26 25 25 25 25 22 21 21 21 21 21 20 21 21 20 19 18 17 17 18 17 17 16 15 14 13 13 16 16 16 15 14 14 13 13 14 13 14 14
19 19 20 16 16 19 21 23 25 25 26 26 25 24 25 24 22 22 22 22 21 22 21 20 20 19 18 17 17 17 16 15 15 14 15 14 13 12 15 15 14 14 13 12 12 14 14 14 13
18 19 15 16 17 20 23 25 26 24 25 25 25 24 22 22 23 23 23 22 21 21 21 20 20 19 18 18 17 16 16 15 15 16 15 14 14 11 12 13 14 13 13 12 14 14 13 13 13
18 20 15 15 18 22 23 26 26 24 25 25 24 24 23 22 23 23 22 22 21 21 20 19 19 19 17 16 16 16 15 15 15 14 15 13 13 13 11 12 13 13 14 14 14 13 12 12 12
16 15 15 16 19 21 23 26 24 24 24 25 25 22 22 21 22 22 21 22 21 19 20 19 18 18 17 16 16 15 15 14 14 13 13 12 13 13 11 12 12 13 13 14 14 13 12 12 12
19 15 16 18 19 19 24 26 26 25 24 25 25 23 20 21 22 22 21 22 21 19 18 18 17 17 16 15 15 14 14 14 13 13 13 13 12 12 12 12 12 13 12 13 14 13 12 12 12
20 15 16 17 19 21 24 25 26 25 25 25 25 25 24 22 21 20 20 21 20 19 18 17 16 13 13 13 14 13 13 13 13 13 12 13 12 12 11 12 12 12 12 13 13 13 12 12 12
17 14 17 20 21 22 23 23 25 24 24 24 24 24 22 22 20 20 20 20 19 18 17 17 16 13 12 12 13 13 13 13 12 12 12 12 12 11 11 11 11 11 12 13 13 13 12 12 12
19 17 19 21 22 23 21 22 25 23 22 24 24 24 21 21 21 20 20 20 19 18 17 16 16 13 12 12 12 12 12 13 12 12 12 12 12 11 11 11 10 11 11 12 13 12 12 12 12
17 19 20 21 22 23 21 24 22 23 23 25 25 25 23 22 22 21 20 19 19 18 17 16 16 15 12 12 12 12 12 12 12 12 12 11 11 11 11 11 11 12 11 13 12 12 12 12 12
18 20 21 22 23 23 24 22 22 23 24 24 24 24 24 22 22 21 21 20 19 18 18 17 16 16 13 11 12 12 11 12 12 12 12 11 12 11 11 11 11 12 12 12 12 12 12 11 11
20 20 21 22 22 23 22 21 23 23 24 24 24 24 24 24 24 23 22 20 19 18 17 17 16 15 13 11 11 12 12 12 12 11 12 11 12 10 11 11 11 12 12 12 12 12 11 11 12
20 18 19 20 21 20 23 19 20 24 24 24 24 24 24 24 24 24 22 20 19 18 17 16 15 14 13 12 11 11 11 11 12 11 11 11 11 11 12 11 11 12 12 11 11 11 11 10 11
17 17 16 19 19 21 21 19 20 23 23 23 24 24 24 24 24 23 22 20 18 18 17 16 14 13 10 11 11 11 11 11 11 11 11 11 11 11 11 11 12 12 11 11 10 11 11 10 11
15 14 15 17 19 20 20 20 21 23 23 23 23 24 24 24 24 23 21 20 18 17 16 15 14 11 11 10 10 10 11 11 11 11 11 11 11 11 11 11 11 12 11 11 10 10 10 10 10
13 15 15 16 18 20 19 20 21 23 24 24 24 25 24 24 23 22 20 19 18 17 15 14 13 10 10 10 9 10 10 10 10 10 11 11 11 11 10 10 10 11 11 10 10 10 10 10 10
15 16 16 17 19 19 18 18 19 22 22 21 22 24 24 24 23 22 20 19 18 16 15 14 13 10 10 9 9 9 10 9 9 9 9 10 10 10 10 10 9 11 11 10 10 10 10 10 10
15 15 15 17 18 19 18 17 17 19 21 23 23 23 24 24 22 21 20 19 18 17 15 14 12 10 9 9 9 9 9 9 10 10 10 10 10 10 10 9 10 10 10 10 10 10 10 10 11
15 15 16 16 17 17 15 15 16 19 22 23 24 24 24 24 22 20 19 18 17 16 15 14 12 9 9 9 9 9 9 9 9 9 9 9 9 10 9 9 10 10 10 10 10 11 11 11 11
15 16 17 17 14 12 15 12 15 16 19 23 23 23 24 24 21 20 18 17 17 16 14 13 11 9 9 9 9 9 9 8 8 8 8 8 8 9 9 9 9 9 9 10 10 11 11 11 11
16 16 17 15 14 13 13 12 13 17 19 21 22 22 24 24 20 19 19 18 17 16 14 12 10 9 9 8 9 9 9 8 8 9 9 9 8 8 8 8 9 9 9 10 10 10 10 10 11
17 17 17 15 14 11 12 13 12 16 19 22 23 24 24 24 20 21 19 17 17 15 14 12 10 9 9 9 9 9 9 9 9 9 9 8 9 8 8 8 8 8 8 9 10 10 10 10 10
16 15 12 11 11 11 15 14 13 17 20 22 22 23 23 25 20 18 17 16 16 15 14 12 10 9 9 9 9 9 9 10 10 10 9 7 7 7 7 7 8 8 9 9 10 10 10 10 10
15 15 11 12 11 12 14 13 15 18 17 23 23 24 24 24 21 19 19 18 16 16 15 13 10 9 9 9 9 9 10 9 10 10 9 7 8 8 8 8 8 9 9 9 9 10 10 10 10
14 14 15 14 14 12 14 15 17 18 20 22 22 24 24 23 20 19 18 17 17 16 16 14 12 9 9 9 9 9 10 9 9 10 9 8 8 8 9 8 8 8 9 9 9 9 9 10 11
15 16 14 13 12 12 14 16 14 17 18 19 22 20 22 23 21 19 19 18 18 18 17 15 13 10 9 8 8 9 9 9 9 9 9 9 8 9 9 9 9 9 9 10 9 9 9 10 11
14 14 15 15 13 11 13 15 17 18 18 17 17 20 22 23 22 18 19 18 18 17 17 15 13 10 9 9 8 9 9 8 9 9 9 9 8 9 9 9 9 9 10 10 10 9 10 10 11
16 15 15 12 13 13 14 15 18 18 16 16 15 15 22 22 22 21 19 17 17 17 17 16 14 12 9 8 9 8 9 9 8 8 9 9 9 9 9 10 10 10 10 10 10 10 10 10 10

GFSSGP_850_temp_096.txt.gz
Temp
18 19 18 18 15 12 14 16 20 21 23 24 24 24 23 22 23 19 20 20 21 21 21 21 20 19 19 19 18 19 19 19 18 18 17 17 17 16 16 16 16 16 15 15 15 14 14 14 14
19 18 18 18 14 13 14 17 20 21 23 25 25 24 23 20 21 21 20 21 21 21 21 21 20 19 18 18 18 18 18 18 18 17 17 16 16 16 16 16 16 16 15 15 14 14 14 13 14
18 18 18 13 11 13 15 21 23 23 25 25 24 25 24 21 22 23 21 21 21 22 22 21 21 20 19 18 18 18 17 17 17 17 16 16 15 15 15 15 16 16 15 15 13 12 13 13 13
18 18 17 14 14 15 17 20 21 22 24 25 25 23 22 22 23 22 22 22 22 22 21 21 21 20 19 19 18 17 17 17 16 16 16 16 15 14 13 14 14 14 14 13 12 12 13 13 13
18 17 13 14 14 16 19 20 23 22 23 24 25 22 21 21 22 22 22 22 22 22 21 22 21 20 18 17 16 16 16 16 16 15 14 14 15 15 15 13 12 13 13 13 12 13 13 12 12
17 16 12 13 15 18 19 22 23 22 24 24 24 21 21 22 22 21 20 22 22 21 21 20 20 19 18 17 16 16 15 15 16 15 13 14 14 14 16 15 12 13 13 12 13 12 12 12 11
14 12 13 14 15 17 20 23 22 22 23 23 24 20 19 20 22 22 21 21 21 21 21 20 19 19 18 17 16 14 15 14 14 14 13 14 13 14 15 14 13 13 13 12 13 12 12 11 11
18 13 15 14 16 16 20 23 23 24 23 25 24 19 17 21 21 22 21 20 20 20 20 19 19 18 18 17 15 14 14 14 13 13 13 14 14 13 14 13 13 12 13 12 13 12 12 11 11
17 13 12 14 16 18 21 21 23 24 25 25 24 24 24 23 21 21 21 20 19 19 20 19 18 18 18 16 14 13 13 13 13 12 12 13 13 13 13 11 12 12 12 12 13 12 11 11 11
14 11 14 16 17 18 20 20 21 23 22 23 24 24 24 23 22 21 21 21 21 20 20 18 18 17 17 16 14 13 13 12 12 12 12 13 13 12 11 11 11 11 12 12 13 11 11 11 11
16 15 17 17 19 20 19 19 21 21 20 23 24 24 22 22 21 21 21 22 22 20 19 18 17 17 17 15 13 13 13 12 12 12 12 12 12 12 11 11 11 11 11 12 12 11 11 11 11
14 17 17 18 19 19 18 20 20 21 22 24 24 23 22 21 20 20 21 21 21 19 18 18 16 16 16 15 13 12 12 12 12 12 12 12 12 11 12 11 11 11 11 12 11 11 11 11 11
15 17 18 19 19 20 20 19 19 21 24 24 24 23 22 22 21 21 22 21 20 19 18 18 16 16 16 15 13 12 12 12 13 12 12 11 11 11 11 11 10 12 11 12 12 11 11 11 11
18 18 18 19 19 19 19 19 20 22 24 24 24 24 23 22 22 22 20 20 19 19 18 18 16 15 15 15 13 12 12 12 12 12 12 11 11 11 11 11 11 12 12 12 12 11 12 11 11
18 16 17 17 18 18 20 18 18 22 23 22 23 23 24 24 23 22 22 21 19 19 18 18 16 16 15 15 12 11 11 11 12 11 11 11 11 11 11 11 11 11 12 12 12 11 11 11 11
16 15 15 18 18 19 19 18 18 22 22 22 23 23 23 23 24 24 22 21 20 19 18 17 16 15 15 14 12 11 11 11 11 12 11 11 11 10 11 11 11 11 12 12 12 12 11 11 10
14 14 14 15 18 17 17 17 18 22 20 20 21 21 22 23 24 24 23 22 21 19 18 17 16 15 14 14 11 11 11 11 11 11 11 11 11 10 10 10 10 11 12 12 12 11 11 11 10
13 12 13 14 17 17 16 17 17 19 18 18 18 20 22 24 24 23 22 21 20 19 17 17 16 15 14 11 10 10 10 10 11 11 11 11 11 11 10 10 11 12 12 11 11 10 11 11 10
14 13 12 15 16 16 15 16 16 16 17 17 18 19 21 25 24 23 21 21 20 18 17 16 16 15 14 11 10 9 10 10 10 11 11 11 11 11 10 11 10 11 12 11 11 10 10 11 10
12 12 13 14 15 15 15 15 15 15 16 18 18 19 21 23 21 20 20 20 20 19 17 16 15 15 14 12 9 9 9 10 10 10 10 10 11 11 11 10 10 10 10 11 11 11 10 10 10
12 12 13 13 15 15 15 15 16 17 16 17 18 19 20 24 20 18 19 19 19 18 17 16 15 15 13 11 9 9 10 9 9 9 9 10 10 11 10 10 11 9 10 11 10 10 10 10 10
12 14 14 14 13 13 14 14 15 16 16 16 17 19 20 22 20 20 18 18 19 17 16 16 15 14 13 11 9 9 9 9 9 9 9 10 10 10 10 10 10 9 10 10 10 10 10 10 10
13 14 14 14 12 12 12 11 14 14 15 16 17 19 21 22 21 19 18 19 18 17 16 15 14 13 13 10 9 8 9 9 9 9 8 9 10 10 10 10 9 9 10 10 10 10 10 11 11
15 14 14 13 11 10 11 12 15 13 14 16 18 20 21 21 21 19 18 18 18 16 15 14 13 13 11 10 9 8 8 8 8 8 8 8 8 8 8 9 8 9 9 9 10 10 10 10 11
14 13 11 10 10 10 13 12 14 15 15 16 17 19 19 20 21 17 15 17 17 16 15 14 12 12 11 9 9 8 8 8 8 8 8 8 8 8 8 8 8 8 8 9 8 10 10 10 10
12 12 10 11 10 11 13 12 13 16 16 17 17 19 20 20 20 16 17 18 18 16 15 14 12 12 11 9 9 9 8 8 8 8 9 9 9 9 9 10 9 9 8 8 8 9 11 10 10
13 12 13 12 12 11 11 13 15 16 14 15 16 16 19 21 19 16 15 18 18 17 16 15 13 12 12 10 10 9 8 9 9 9 9 9 9 9 9 8 8 8 8 8 9 9 10 10 10
14 14 12 11 11 11 12 13 14 14 13 15 14 15 15 17 16 14 15 18 18 18 16 14 14 14 13 10 9 10 10 9 10 9 9 9 9 8 7 8 8 8 8 8 8 9 9 9 10
13 12 13 12 10 10 10 12 13 12 12 11 14 15 16 16 16 15 17 19 18 17 16 15 14 13 12 11 9 9 9 9 9 10 9 9 9 8 8 8 8 8 7 8 8 9 9 9 9
13 14 12 10 11 10 10 13 14 12 12 12 13 14 14 14 18 16 15 15 16 17 17 16 14 13 13 12 9 9 9 9 9 9 9 9 9 8 8 8 8 8 8 9 9 9 9 9 10

GFSSGP_850_temp_099.txt.gz
Temp
18 18 18 18 14 11 13 15 16 19 22 23 24 23 22 22 21 19 22 21 21 21 21 21 20 19 18 18 19 19 18 18 18 18 18 17 17 16 16 16 15 16 16 16 15 15 15 15 14
19 18 18 17 12 13 13 15 18 18 22 24 24 22 22 21 21 22 21 21 20 22 21 21 21 20 18 18 18 18 18 18 18 17 17 16 16 16 16 15 15 15 15 14 14 14 14 14 14
18 18 17 12 9 12 15 17 21 21 23 22 23 23 23 22 22 23 23 22 21 21 21 21 21 21 20 18 18 18 18 18 18 17 17 17 16 15 16 15 15 14 14 13 14 14 13 13 14
17 17 16 13 13 13 16 19 19 19 24 24 23 21 22 23 23 22 22 22 21 20 21 21 21 21 20 19 17 17 17 17 17 17 17 17 16 15 14 15 14 14 14 13 14 13 13 13 13
17 17 12 12 12 14 16 18 20 19 21 24 23 21 21 23 22 22 22 22 21 21 21 21 20 20 20 19 17 17 17 17 17 17 17 16 16 15 15 15 14 13 14 13 14 13 13 13 12
16 15 11 12 14 16 17 20 20 20 21 23 22 20 21 21 22 22 22 22 22 22 21 21 20 19 19 18 17 16 15 15 16 16 16 16 15 14 14 15 15 13 13 15 13 13 13 12 12
13 10 12 13 13 15 18 21 20 19 21 22 23 18 20 21 21 21 21 22 22 21 21 21 20 19 18 18 17 15 15 15 15 14 14 14 15 14 14 13 14 14 14 13 13 13 12 12 12
16 11 14 12 15 16 19 21 22 22 21 23 24 18 19 22 20 20 20 21 21 21 20 20 19 19 19 18 16 14 14 14 14 13 13 13 13 13 13 12 12 13 13 12 12 12 12 11 11
16 11 11 13 15 16 19 18 21 21 22 23 23 24 24 23 20 19 19 19 20 20 20 20 19 18 18 18 17 14 14 14 13 13 13 12 13 13 13 12 12 12 14 12 12 12 11 10 11
13 10 12 14 15 17 17 17 18 20 20 22 23 23 23 23 21 20 20 21 21 20 21 20 19 18 18 17 17 14 13 13 13 13 13 13 12 13 13 12 12 13 12 12 13 11 10 10 10
13 14 14 15 18 18 16 16 18 19 17 21 22 24 22 22 20 20 20 21 22 21 20 20 19 18 18 17 17 15 12 12 12 13 12 12 12 12 12 12 11 11 11 12 12 11 10 10 10
13 14 17 17 18 17 16 18 17 18 20 21 21 23 22 22 21 21 20 20 21 20 20 20 18 18 17 17 16 15 12 11 12 12 12 12 12 12 11 11 10 10 11 11 11 10 11 11 11
13 15 16 17 17 18 18 17 17 18 21 22 21 21 22 22 22 22 22 21 21 20 20 19 18 17 17 16 16 14 13 12 12 12 12 11 11 11 11 11 10 10 11 11 11 10 11 11 11
16 16 16 17 17 17 17 17 18 19 21 21 22 21 22 22 22 22 21 21 21 20 20 18 17 16 16 16 16 14 13 12 12 12 12 12 11 11 11 11 10 10 11 11 11 10 10 11 10
16 15 15 15 16 16 18 15 15 20 21 21 22 22 22 21 21 21 22 22 21 20 20 18 17 16 16 15 15 14 13 12 12 12 12 12 11 11 11 11 10 10 11 11 11 10 10 10 10
15 15 13 15 15 17 17 17 17 21 21 20 21 21 21 21 21 21 22 22 21 20 20 19 17 16 15 15 15 14 12 12 12 12 12 12 11 11 11 10 10 10 10 11 10 10 10 10 10
12 11 13 15 17 17 15 15 17 19 19 18 19 20 20 20 21 22 21 22 22 21 20 19 17 16 15 14 14 13 11 11 12 12 11 11 11 11 10 10 10 10 10 11 11 10 10 10 10
12 12 12 13 15 16 14 15 15 18 17 17 18 19 20 20 22 22 21 21 22 21 20 19 17 16 15 14 14 13 10 10 11 11 11 11 11 11 10 10 9 10 9 10 11 10 10 10 10
13 12 12 13 15 14 13 13 14 15 16 15 17 18 19 20 21 22 22 20 21 21 19 18 17 15 14 13 13 13 10 10 10 10 11 11 11 10 10 10 10 9 9 11 11 10 10 10 10
11 11 11 12 13 13 13 14 15 14 14 16 17 18 18 19 19 20 21 19 22 22 19 17 16 15 15 13 13 13 11 9 10 10 11 11 10 11 10 10 10 10 10 11 12 10 10 10 10
11 11 11 12 13 13 12 13 13 15 15 17 17 17 18 18 18 20 20 18 21 20 19 17 16 15 14 13 12 12 9 9 10 10 10 10 10 10 10 10 10 10 10 10 11 10 10 10 10
10 12 13 12 11 10 13 12 14 15 15 15 16 17 18 17 18 20 19 17 20 20 18 17 16 15 14 13 12 12 11 10 10 9 10 10 10 10 11 10 10 10 10 11 11 10 10 10 10
11 12 12 12 11 11 12 10 12 14 14 15 16 16 17 18 18 20 19 20 19 19 18 17 15 14 14 13 12 11 10 9 9 9 9 10 10 10 10 10 10 9 8 9 11 10 10 10 10
14 12 12 11 10 9 11 10 13 13 14 14 15 16 16 17 17 20 20 17 17 14 16 16 15 14 13 13 11 10 10 9 9 8 8 9 9 9 9 10 10 9 7 8 10 10 10 10 10
13 12 10 9 9 10 12 11 14 14 15 14 14 14 15 15 16 19 17 17 16 16 14 15 15 14 13 13 11 9 9 9 9 9 8 8 9 9 9 9 9 8 7 8 9 9 9 9 10
10 10 9 11 10 12 11 11 12 15 14 14 13 13 14 14 14 18 19 18 16 15 15 15 15 14 13 13 11 8 8 8 9 8 8 8 8 9 9 9 9 8 7 8 8 8 8 8 8
11 11 12 11 11 10 10 12 13 14 11 11 12 12 12 13 14 16 19 18 16 16 16 16 15 14 13 12 11 9 9 9 9 8 8 8 8 8 8 8 8 7 7 7 7 8 7 8 8
12 13 11 10 10 11 11 12 11 11 11 11 11 10 11 13 13 16 14 15 15 16 15 15 15 15 14 12 11 10 10 10 10 9 8 8 8 8 8 8 8 7 8 8 8 8 7 8 8
11 11 12 11 9 11 10 10 10 11 11 11 10 9 11 12 13 14 12 11 11 13 15 15 15 14 13 12 11 10 10 10 10 10 9 9 9 9 8 8 8 9 9 8 7 8 8 8 9
12 12 11 9 10 9 9 11 13 13 12 11 10 9 10 12 13 14 14 12 11 11 14 15 15 13 13 12 11 10 10 10 10 10 9 9 9 9 8 8 8 8 8 8 8 8 7 8 9

GFSSGP_850_temp_102.txt.gz
Temp
18 18 17 17 14 10 12 14 15 17 20 22 22 21 20 21 19 18 22 22 22 22 22 21 20 19 19 19 19 18 18 18 17 17 17 17 17 17 17 17 17 17 16 16 16 15 15 15 15
18 17 17 16 12 12 13 14 17 17 21 22 22 22 22 22 21 22 22 22 22 22 22 21 20 19 19 19 18 18 18 18 18 17 17 17 17 16 16 16 15 16 16 16 15 15 15 15 14
18 17 17 11 8 11 14 15 17 19 21 22 22 22 22 22 22 23 23 23 22 21 21 21 20 19 19 18 18 18 18 18 18 18 18 17 16 16 16 16 15 15 15 15 14 14 14 14 14
17 17 15 12 12 12 14 18 18 18 22 22 22 21 22 22 22 23 23 23 22 21 21 21 21 20 18 18 18 17 17 18 18 17 17 16 16 15 15 15 16 14 14 14 14 14 14 14 14
17 16 11 11 11 13 13 16 18 18 20 21 22 21 21 22 23 23 23 22 22 21 21 21 21 20 19 17 17 17 17 17 17 17 17 16 15 15 15 15 14 15 14 14 14 14 13 13 13
15 14 10 12 14 14 15 19 19 19 20 20 21 20 22 23 22 22 22 22 21 21 21 21 20 20 19 18 16 16 17 16 16 16 16 16 15 15 15 15 14 15 14 16 15 13 13 13 13
12 10 11 12 12 14 15 20 19 19 18 19 21 18 22 23 22 21 21 21 21 20 21 21 20 20 19 18 17 16 16 16 16 15 15 15 15 14 14 14 14 14 13 15 15 13 13 13 12
16 11 11 11 13 14 18 20 21 19 19 21 21 19 21 24 22 21 20 20 20 19 20 20 20 20 19 18 17 16 16 15 15 15 14 14 14 14 14 13 13 13 13 14 13 12 12 13 12
15 11 10 13 13 15 18 18 19 20 20 20 22 22 22 22 22 21 20 20 19 20 20 20 19 19 18 18 16 14 14 14 13 13 14 14 13 13 13 13 12 13 12 12 12 12 14 11 12
12 9 11 14 14 16 17 17 17 19 17 19 20 21 21 23 21 22 21 21 21 21 21 21 20 19 18 18 17 14 14 14 13 13 13 13 13 14 13 12 12 12 12 12 12 13 11 11 11
13 12 13 14 16 17 15 16 17 17 16 19 20 21 21 20 20 20 20 21 22 21 20 21 20 18 18 17 17 15 13 13 13 13 13 13 12 13 13 13 12 11 11 11 11 12 12 11 11
12 12 15 15 17 16 15 17 16 17 18 20 20 20 20 20 20 21 21 21 21 20 20 20 20 18 18 16 16 16 14 13 12 13 13 13 13 13 12 12 13 11 11 11 10 11 11 11 11
11 13 15 15 16 17 17 15 15 16 19 20 20 20 21 20 21 21 22 21 20 20 20 20 19 18 18 17 15 15 15 14 13 12 12 12 12 12 12 12 12 11 11 10 10 10 10 11 11
14 14 15 16 16 16 15 16 16 17 19 19 20 21 21 21 21 21 20 21 21 20 20 19 19 18 17 17 15 15 14 14 13 12 12 12 12 12 11 11 11 10 11 10 10 10 10 10 10
14 13 13 12 15 14 16 14 14 18 19 19 20 20 20 20 20 21 21 21 22 21 20 20 19 18 17 17 15 14 14 13 13 12 12 12 11 11 11 11 11 11 10 9 10 10 10 10 10
14 14 12 14 13 15 17 16 17 19 19 18 19 20 20 20 20 20 20 21 21 21 21 20 19 18 17 16 15 14 13 12 13 12 12 12 12 11 11 11 10 11 10 9 10 10 10 10 10
11 10 11 14 14 16 14 15 16 18 17 17 18 19 19 20 20 20 20 20 21 20 21 20 20 19 17 16 15 14 13 12 12 12 12 12 11 11 11 10 10 10 10 9 10 10 10 10 10
10 10 11 12 15 15 13 13 13 16 15 16 17 18 19 19 20 20 20 20 21 21 21 19 19 18 17 16 14 13 13 12 11 11 12 11 11 11 11 10 10 10 10 9 9 10 9 10 10
12 11 11 12 14 13 12 12 12 13 14 13 15 17 18 19 20 21 21 21 21 20 20 19 19 18 16 16 15 14 13 11 10 11 12 11 11 11 11 10 10 10 9 9 8 9 10 9 10
11 11 10 11 12 13 12 13 12 12 12 15 16 16 18 18 19 19 19 20 21 20 19 19 19 17 17 16 15 14 14 11 10 10 11 11 11 11 10 10 10 10 8 8 9 10 9 9 10
10 10 11 11 12 11 11 12 12 12 13 15 17 17 17 18 17 17 18 18 19 20 19 20 18 17 17 16 15 14 13 11 10 9 10 10 10 10 10 10 10 9 10 9 8 9 9 9 10
10 10 11 11 11 9 11 10 14 13 14 14 15 17 17 17 16 16 17 18 19 21 18 19 16 16 16 16 15 14 13 13 11 9 9 10 10 10 10 10 10 9 9 8 8 9 9 9 10
10 11 10 10 9 10 10 9 10 13 14 14 14 16 16 15 14 15 16 18 19 18 18 18 15 15 16 16 14 13 12 12 11 10 9 9 10 10 10 10 10 10 9 9 9 9 9 10 10
12 12 11 10 8 7 9 10 10 12 14 14 14 14 13 13 13 14 14 15 17 17 17 15 14 15 14 14 14 13 12 12 8 8 9 9 9 10 9 10 10 9 8 8 9 9 9 10 10
11 9 9 9 8 10 10 9 13 13 13 13 11 11 11 11 11 12 13 13 16 17 17 14 14 15 14 13 13 12 12 11 10 9 9 8 9 10 9 9 10 10 9 9 8 9 9 9 10
9 9 8 10 9 10 10 9 11 12 11 11 11 11 11 12 11 12 12 13 14 17 17 15 14 15 15 13 13 12 11 10 10 9 9 8 9 9 9 9 9 9 9 8 7 7 9 9 9
10 8 10 10 10 9 9 10 12 11 11 10 10 10 10 10 11 11 12 14 14 16 17 16 13 14 15 14 13 12 11 10 9 8 8 8 8 8 8 9 9 9 9 7 6 7 7 7 8
11 11 10 8 9 10 10 10 10 12 11 10 9 9 8 10 11 10 11 12 12 12 12 10 11 14 15 14 13 12 11 10 9 9 9 9 8 8 8 8 8 8 8 7 6 6 6 7 7
9 10 11 10 8 10 10 10 10 11 11 10 10 9 8 11 10 10 11 11 12 12 11 10 10 12 14 14 13 12 11 10 10 9 9 10 8 8 8 8 8 8 7 7 6 7 7 7 7
11 10 9 9 9 8 9 11 12 10 10 10 9 9 9 9 9 10 10 9 11 12 11 10 9 11 13 14 13 12 11 10 10 10 9 9 10 8 8 8 7 7 7 7 7 7 8 8 7

GFSSGP_850_temp_105.txt.gz
Temp
18 17 17 18 19 17 18 20 17 20 21 20 21 21 23 22 22 23 23 22 23 23 23 22 21 20 19 19 18 18 18 18 18 18 18 18 18 18 18 17 17 17 17 16 15 16 16 15 15
18 17 18 17 19 19 21 18 19 21 21 21 21 21 21 23 21 22 22 23 23 23 23 22 21 20 19 18 18 18 18 18 18 18 18 17 17 17 17 17 16 16 16 16 15 15 15 15 15
17 17 18 19 16 20 21 19 21 20 19 20 22 22 22 22 22 22 23 23 23 22 22 22 21 20 19 18 18 18 18 18 18 18 17 17 17 17 17 16 15 15 15 16 15 15 15 14 14
16 17 15 18 19 17 18 20 19 20 21 21 22 24 22 22 23 23 23 23 23 22 22 21 21 20 19 18 18 18 18 18 18 18 17 17 17 16 15 16 15 15 15 15 15 15 15 14 14
16 16 17 17 17 16 17 17 18 21 20 20 22 23 21 23 23 23 23 23 22 22 21 21 21 20 19 18 18 18 17 17 17 17 17 16 16 16 16 15 15 15 15 14 15 15 15 14 14
16 14 17 19 19 16 18 18 18 20 20 19 20 22 22 23 23 23 23 23 22 21 21 21 20 19 19 18 18 17 17 17 16 16 16 16 16 15 15 14 15 16 15 14 15 15 15 14 14
16 16 17 16 18 16 18 19 19 20 20 20 20 22 22 23 23 23 23 22 22 21 20 20 20 19 19 18 17 17 17 16 16 16 15 15 15 15 14 14 14 14 14 14 14 14 14 14 13
15 17 15 16 19 19 19 18 20 20 21 20 20 21 22 21 22 21 22 22 21 20 20 20 20 19 19 18 17 17 17 16 16 15 15 15 15 14 14 14 14 13 13 13 13 13 13 14 13
15 16 16 18 17 19 18 19 19 19 19 20 21 20 21 21 21 20 21 21 21 20 20 19 19 19 19 18 17 17 16 16 16 15 14 14 14 14 14 13 13 14 13 13 12 13 13 13 12
16 15 17 17 18 18 18 17 18 19 18 19 20 21 20 20 21 20 21 22 21 21 20 19 19 19 18 18 17 16 15 13 14 13 13 14 14 13 13 13 13 13 13 13 12 12 12 12 12
14 16 15 16 16 16 17 17 17 18 19 19 20 20 20 20 20 20 20 21 22 21 20 20 19 18 18 18 17 17 14 13 13 13 13 14 14 13 13 13 13 13 12 11 11 12 12 12 11
14 13 16 16 16 16 17 17 17 17 19 19 19 19 19 20 20 20 21 21 21 21 21 20 20 18 18 17 17 17 17 14 14 13 13 13 13 13 13 13 12 12 12 11 10 11 11 11 11
13 15 14 15 16 15 16 17 17 17 18 19 19 19 20 20 21 21 21 20 20 21 21 20 20 19 18 17 17 17 17 15 14 13 12 12 13 13 12 13 13 12 12 11 11 11 11 11 11
14 14 16 16 16 15 16 17 16 16 18 18 19 19 20 20 21 21 21 21 20 20 20 19 19 19 18 17 17 17 17 15 13 13 13 12 12 12 13 12 12 12 12 11 10 10 11 10 10
14 14 15 15 15 16 15 16 16 17 17 17 18 19 19 20 20 21 21 21 21 21 20 20 19 18 18 17 17 16 16 15 14 13 13 12 12 12 12 12 12 11 11 10 10 10 10 9 10
14 14 15 16 15 16 17 18 18 18 17 17 17 18 19 19 19 20 20 20 20 20 20 21 19 18 18 17 17 16 16 15 14 13 13 11 11 12 12 12 11 11 10 10 10 10 9 9 10
12 14 13 15 15 17 17 18 18 16 16 17 16 17 18 19 19 20 20 20 20 20 21 20 19 18 18 17 16 16 15 14 14 13 12 12 11 11 11 11 11 10 10 10 9 9 9 9 10
13 12 13 15 16 15 16 16 17 17 15 16 16 17 18 19 19 20 19 19 20 20 21 21 19 18 17 16 16 15 14 14 13 13 12 12 12 11 11 11 11 10 10 10 10 10 9 9 10
13 13 14 13 14 15 16 16 16 16 16 16 16 16 16 18 20 19 18 19 19 20 21 21 20 18 16 16 16 15 15 14 13 12 12 11 11 11 11 11 10 10 10 10 8 9 10 9 9
12 13 13 13 14 14 15 15 16 16 16 17 17 16 17 17 17 17 18 18 18 19 21 20 19 18 17 16 16 15 15 14 14 12 12 11 11 11 11 11 10 10 10 10 8 8 8 9 9
12 12 12 13 13 13 13 15 16 16 14 15 15 15 15 15 14 16 17 17 18 19 19 19 18 18 16 15 15 15 15 13 13 11 11 11 11 10 11 10 10 10 10 9 9 8 9 9 9
11 11 12 12 12 12 13 14 15 16 16 16 17 16 14 13 14 15 16 16 17 17 17 17 17 17 16 15 15 15 16 15 15 13 10 10 10 10 11 10 10 10 8 8 8 8 9 9 9
11 11 12 12 12 12 13 13 14 14 16 16 16 14 13 13 13 13 13 14 15 17 17 16 17 15 15 15 15 15 15 15 14 12 11 10 10 10 10 10 10 9 9 9 10 9 8 9 8
12 11 11 10 11 11 12 14 14 16 16 16 14 13 12 11 13 14 14 14 15 16 16 14 15 13 13 15 15 16 15 14 13 12 11 9 9 10 9 9 10 10 9 10 9 8 8 8 8
12 12 11 10 10 12 12 12 15 15 14 14 14 13 12 11 12 12 12 13 14 13 13 13 13 11 12 14 14 15 15 14 12 11 9 9 9 9 10 10 10 10 9 9 8 8 7 8 7
11 12 12 11 11 12 11 12 15 14 12 12 12 12 11 11 11 12 13 12 12 12 12 12 11 10 10 14 14 15 14 13 12 11 10 9 8 8 9 9 9 10 9 9 8 8 7 8 8
11 11 12 12 11 11 13 13 13 12 12 12 12 11 11 11 11 11 12 12 11 11 10 10 9 10 10 12 14 14 14 13 11 10 9 9 8 8 9 9 10 9 9 8 7 7 8 8 8
12 12 11 11 10 11 12 12 14 12 13 13 13 12 11 10 11 11 11 11 10 9 9 9 9 10 10 12 12 13 14 13 11 9 9 9 8 8 8 8 8 9 9 9 8 7 6 7 7
11 11 11 12 11 12 12 13 13 13 14 13 12 11 10 9 9 10 10 11 8 8 9 9 9 9 10 10 12 13 13 12 10 9 9 9 9 8 8 8 8 9 9 8 8 8 6 7 6
11 11 12 11 11 11 12 13 13 12 13 12 11 10 9 8 9 8 10 8 8 9 9 9 9 9 9 10 12 13 12 11 10 9 9 9 10 8 8 8 8 8 8 8 8 7 7 6 6

GFSSGP_850_temp_108.txt.gz
Temp
18 17 17 19 24 25 26 26 27 26 25 25 24 26 27 27 27 27 23 22 23 23 23 23 23 22 20 19 18 19 19 19 19 18 18 17 18 17 17 17 17 17 17 17 17 16 16 16 15
17 17 18 22 24 26 28 27 26 27 26 23 24 24 25 27 24 22 21 23 23 23 23 23 23 22 20 19 18 18 19 18 18 18 18 17 17 17 17 17 17 17 17 17 16 16 15 15 15
17 17 21 24 25 26 27 27 27 25 24 24 25 25 25 26 23 23 22 24 23 23 23 22 22 21 20 19 19 18 18 18 18 18 18 17 17 17 17 16 16 16 15 15 15 15 15 15 15
16 18 20 23 25 26 26 27 26 25 24 24 25 26 24 23 23 23 23 23 23 23 22 22 21 21 20 19 19 18 18 18 18 18 18 17 17 17 17 16 16 15 15 15 16 15 15 15 14
17 20 23 23 25 27 25 25 24 25 24 24 24 27 25 22 22 22 23 23 23 23 22 22 21 20 20 19 18 18 18 18 18 18 17 17 17 16 16 16 16 17 16 16 16 15 14 14 14
20 21 23 24 25 25 24 25 23 24 24 24 23 25 25 22 22 21 22 23 22 22 22 22 21 20 20 19 18 17 17 17 17 17 17 17 17 16 16 15 16 15 15 15 15 15 14 14 14
20 22 23 24 26 26 24 23 24 25 25 24 23 25 25 22 20 23 22 22 22 22 21 21 21 20 19 19 18 17 17 17 17 17 17 17 16 15 15 15 15 15 15 14 14 14 14 14 14
19 22 22 24 24 25 25 22 23 24 25 22 22 25 25 21 21 21 22 22 22 22 21 21 21 20 19 18 18 17 17 16 16 16 16 15 15 15 14 14 15 14 14 14 14 13 13 13 13
18 20 22 23 23 25 22 23 21 21 23 22 22 23 21 21 21 19 19 18 20 21 21 21 20 19 19 18 18 17 16 16 15 15 15 15 14 14 14 14 14 14 14 13 13 13 13 13 13
19 21 22 24 24 23 23 22 23 23 23 23 22 21 20 20 19 19 19 19 18 20 20 20 20 19 19 17 15 17 17 16 14 14 14 14 13 13 13 13 13 13 13 13 13 12 12 12 12
18 20 23 22 22 22 23 23 22 23 24 24 23 22 21 20 20 20 20 20 19 18 17 19 20 19 19 16 14 15 16 14 14 14 14 14 14 14 13 13 13 13 13 13 12 12 12 12 12
18 20 20 21 20 20 21 22 22 22 22 23 22 21 20 21 20 21 21 21 21 19 18 17 19 19 19 15 16 15 17 15 15 14 13 14 14 14 13 13 12 12 12 12 12 12 11 11 12
18 19 19 19 19 19 19 20 21 21 21 20 21 20 20 21 21 21 20 21 21 19 18 16 20 19 19 18 16 15 14 16 16 14 14 14 13 13 13 13 13 13 12 12 12 12 11 11 11
19 19 19 18 18 19 19 20 20 20 19 19 20 20 21 21 21 21 21 20 20 20 18 16 19 19 18 18 18 18 17 14 17 15 14 14 13 13 13 13 13 12 13 12 12 12 12 11 10
17 18 19 19 18 19 19 20 20 20 20 20 20 20 21 21 21 21 21 20 20 19 19 17 19 19 18 18 18 18 18 18 17 16 14 13 13 13 12 13 12 12 12 12 11 11 11 10 10
17 18 17 20 20 19 19 20 23 21 21 21 21 21 21 21 21 21 20 20 20 20 19 18 18 19 18 17 17 18 18 17 16 16 15 14 13 13 12 12 12 12 12 11 11 10 10 10 10
17 18 19 19 20 20 20 20 23 22 21 21 21 21 21 21 20 20 20 20 20 20 19 18 17 19 17 15 15 17 17 17 16 15 15 14 13 12 12 12 12 11 12 11 10 10 10 10 9
17 17 17 17 20 19 20 20 22 20 20 20 20 20 21 21 21 21 21 19 19 19 19 18 17 18 16 13 15 17 17 16 15 15 15 14 13 13 12 12 11 12 11 10 10 10 9 10 9
17 17 17 18 19 18 19 20 21 22 20 20 20 20 21 21 20 20 18 18 18 19 20 20 19 18 15 14 15 16 17 16 15 15 14 13 13 13 12 11 11 11 11 10 10 9 9 9 9
13 12 15 17 17 17 18 19 21 21 21 20 20 21 21 21 20 19 17 17 16 18 17 18 18 16 15 14 15 15 16 16 15 15 14 13 13 11 12 11 11 11 10 10 9 9 10 9 9
13 12 12 14 17 16 17 18 19 21 21 20 20 20 20 19 19 18 17 16 16 16 16 16 15 14 13 12 12 12 15 14 14 15 13 12 12 10 11 11 11 11 10 10 9 9 9 8 8
13 15 15 14 12 15 18 17 19 20 20 21 20 20 19 18 17 17 16 16 16 15 15 15 14 13 12 12 12 12 15 15 15 15 14 11 12 11 11 11 10 11 10 10 10 9 8 9 8
14 15 14 14 14 14 16 16 18 19 19 20 21 19 18 17 16 16 16 15 15 15 14 14 13 12 11 11 12 12 12 12 12 11 12 12 11 11 11 10 10 10 10 10 10 8 8 8 8
14 12 13 14 14 13 16 17 19 20 20 20 19 18 17 16 16 16 16 15 15 15 14 12 12 12 10 11 12 11 12 12 12 13 14 13 11 10 10 10 10 10 10 10 9 8 8 8 9
13 13 13 12 12 14 17 16 18 19 19 20 19 18 17 16 15 15 15 15 14 14 13 13 11 11 10 10 12 11 12 12 12 13 12 13 10 10 10 10 10 9 10 10 9 8 8 9 9
13 14 14 12 14 15 15 14 17 19 19 17 17 17 16 16 15 15 15 14 14 13 13 13 12 10 10 10 11 11 10 11 11 12 13 13 10 9 10 10 10 10 9 9 9 8 8 9 9
13 13 16 14 14 14 16 16 16 17 16 17 17 16 16 16 15 14 14 13 13 12 11 12 11 10 10 9 11 10 12 11 11 10 11 10 9 9 9 9 9 9 9 9 9 9 8 8 8
14 15 12 14 13 13 16 16 17 16 16 16 17 17 15 14 14 13 12 11 11 10 10 10 11 9 9 10 10 10 11 10 10 9 12 11 11 9 8 9 9 9 9 9 9 8 8 8 8
12 13 13 15 15 14 15 16 17 17 17 16 17 15 14 13 13 12 10 9 9 9 11 11 10 9 9 9 10 11 10 10 10 9 11 11 10 8 8 9 9 9 9 9 9 9 7 7 7
14 13 14 13 13 14 14 15 16 16 16 16 15 14 13 12 12 11 9 7 7 9 9 9 9 9 9 9 10 10 10 10 10 9 11 11 10 8 9 9 8 8 9 9 9 8 7 7 7

GFSSGP_850_temp_111.txt.gz
Temp
18 18 18 21 24 27 28 30 31 29 29 29 28 29 30 30 30 27 25 23 23 22 24 23 23 23 22 20 19 19 19 19 19 18 18 18 18 17 17 17 17 17 16 16 16 16 16 15 15
17 18 20 23 25 27 30 32 29 30 29 27 26 28 28 29 28 25 24 22 22 22 24 23 23 22 21 20 19 19 19 19 19 18 18 18 18 17 17 17 17 16 15 17 16 16 15 15 15
18 19 22 25 26 27 30 31 30 30 27 27 28 27 28 28 27 26 24 22 22 21 23 23 22 22 21 20 19 19 19 19 18 18 18 18 18 18 17 17 17 17 16 17 17 15 15 15 15
19 20 22 24 26 29 30 31 30 29 27 27 28 28 27 26 26 25 23 22 22 21 20 23 22 22 21 20 19 18 18 18 18 18 18 17 18 17 17 17 17 17 17 16 16 15 15 15 15
20 22 24 25 26 29 31 29 29 29 29 27 27 29 28 25 25 25 23 22 21 20 21 23 22 21 21 20 19 18 18 18 18 18 18 17 17 17 16 16 16 16 16 16 16 15 15 15 15
21 23 24 26 27 29 31 28 28 28 28 27 26 27 28 25 24 24 22 21 21 21 22 23 22 21 20 20 19 18 18 18 17 17 17 17 17 17 16 16 16 16 15 15 16 15 14 14 15
22 25 24 26 27 29 30 27 28 27 27 27 26 28 27 25 24 23 22 21 20 22 23 22 22 21 20 20 19 18 18 17 17 17 17 16 16 16 16 16 15 15 15 15 15 15 14 14 14
21 24 24 26 26 27 30 27 26 27 27 27 26 27 28 25 22 22 22 21 19 21 22 22 21 21 20 20 19 18 18 17 17 16 16 16 15 15 15 15 15 15 14 14 15 15 13 14 14
21 22 23 25 26 27 28 26 26 26 27 26 26 26 24 22 22 22 22 21 20 18 18 20 21 21 20 20 20 18 17 17 16 16 16 16 15 14 14 14 14 14 14 14 14 14 13 13 13
22 22 22 26 27 27 27 26 26 25 26 26 24 24 23 22 22 22 22 21 20 19 18 18 17 16 19 20 20 19 18 17 17 16 15 15 14 14 14 13 13 14 13 13 13 13 13 13 13
21 21 24 25 25 26 27 27 25 26 26 26 25 25 23 23 23 23 23 23 22 21 20 19 17 16 17 16 16 15 17 15 15 14 14 14 14 14 14 14 13 13 13 13 12 13 13 12 13
21 22 22 23 23 24 25 24 25 25 25 25 25 25 24 23 23 23 23 24 24 22 21 19 18 16 16 17 17 17 16 15 14 14 15 15 14 14 14 13 13 13 12 12 12 13 12 12 12
22 22 22 22 22 23 23 23 24 24 24 24 24 24 23 23 23 23 24 24 24 24 22 20 18 17 16 17 17 17 16 18 14 14 14 14 14 14 14 13 13 13 13 13 12 12 12 12 13
22 22 22 21 22 21 22 22 22 22 22 22 22 22 23 23 23 24 23 23 23 24 23 21 19 17 16 16 16 16 16 15 17 15 14 15 14 14 14 14 14 13 13 13 13 12 13 13 13
20 21 21 22 22 22 21 22 22 22 22 22 21 22 23 23 23 23 24 23 23 23 23 21 19 17 18 15 15 15 16 15 15 17 15 14 14 14 14 13 13 13 12 13 13 12 12 12 12
19 20 19 22 22 22 20 21 24 24 24 23 22 22 23 23 23 24 23 23 23 23 22 22 20 17 18 16 16 14 15 14 15 14 15 17 16 14 13 13 13 13 12 12 12 12 11 11 11
19 18 19 21 23 23 22 21 23 23 24 23 24 23 23 23 23 23 23 23 23 23 22 22 20 18 16 15 16 15 14 14 14 13 17 17 16 15 14 12 12 12 12 12 12 12 11 11 10
18 19 20 21 24 23 22 21 23 23 24 24 23 23 23 23 23 23 22 23 22 22 22 21 20 18 16 15 15 16 14 13 14 15 17 17 16 15 13 12 12 12 12 11 12 11 10 10 10
19 19 19 21 23 21 21 21 22 23 23 23 23 23 23 23 23 23 23 21 20 20 20 20 19 19 17 16 16 15 14 13 14 14 13 13 15 15 14 12 12 12 12 12 11 11 10 10 10
18 18 17 20 20 19 20 20 22 23 24 24 23 22 22 23 23 23 22 20 19 19 19 19 19 18 17 16 16 14 13 13 13 14 13 13 13 14 13 11 11 12 11 11 11 10 10 10 9
18 17 16 18 18 16 18 19 20 22 23 22 22 22 22 23 23 23 21 19 19 18 18 18 18 18 17 16 15 13 12 13 13 14 15 14 14 13 11 11 11 11 11 11 11 10 10 9 9
17 17 16 15 14 13 16 16 20 22 22 23 23 22 22 22 22 21 20 19 18 18 17 17 17 17 17 16 14 12 12 12 12 12 13 12 13 13 12 11 11 11 11 10 10 10 11 9 9
16 17 15 15 14 15 16 16 19 23 22 22 23 22 22 21 20 20 19 19 18 18 17 16 15 16 16 16 14 12 12 12 13 12 12 12 13 13 11 11 10 11 11 10 10 10 9 9 9
16 15 15 15 15 14 17 17 18 20 21 22 23 21 20 19 19 19 19 18 18 17 16 15 15 15 15 15 14 13 12 13 14 13 12 12 12 12 11 10 11 10 10 10 10 10 9 9 8
15 13 10 10 12 13 18 17 19 21 21 22 21 20 19 18 18 18 18 18 17 17 16 15 15 15 14 13 12 12 12 12 14 14 13 11 11 12 11 11 11 10 10 10 10 9 9 9 8
15 15 12 11 12 14 18 16 19 21 22 21 20 20 19 18 18 18 17 16 16 16 15 14 14 15 14 13 10 11 11 13 14 13 12 11 11 11 11 10 10 10 10 10 10 10 9 8 8
15 15 17 14 15 14 17 18 19 20 21 20 19 19 19 18 18 17 16 14 13 13 12 13 11 13 14 13 10 11 11 12 13 13 13 11 11 10 9 11 11 10 10 10 9 9 9 8 8
16 17 14 15 13 14 17 17 18 18 18 19 19 18 18 17 17 15 15 13 11 11 10 11 10 12 13 12 10 10 11 11 12 12 11 11 11 10 10 10 10 10 10 10 9 9 8 8 8
15 15 16 16 16 15 15 16 18 18 18 18 19 18 17 17 15 15 13 12 10 9 8 8 8 11 14 11 10 9 10 11 12 11 11 10 12 10 9 9 10 10 9 9 9 9 9 8 8
17 16 16 15 15 16 15 12 19 19 19 18 18 17 16 15 12 12 12 11 10 8 7 6 9 11 11 10 9 9 10 11 11 11 10 11 11 9 9 9 10 9 9 9 9 8 8 8 8

GFSSGP_850_temp_114.txt.gz
Temp
19 19 19 19 22 24 25 28 31 32 30 30 29 30 30 30 28 26 25 24 24 24 24 23 23 23 22 21 20 19 19 19 19 18 18 18 18 18 18 19 18 17 17 16 16 16 16 16 16
19 17 19 22 22 24 26 30 30 32 31 29 28 28 29 30 27 25 24 23 24 24 24 23 23 22 21 20 20 19 19 19 19 18 18 18 18 18 18 18 18 18 17 17 16 15 16 16 16
19 18 21 23 23 24 26 31 31 31 29 28 29 28 29 29 27 26 24 23 23 24 24 23 23 22 21 20 20 19 19 19 19 18 18 18 18 18 18 18 18 18 17 17 17 15 15 15 15
18 19 21 22 24 27 27 30 31 30 29 28 29 29 29 27 27 25 23 22 22 24 23 23 23 22 21 20 20 19 19 19 18 18 18 18 18 17 17 17 17 17 17 16 16 16 16 16 15
18 22 22 23 24 26 29 30 30 30 29 29 28 29 29 27 26 25 23 22 21 21 23 23 22 22 21 21 20 19 19 19 18 18 17 17 17 17 17 17 17 16 16 16 15 15 16 15 15
20 22 21 23 25 27 29 30 30 29 29 29 28 28 28 26 26 24 23 22 21 22 23 23 22 22 21 21 20 19 19 18 18 18 18 17 17 16 16 16 16 16 15 15 15 14 15 15 15
21 22 22 23 25 27 29 31 29 29 28 29 27 27 27 26 25 24 23 21 21 21 23 23 22 22 21 21 20 20 19 19 18 18 18 17 16 16 16 16 16 15 15 15 15 14 14 14 14
21 23 22 24 25 26 29 30 28 28 28 28 28 27 27 27 25 23 22 21 20 20 23 23 22 22 21 21 20 20 19 19 18 18 17 17 16 15 15 15 15 15 15 14 14 14 14 14 13
21 21 21 23 24 25 28 29 27 27 27 28 28 27 25 24 23 23 22 21 19 19 21 22 22 21 21 20 20 19 19 19 18 18 17 17 16 15 15 15 14 15 14 14 14 14 13 14 13
21 21 21 24 26 26 27 28 29 27 26 27 27 26 24 23 23 23 23 22 20 19 19 20 21 21 21 20 20 19 19 19 19 18 17 17 16 15 15 15 14 14 14 14 14 14 14 13 13
20 20 22 24 25 25 27 27 28 27 27 26 27 26 25 24 23 23 23 23 21 20 19 18 19 19 19 19 20 19 19 19 19 18 17 17 16 15 15 14 14 14 14 13 13 13 13 13 13
20 22 22 23 24 25 26 26 27 26 26 26 27 26 25 24 24 24 24 23 23 22 20 19 19 18 18 17 17 18 19 19 19 19 18 15 15 15 15 14 14 13 13 13 13 13 13 13 14
21 22 22 23 23 23 24 25 25 25 25 25 26 25 25 24 24 24 24 24 24 23 22 21 19 19 19 18 17 17 17 18 18 16 16 15 15 15 15 14 14 14 14 14 13 13 13 13 14
21 22 23 23 23 23 23 24 24 24 24 24 24 24 24 24 24 23 24 24 24 24 23 22 20 20 19 18 17 17 17 17 17 15 15 15 15 15 15 15 14 14 13 13 12 13 13 13 13
20 20 22 23 23 23 23 22 22 23 23 23 23 23 23 23 24 24 23 24 24 24 24 22 21 20 20 18 17 17 17 17 17 17 16 14 15 15 15 15 14 14 13 13 13 13 12 12 12
19 19 19 22 23 23 23 21 23 23 23 23 23 23 23 23 23 23 24 24 24 24 23 23 21 20 20 18 16 16 16 16 16 16 17 17 14 14 14 15 14 14 13 13 13 13 12 12 12
18 18 19 19 22 22 22 21 22 23 24 24 23 23 23 23 23 24 24 24 24 24 24 23 21 20 20 19 17 16 16 16 15 15 15 17 15 14 14 14 14 14 13 13 12 12 12 12 12
16 17 18 20 22 22 22 22 23 23 23 23 24 24 24 24 23 23 24 24 24 24 24 23 22 21 20 19 18 16 15 15 15 15 15 15 16 16 15 15 14 13 13 12 12 12 12 12 12
17 18 19 20 22 22 22 22 23 24 23 24 24 24 24 24 24 24 23 23 23 23 23 22 21 20 19 18 17 16 16 15 15 14 14 14 15 15 15 15 14 12 13 13 12 12 11 11 11
17 18 19 21 22 19 19 19 22 23 23 23 24 24 24 24 24 23 23 22 22 21 20 20 20 20 19 18 18 17 16 15 14 14 14 14 14 15 15 15 15 12 11 12 12 12 11 10 10
17 17 18 19 17 14 17 16 18 22 23 23 24 24 23 23 23 23 23 21 20 19 19 19 19 19 19 18 17 16 16 15 14 13 13 13 13 13 13 15 14 12 12 12 10 11 11 11 10
17 18 18 19 16 11 16 14 18 20 21 22 22 23 23 23 23 23 23 21 19 19 19 18 17 18 18 18 18 17 16 16 15 13 12 13 13 13 12 12 13 13 11 11 10 11 11 10 10
17 19 19 18 15 12 14 14 16 18 18 19 22 23 23 22 22 22 21 20 19 19 18 17 16 16 16 17 17 16 16 16 13 12 11 12 12 13 13 12 12 12 12 11 10 11 10 10 10
19 17 16 15 14 12 13 14 16 18 19 19 22 23 22 21 20 20 20 19 19 19 17 17 16 16 16 16 16 16 15 15 13 12 12 12 11 12 13 12 11 12 11 11 10 10 11 10 10
16 15 11 10 11 11 15 14 16 20 22 21 22 22 20 19 19 19 19 19 17 17 16 16 15 15 15 15 15 15 15 14 13 13 13 13 12 12 12 11 11 10 10 10 11 10 10 10 10
15 14 12 11 11 13 15 15 17 20 22 22 21 20 19 19 18 18 18 16 15 14 14 13 14 13 13 14 15 15 14 13 12 13 13 14 13 12 12 11 11 10 10 11 10 10 10 9 9
15 14 15 14 13 14 16 17 20 21 20 21 20 19 18 18 18 17 16 14 13 12 11 10 10 11 11 13 14 14 14 13 12 13 13 14 13 11 12 11 10 10 10 10 9 10 10 9 9
16 16 13 13 12 12 12 16 16 19 19 19 18 19 19 18 17 16 15 13 12 11 10 9 9 9 10 12 13 12 13 13 12 12 12 13 13 11 11 11 10 9 11 9 10 9 9 9 9
14 15 15 15 15 14 13 12 16 18 18 13 19 18 15 14 14 13 13 12 11 10 9 8 7 8 10 11 12 12 13 12 11 12 12 12 12 11 10 10 9 10 10 10 10 10 9 9 9
17 15 16 14 14 15 15 14 15 16 19 18 14 14 12 12 11 11 10 9 8 8 8 6 7 7 9 10 11 13 12 11 11 12 12 12 12 10 10 10 9 10 9 9 10 9 9 9 9

GFSSGP_850_temp_120.txt.gz
Temp
17 18 18 18 14 11 13 15 18 21 21 27 27 26 24 24 24 21 24 24 23 24 24 23 23 22 22 21 20 20 19 19 19 19 19 19 19 19 19 18 18 18 18 18 17 17 16 16 16
18 17 17 17 12 12 13 16 19 21 23 25 27 27 25 22 23 24 23 23 24 25 24 23 23 22 22 21 20 19 19 19 19 18 18 18 18 18 18 18 18 18 18 18 17 17 16 16 16
18 17 16 12 10 12 14 18 20 22 25 25 27 27 26 23 23 24 23 23 24 24 23 23 22 22 21 21 20 19 19 19 19 19 18 18 18 18 18 18 18 17 17 17 17 16 16 16 15
18 17 16 13 13 14 16 18 20 21 25 27 27 26 25 26 25 24 23 24 24 23 23 23 22 22 21 20 20 19 19 19 19 18 18 18 18 18 18 17 17 17 17 16 16 16 16 15 15
17 16 12 12 13 15 17 19 21 21 23 25 27 25 24 24 25 25 25 24 24 23 23 23 22 21 21 20 20 20 19 19 19 19 18 18 18 17 17 17 17 17 16 16 16 16 15 15 15
16 15 11 12 15 17 18 21 21 22 23 25 25 24 24 24 25 25 25 24 24 23 23 23 22 21 21 20 20 19 19 19 19 19 18 18 18 18 17 17 17 17 16 16 16 16 15 15 15
13 11 12 13 15 16 18 21 21 22 24 24 27 22 22 24 25 25 24 24 24 23 23 23 22 21 21 21 20 20 19 19 19 19 18 18 18 17 17 17 16 16 16 16 16 16 16 15 15
16 11 13 13 16 16 19 21 22 23 24 27 27 21 20 23 24 24 23 23 23 23 23 23 22 22 21 21 20 20 19 19 19 19 18 18 18 17 17 16 16 16 16 15 15 15 15 15 15
15 11 14 14 15 17 20 19 21 22 24 26 27 27 25 23 22 22 22 22 22 22 22 22 22 22 22 21 21 20 20 19 19 19 18 18 18 17 17 17 16 15 15 15 15 15 15 15 15
13 11 14 16 17 18 19 19 20 22 23 24 24 26 24 22 22 22 22 23 22 22 22 22 22 22 22 21 21 21 20 20 20 19 19 18 18 17 17 16 16 15 15 15 15 15 14 14 15
14 14 15 17 17 18 18 19 20 19 20 23 23 25 24 22 21 22 22 24 24 23 22 22 22 22 22 21 21 21 21 20 20 20 19 18 17 17 16 16 15 15 14 14 14 14 14 14 14
12 15 16 16 17 17 17 18 18 19 20 22 23 24 23 22 22 22 22 23 23 23 23 22 21 22 22 21 21 21 21 21 20 20 19 18 18 17 16 16 15 15 15 15 14 14 14 14 14
12 14 15 16 17 17 18 18 18 19 20 21 22 23 22 22 22 22 23 23 23 23 22 23 22 22 22 21 21 21 21 21 20 20 19 19 18 18 17 16 15 15 14 14 14 14 14 14 13
13 13 14 15 16 17 17 18 18 19 20 21 22 23 23 22 22 22 22 22 22 22 22 22 22 22 22 22 22 22 21 21 20 20 19 19 18 18 17 16 16 15 14 14 14 14 14 13 13
12 10 12 14 16 16 17 16 17 19 20 21 22 23 23 23 23 22 22 22 21 22 22 22 23 22 22 22 22 22 22 20 20 20 19 19 18 18 17 16 16 15 14 14 13 13 13 13 13
9 10 9 13 15 16 16 15 18 19 20 20 21 22 22 23 23 23 23 23 23 23 22 22 22 22 22 21 21 21 21 20 20 20 18 18 18 17 16 16 15 15 14 14 13 13 13 13 13
8 7 9 11 14 14 15 15 18 19 20 20 20 22 22 22 22 23 23 23 23 23 23 22 21 21 22 21 21 21 21 20 20 19 18 17 17 17 16 16 15 14 14 14 14 13 13 13 12
8 8 9 9 12 13 14 15 17 19 20 20 21 21 22 22 22 22 23 23 23 23 23 23 22 22 22 21 20 19 19 19 18 18 18 17 16 16 16 16 15 14 14 14 13 13 12 12 12
8 7 7 9 11 11 13 15 16 17 18 18 20 21 22 22 22 23 22 23 23 23 23 23 22 22 21 20 19 18 17 18 17 18 18 17 16 15 16 15 15 13 13 13 13 12 12 11 11
7 7 6 9 11 11 12 14 16 17 17 19 19 20 21 21 22 23 23 22 22 23 23 23 22 22 22 21 20 18 18 17 17 17 18 16 16 15 15 15 14 13 13 13 12 12 12 11 11
6 6 6 7 10 11 11 12 14 15 17 18 19 20 21 21 22 22 23 23 22 22 22 22 22 22 21 21 19 19 18 17 17 16 16 17 15 15 14 14 14 13 13 13 12 12 11 11 11
3 7 7 7 8 8 11 10 11 14 15 16 18 19 19 21 22 22 22 21 21 20 20 20 19 18 18 18 18 18 18 17 18 18 17 17 16 14 14 13 13 13 12 12 12 12 11 11 10
4 6 7 8 9 8 10 9 10 12 14 16 15 17 19 20 20 17 18 17 17 16 16 16 16 16 16 16 16 16 16 16 17 17 17 17 15 15 15 14 14 13 12 12 12 11 11 10 10
7 7 8 9 9 7 10 10 9 12 15 15 16 17 19 16 16 16 15 15 15 15 16 16 16 16 15 16 16 15 15 14 14 15 16 16 15 15 15 14 14 13 13 12 12 12 11 10 10
8 7 6 6 6 8 10 9 11 13 14 15 15 16 18 16 16 16 15 15 15 15 15 15 16 15 15 15 15 15 14 14 14 13 14 15 15 14 14 14 14 13 13 12 11 11 11 10 10
8 8 7 7 9 8 10 9 11 13 15 15 15 14 13 15 14 15 13 14 13 14 15 15 16 16 15 15 15 14 14 14 14 13 13 13 14 14 14 13 13 12 12 12 12 11 11 10 10
10 8 10 10 9 9 10 12 14 13 12 13 12 11 10 9 8 8 10 11 12 13 14 15 15 16 16 15 15 15 14 14 14 14 13 13 13 14 14 13 13 13 12 12 12 11 11 10 9
10 11 9 9 8 9 9 10 10 10 9 9 8 8 7 6 6 6 7 8 9 11 11 11 12 13 14 14 13 13 13 13 13 13 12 13 13 13 13 13 13 13 12 12 11 11 11 9 9
9 9 8 9 8 8 9 9 10 11 9 8 7 6 5 5 4 5 6 7 7 8 10 10 11 11 12 12 12 12 13 13 12 12 12 12 13 12 12 13 13 12 12 12 11 11 10 9 9
10 9 9 8 8 8 8 8 8 8 8 7 6 5 4 3 4 4 5 6 7 7 8 10 10 9 9 10 10 11 12 11 11 10 12 12 13 12 12 12 13 12 12 12 11 10 10 10 9

GFSSGP_850_temp_123.txt.gz
Temp
18 18 18 17 14 10 12 14 15 18 21 24 25 23 23 23 22 21 24 25 24 24 23 22 21 21 20 20 20 19 19 19 19 19 19 19 19 19 19 19 18 18 17 17 16 16 16 16 16
18 18 17 16 11 12 13 14 17 18 21 24 25 24 24 23 23 23 23 24 24 24 23 23 22 21 20 20 20 19 19 19 19 19 18 19 19 19 19 19 18 18 17 17 16 16 16 16 16
17 17 17 11 8 12 14 15 17 21 22 22 24 26 24 23 24 25 24 24 23 24 24 23 22 21 20 20 20 19 19 18 18 18 18 18 18 18 18 18 18 18 17 17 16 16 16 15 15
17 17 15 11 11 11 14 18 18 18 22 23 24 22 24 26 26 25 24 24 24 24 24 23 22 21 20 20 19 19 19 19 18 18 18 18 18 18 18 18 18 18 17 17 16 16 16 15 15
17 15 11 10 11 12 14 17 19 18 19 22 22 22 24 24 25 25 24 24 24 24 23 23 22 21 20 20 20 19 19 19 19 18 18 18 18 18 18 18 17 17 17 16 16 16 15 15 14
15 13 10 10 13 15 16 19 19 19 21 22 22 22 23 22 24 24 24 24 24 24 23 23 22 20 20 20 20 20 20 19 19 18 18 18 18 18 18 17 17 17 17 16 16 16 15 15 14
12 9 10 12 13 15 16 20 18 20 20 21 23 20 23 23 24 23 24 24 23 23 23 22 22 20 20 20 19 20 20 19 19 18 18 18 18 17 17 17 17 17 16 16 16 15 15 14 14
15 10 11 11 14 15 18 19 21 21 20 22 23 20 19 24 23 23 23 23 23 23 23 23 22 21 20 19 19 19 19 19 19 19 18 18 18 17 17 17 17 16 16 16 16 15 15 15 14
14 10 12 12 14 16 18 17 20 20 20 21 22 23 23 24 23 22 22 22 22 22 22 23 22 21 20 20 19 19 19 19 19 19 18 18 18 17 17 16 16 16 16 16 15 15 15 15 14
12 8 13 13 15 16 17 17 18 18 19 19 20 22 23 22 23 23 22 22 22 22 22 22 23 22 21 20 20 19 19 19 19 19 18 18 18 18 17 17 16 15 15 15 15 15 14 14 14
12 12 14 15 16 16 15 16 17 17 17 19 19 22 21 22 21 23 23 23 23 23 22 22 22 22 21 21 21 20 20 19 19 19 19 18 18 18 17 17 16 15 15 15 15 14 14 14 14
10 13 14 14 15 15 15 16 16 17 17 19 19 21 21 19 20 21 22 23 22 22 23 22 22 22 22 22 21 21 21 20 20 20 19 18 18 18 18 17 16 16 15 15 15 14 14 14 13
9 11 12 13 13 14 15 15 16 16 17 18 19 19 21 19 20 21 23 22 22 22 22 22 22 22 22 21 22 21 21 21 21 20 20 19 19 18 18 17 16 16 15 15 15 14 14 13 13
9 9 10 11 11 12 13 14 16 17 17 18 19 19 20 20 19 21 20 21 22 22 22 22 22 22 22 22 21 22 21 21 21 20 20 20 19 19 18 17 16 16 15 15 15 14 14 13 13
9 8 9 10 11 11 13 13 14 16 17 17 19 20 20 21 19 18 21 22 23 22 23 22 22 22 21 21 21 21 21 21 21 20 20 20 19 19 18 17 16 16 15 14 14 14 13 13 12
8 7 7 11 10 11 12 12 15 16 17 17 18 19 20 21 22 20 21 21 22 22 22 22 22 22 21 21 21 21 21 21 21 20 20 19 19 19 18 17 17 16 14 14 14 14 13 13 12
6 5 7 8 10 10 11 11 13 15 16 17 18 18 19 20 21 22 22 22 21 22 22 22 22 22 22 21 21 21 20 20 20 19 19 18 18 18 18 17 17 15 14 14 13 13 13 13 13
6 5 7 6 9 9 9 9 11 13 14 16 17 18 19 20 21 22 22 22 21 21 21 21 21 22 22 21 20 20 19 19 19 18 18 17 17 17 17 17 16 15 14 13 13 13 13 13 13
7 6 6 7 8 8 8 9 10 11 12 14 17 17 18 20 21 22 22 22 22 22 22 21 22 22 22 21 20 19 20 19 18 18 17 16 16 16 16 16 15 15 13 13 13 13 12 12 11
6 5 5 7 8 8 7 7 9 11 11 14 16 18 18 19 21 21 22 22 22 22 22 22 22 22 22 22 22 20 20 20 19 18 18 17 16 16 16 15 15 14 13 13 12 12 12 12 12
6 6 6 6 7 7 6 6 8 11 12 15 16 17 18 18 20 21 21 22 22 22 22 22 22 22 22 21 20 19 17 18 18 17 18 17 17 16 15 15 15 14 14 14 13 13 12 12 12
5 7 7 5 4 3 7 5 8 9 12 13 16 16 18 19 19 20 19 20 20 20 21 21 20 19 19 18 16 17 17 18 18 18 18 18 17 16 15 15 14 14 14 13 13 13 13 12 12
6 7 5 5 4 5 5 5 7 10 11 13 13 16 17 18 19 18 17 16 16 16 17 17 16 15 15 15 14 16 17 17 17 17 17 17 17 16 15 15 14 14 14 13 13 13 12 12 12
8 7 5 5 4 3 5 6 5 9 12 13 14 14 12 12 12 12 13 13 13 13 13 13 13 13 13 14 15 16 17 16 16 17 16 16 16 16 15 15 14 14 14 14 13 12 12 12 12
6 5 4 3 3 5 8 7 7 10 11 11 11 11 11 9 9 8 10 12 12 13 13 14 14 14 14 14 14 15 15 15 16 15 15 15 15 14 15 15 15 14 14 14 14 14 13 12 12
6 6 5 4 6 7 10 7 9 10 13 12 12 10 8 7 7 6 7 10 11 13 13 14 14 15 15 15 15 15 15 15 14 14 15 14 14 14 13 14 14 14 13 13 13 13 13 13 11
8 6 9 8 6 6 8 10 9 9 10 8 8 7 5 5 5 5 6 7 9 11 12 13 14 14 15 15 14 14 14 14 15 15 15 15 14 14 14 14 13 13 13 13 12 12 12 12 12
7 8 8 7 7 9 7 8 9 8 7 7 6 5 3 3 3 4 6 6 8 9 10 11 13 13 13 13 13 12 12 13 13 14 14 14 13 14 14 14 13 13 13 13 12 12 12 11 11
7 7 7 8 7 8 8 9 10 8 6 5 4 3 2 1 1 2 3 5 5 7 8 10 12 13 14 13 12 12 12 12 12 13 14 14 13 13 13 13 13 12 13 13 13 12 11 12 11
8 6 7 6 8 7 7 8 6 6 5 5 4 3 1 0 -0 1 3 5 7 7 7 7 9 11 12 12 12 12 12 12 13 13 12 12 12 12 12 13 12 12 12 13 12 12 12 11 11

GFSSGP_850_temp_126.txt.gz
Temp
18 18 18 18 13 10 12 13 13 17 19 22 22 22 20 22 21 19 24 25 25 24 23 21 21 20 20 20 19 19 19 19 19 19 19 19 19 19 18 18 18 18 17 16 16 16 16 16 16
18 17 17 16 11 12 13 12 15 16 19 22 23 22 22 22 23 24 24 24 24 25 23 21 21 20 20 19 19 19 19 19 19 19 19 19 19 19 18 18 18 18 17 17 16 16 16 16 16
17 17 17 10 7 12 13 14 14 17 20 21 22 24 24 23 23 24 25 25 24 24 23 21 21 21 20 20 19 19 19 18 19 18 18 19 19 19 18 18 18 18 17 17 17 16 16 16 16
16 17 14 11 11 11 12 15 17 16 20 21 21 20 24 25 24 24 25 24 24 23 23 22 22 21 20 20 19 18 18 18 18 18 18 18 18 18 18 18 18 18 17 17 17 16 16 16 16
16 15 10 10 11 12 13 15 17 16 18 20 21 20 22 24 25 24 24 24 24 24 23 23 22 21 20 20 19 18 18 18 18 18 18 18 18 18 18 18 17 17 17 17 17 16 16 16 16
15 13 10 9 11 13 14 17 18 17 19 20 21 20 23 24 25 24 23 23 23 24 23 23 21 21 20 19 19 18 18 18 18 18 18 18 18 18 17 17 17 17 17 17 16 16 16 16 16
12 9 9 11 12 14 15 18 17 17 18 19 22 19 22 23 23 24 23 23 23 23 23 22 22 21 20 19 19 19 18 18 18 18 18 18 18 17 17 17 17 17 16 16 16 15 15 15 15
14 9 10 10 12 13 17 18 19 18 18 20 21 19 21 22 22 22 22 22 22 23 22 22 21 20 20 20 19 19 19 19 18 18 18 18 17 17 17 17 17 16 16 16 15 15 15 15 15
13 9 7 11 13 14 18 17 18 19 18 19 20 21 20 21 22 21 21 22 22 22 22 22 21 20 19 19 19 19 18 18 18 18 18 17 17 17 17 17 17 17 16 16 15 15 15 15 14
11 7 12 12 14 14 15 16 16 16 17 17 18 19 20 21 20 21 21 22 22 22 22 22 21 20 19 19 19 19 18 18 18 18 18 18 17 17 17 17 17 16 16 15 15 14 14 15 15
11 9 11 13 14 14 13 14 15 15 15 17 17 18 19 19 20 19 21 23 24 23 22 22 21 21 20 19 19 19 19 18 18 18 18 18 18 17 17 17 16 16 16 15 15 14 14 14 14
8 10 10 11 11 11 10 13 13 14 15 16 16 17 18 19 19 19 20 21 22 23 23 22 22 21 20 20 19 19 19 19 19 19 18 18 18 18 17 17 17 17 16 16 15 15 14 14 14
8 9 9 9 10 10 11 11 12 13 14 15 16 17 17 18 19 19 20 18 19 21 22 22 22 21 21 20 20 20 20 20 20 19 19 19 18 18 18 17 17 17 16 16 15 15 14 14 13
9 8 8 9 9 9 10 11 12 14 15 15 16 17 17 18 19 19 19 19 19 20 21 21 22 21 21 21 21 21 21 21 20 20 20 19 19 19 18 18 17 17 16 16 15 14 14 13 13
8 7 8 9 10 9 11 9 10 13 14 14 15 16 16 17 19 20 20 20 20 20 21 21 21 21 21 21 21 21 21 21 21 21 20 19 19 19 18 17 17 17 16 16 15 14 13 13 12
7 6 4 9 10 11 11 10 12 13 13 13 14 15 16 17 18 19 20 20 20 19 20 21 21 21 21 21 21 21 21 21 21 21 20 19 19 18 18 17 17 16 15 15 15 14 13 13 12
5 4 5 7 9 9 8 8 11 11 10 11 11 13 14 16 17 18 19 20 20 20 20 21 20 21 21 21 20 21 21 21 20 20 19 19 18 18 17 17 17 16 15 15 14 14 13 13 12
5 4 5 5 7 8 7 7 8 9 10 10 10 11 12 14 16 17 19 20 20 20 20 20 21 20 21 20 20 19 20 20 20 19 19 19 18 18 17 17 16 16 15 15 14 13 13 12 12
6 5 5 6 7 7 7 7 7 8 9 9 9 10 11 13 15 17 19 20 20 20 20 20 21 20 20 19 20 19 20 20 20 20 19 19 18 17 17 17 16 16 15 15 14 13 13 12 12
5 4 4 6 7 7 6 7 8 8 8 9 9 10 11 11 14 16 18 20 21 22 21 21 21 21 20 20 20 19 20 19 19 19 19 18 17 17 17 16 16 16 15 14 13 13 13 12 12
5 5 5 5 7 7 6 6 6 8 8 8 9 10 11 12 13 16 18 19 20 21 22 21 21 21 21 20 19 18 17 17 18 18 18 18 17 17 16 16 16 15 15 14 14 13 13 13 12
4 6 7 6 5 5 5 4 6 7 7 8 10 10 11 12 14 16 17 18 18 20 21 21 21 21 21 19 19 18 18 18 18 19 17 17 17 17 17 17 16 16 14 14 14 13 13 13 12
5 6 6 6 5 3 5 3 6 7 7 8 10 11 12 14 15 15 16 17 17 18 19 19 19 19 19 17 16 16 16 17 17 18 17 17 16 16 16 17 16 15 14 14 14 14 13 14 13
7 6 6 4 3 3 6 4 6 6 8 10 9 8 9 11 11 9 10 12 13 15 15 16 16 17 16 16 13 14 14 15 17 17 17 16 16 13 15 16 15 15 15 14 14 14 14 14 13
6 5 4 3 3 6 8 5 6 8 10 10 9 6 5 4 4 4 5 7 10 10 10 11 12 12 12 13 13 13 13 14 16 16 17 17 15 14 16 16 16 15 15 14 14 14 14 14 13
7 5 5 3 7 7 8 6 7 8 8 6 5 4 3 2 2 2 3 5 7 7 9 10 11 11 11 12 12 13 13 14 15 15 15 16 14 15 16 16 15 15 14 14 14 14 13 13 13
7 6 7 6 7 5 6 9 9 7 6 5 4 3 2 2 1 1 2 3 4 5 8 9 9 11 12 12 12 14 14 15 15 15 15 15 15 15 15 15 15 14 14 14 13 13 13 13 13
7 7 6 6 5 7 8 7 5 6 5 4 3 2 2 1 0 0 0 2 2 4 5 7 8 10 11 12 13 13 13 14 15 15 15 15 15 15 15 14 14 14 14 13 13 13 13 13 13
6 6 6 7 6 8 7 7 3 4 4 4 2 1 0 -0 -1 -0 -0 0 2 4 6 7 8 9 10 12 12 12 13 13 14 14 13 14 14 14 14 13 14 14 13 13 13 13 12 13 13
7 5 5 7 7 7 7 5 2 2 1 1 1 1 0 -1 -1 -1 -1 -1 1 6 6 5 7 9 9 11 11 12 11 11 11 11 12 12 12 13 13 12 12 13 13 12 12 12 12 13 13